<?xml version="1.0" encoding="UTF-8" standalone="no" ?>
<gpx xmlns="http://www.topografix.com/GPX/1/1" xmlns:xsi="http://www.w3.org/2001/XMLSchema-instance" xsi:schemaLocation="http://www.topografix.com/GPX/1/1 http://www.topografix.com/GPX/1/1/gpx.xsd" version="1.1" creator="VisuGPX - https://www.visugpx.com">
  <metadata>
    <name>Montigny Vtt</name>
    <desc><![CDATA[Montigny par la Vaupalliere]]></desc>
  </metadata>
  <wpt lat="49.47646" lon="1.04221">
    <ele>-14</ele>
  </wpt>
  <trk>
    <name><![CDATA[Montigny Vtt_1]]></name>
    <trkseg>
      <trkpt lat="49.47646" lon="1.04221">
        <ele>-14</ele>
        <time>2014-10-30T12:43:13Z</time>
      </trkpt>
      <trkpt lat="49.47646" lon="1.04206">
        <ele>-14</ele>
        <time>2014-10-30T12:43:21Z</time>
      </trkpt>
      <trkpt lat="49.47636" lon="1.04211">
        <ele>-26</ele>
        <time>2014-10-30T12:43:34Z</time>
      </trkpt>
      <trkpt lat="49.47642" lon="1.04199">
        <ele>-26</ele>
        <time>2014-10-30T12:43:48Z</time>
      </trkpt>
      <trkpt lat="49.4765" lon="1.04207">
        <ele>-17</ele>
        <time>2014-10-30T12:44:16Z</time>
      </trkpt>
      <trkpt lat="49.47656" lon="1.04217">
        <ele>17</ele>
        <time>2014-10-30T12:46:50Z</time>
      </trkpt>
      <trkpt lat="49.47663" lon="1.04227">
        <ele>17</ele>
        <time>2014-10-30T12:47:47Z</time>
      </trkpt>
      <trkpt lat="49.47672" lon="1.04228">
        <ele>17</ele>
        <time>2014-10-30T12:47:51Z</time>
      </trkpt>
      <trkpt lat="49.47681" lon="1.04223">
        <ele>17</ele>
        <time>2014-10-30T12:47:54Z</time>
      </trkpt>
      <trkpt lat="49.47691" lon="1.04222">
        <ele>17</ele>
        <time>2014-10-30T12:47:57Z</time>
      </trkpt>
      <trkpt lat="49.477" lon="1.04218">
        <ele>17</ele>
        <time>2014-10-30T12:48:01Z</time>
      </trkpt>
      <trkpt lat="49.47702" lon="1.04203">
        <ele>17</ele>
        <time>2014-10-30T12:48:05Z</time>
      </trkpt>
      <trkpt lat="49.47702" lon="1.04188">
        <ele>17</ele>
        <time>2014-10-30T12:48:08Z</time>
      </trkpt>
      <trkpt lat="49.47701" lon="1.04172">
        <ele>17</ele>
        <time>2014-10-30T12:48:11Z</time>
      </trkpt>
      <trkpt lat="49.47701" lon="1.04157">
        <ele>17</ele>
        <time>2014-10-30T12:48:14Z</time>
      </trkpt>
      <trkpt lat="49.477" lon="1.04143">
        <ele>17</ele>
        <time>2014-10-30T12:48:17Z</time>
      </trkpt>
      <trkpt lat="49.47699" lon="1.04126">
        <ele>11</ele>
        <time>2014-10-30T12:48:20Z</time>
      </trkpt>
      <trkpt lat="49.47699" lon="1.04109">
        <ele>11</ele>
        <time>2014-10-30T12:48:23Z</time>
      </trkpt>
      <trkpt lat="49.47699" lon="1.04095">
        <ele>11</ele>
        <time>2014-10-30T12:48:26Z</time>
      </trkpt>
      <trkpt lat="49.47702" lon="1.04081">
        <ele>11</ele>
        <time>2014-10-30T12:48:29Z</time>
      </trkpt>
      <trkpt lat="49.47709" lon="1.0407">
        <ele>11</ele>
        <time>2014-10-30T12:48:32Z</time>
      </trkpt>
      <trkpt lat="49.47718" lon="1.04064">
        <ele>11</ele>
        <time>2014-10-30T12:48:35Z</time>
      </trkpt>
      <trkpt lat="49.47728" lon="1.04061">
        <ele>11</ele>
        <time>2014-10-30T12:48:38Z</time>
      </trkpt>
      <trkpt lat="49.47738" lon="1.04059">
        <ele>11</ele>
        <time>2014-10-30T12:48:41Z</time>
      </trkpt>
      <trkpt lat="49.47749" lon="1.04056">
        <ele>11</ele>
        <time>2014-10-30T12:48:44Z</time>
      </trkpt>
      <trkpt lat="49.47759" lon="1.04052">
        <ele>11</ele>
        <time>2014-10-30T12:48:47Z</time>
      </trkpt>
      <trkpt lat="49.4777" lon="1.04047">
        <ele>11</ele>
        <time>2014-10-30T12:48:50Z</time>
      </trkpt>
      <trkpt lat="49.47779" lon="1.04034">
        <ele>11</ele>
        <time>2014-10-30T12:48:53Z</time>
      </trkpt>
      <trkpt lat="49.47787" lon="1.0402">
        <ele>11</ele>
        <time>2014-10-30T12:48:56Z</time>
      </trkpt>
      <trkpt lat="49.47793" lon="1.04003">
        <ele>11</ele>
        <time>2014-10-30T12:48:59Z</time>
      </trkpt>
      <trkpt lat="49.47797" lon="1.03986">
        <ele>11</ele>
        <time>2014-10-30T12:49:02Z</time>
      </trkpt>
      <trkpt lat="49.47801" lon="1.03969">
        <ele>11</ele>
        <time>2014-10-30T12:49:05Z</time>
      </trkpt>
      <trkpt lat="49.47807" lon="1.03953">
        <ele>11</ele>
        <time>2014-10-30T12:49:08Z</time>
      </trkpt>
      <trkpt lat="49.47814" lon="1.03938">
        <ele>11</ele>
        <time>2014-10-30T12:49:11Z</time>
      </trkpt>
      <trkpt lat="49.47821" lon="1.03923">
        <ele>11</ele>
        <time>2014-10-30T12:49:14Z</time>
      </trkpt>
      <trkpt lat="49.47827" lon="1.03908">
        <ele>11</ele>
        <time>2014-10-30T12:49:17Z</time>
      </trkpt>
      <trkpt lat="49.47836" lon="1.03897">
        <ele>11</ele>
        <time>2014-10-30T12:49:20Z</time>
      </trkpt>
      <trkpt lat="49.47847" lon="1.03888">
        <ele>11</ele>
        <time>2014-10-30T12:49:23Z</time>
      </trkpt>
      <trkpt lat="49.47857" lon="1.03879">
        <ele>11</ele>
        <time>2014-10-30T12:49:26Z</time>
      </trkpt>
      <trkpt lat="49.47867" lon="1.03869">
        <ele>11</ele>
        <time>2014-10-30T12:49:29Z</time>
      </trkpt>
      <trkpt lat="49.47877" lon="1.03859">
        <ele>11</ele>
        <time>2014-10-30T12:49:32Z</time>
      </trkpt>
      <trkpt lat="49.47887" lon="1.03848">
        <ele>11</ele>
        <time>2014-10-30T12:49:35Z</time>
      </trkpt>
      <trkpt lat="49.47897" lon="1.03838">
        <ele>11</ele>
        <time>2014-10-30T12:49:38Z</time>
      </trkpt>
      <trkpt lat="49.47907" lon="1.0383">
        <ele>11</ele>
        <time>2014-10-30T12:49:41Z</time>
      </trkpt>
      <trkpt lat="49.47919" lon="1.03823">
        <ele>11</ele>
        <time>2014-10-30T12:49:44Z</time>
      </trkpt>
      <trkpt lat="49.4793" lon="1.03817">
        <ele>11</ele>
        <time>2014-10-30T12:49:47Z</time>
      </trkpt>
      <trkpt lat="49.47942" lon="1.0381">
        <ele>11</ele>
        <time>2014-10-30T12:49:50Z</time>
      </trkpt>
      <trkpt lat="49.47953" lon="1.03804">
        <ele>11</ele>
        <time>2014-10-30T12:49:53Z</time>
      </trkpt>
      <trkpt lat="49.47963" lon="1.03798">
        <ele>11</ele>
        <time>2014-10-30T12:49:56Z</time>
      </trkpt>
      <trkpt lat="49.47974" lon="1.0379">
        <ele>11</ele>
        <time>2014-10-30T12:49:59Z</time>
      </trkpt>
      <trkpt lat="49.47984" lon="1.03779">
        <ele>11</ele>
        <time>2014-10-30T12:50:02Z</time>
      </trkpt>
      <trkpt lat="49.47991" lon="1.03763">
        <ele>11</ele>
        <time>2014-10-30T12:50:05Z</time>
      </trkpt>
      <trkpt lat="49.47993" lon="1.03745">
        <ele>11</ele>
        <time>2014-10-30T12:50:08Z</time>
      </trkpt>
      <trkpt lat="49.47994" lon="1.03727">
        <ele>11</ele>
        <time>2014-10-30T12:50:11Z</time>
      </trkpt>
      <trkpt lat="49.47996" lon="1.03708">
        <ele>11</ele>
        <time>2014-10-30T12:50:14Z</time>
      </trkpt>
      <trkpt lat="49.47997" lon="1.03689">
        <ele>11</ele>
        <time>2014-10-30T12:50:17Z</time>
      </trkpt>
      <trkpt lat="49.48" lon="1.03672">
        <ele>11</ele>
        <time>2014-10-30T12:50:20Z</time>
      </trkpt>
      <trkpt lat="49.48004" lon="1.03658">
        <ele>11</ele>
        <time>2014-10-30T12:50:23Z</time>
      </trkpt>
      <trkpt lat="49.48012" lon="1.03647">
        <ele>11</ele>
        <time>2014-10-30T12:50:26Z</time>
      </trkpt>
      <trkpt lat="49.48021" lon="1.03645">
        <ele>11</ele>
        <time>2014-10-30T12:50:29Z</time>
      </trkpt>
      <trkpt lat="49.48032" lon="1.03649">
        <ele>11</ele>
        <time>2014-10-30T12:50:32Z</time>
      </trkpt>
      <trkpt lat="49.48043" lon="1.03653">
        <ele>11</ele>
        <time>2014-10-30T12:50:35Z</time>
      </trkpt>
      <trkpt lat="49.48054" lon="1.03657">
        <ele>11</ele>
        <time>2014-10-30T12:50:38Z</time>
      </trkpt>
      <trkpt lat="49.48065" lon="1.0366">
        <ele>11</ele>
        <time>2014-10-30T12:50:41Z</time>
      </trkpt>
      <trkpt lat="49.48075" lon="1.03664">
        <ele>16</ele>
        <time>2014-10-30T12:50:44Z</time>
      </trkpt>
      <trkpt lat="49.48085" lon="1.03667">
        <ele>16</ele>
        <time>2014-10-30T12:50:47Z</time>
      </trkpt>
      <trkpt lat="49.48095" lon="1.03671">
        <ele>16</ele>
        <time>2014-10-30T12:50:50Z</time>
      </trkpt>
      <trkpt lat="49.48105" lon="1.03674">
        <ele>16</ele>
        <time>2014-10-30T12:50:53Z</time>
      </trkpt>
      <trkpt lat="49.48114" lon="1.03677">
        <ele>16</ele>
        <time>2014-10-30T12:50:56Z</time>
      </trkpt>
      <trkpt lat="49.48123" lon="1.03681">
        <ele>16</ele>
        <time>2014-10-30T12:50:59Z</time>
      </trkpt>
      <trkpt lat="49.48134" lon="1.03684">
        <ele>23</ele>
        <time>2014-10-30T12:51:03Z</time>
      </trkpt>
      <trkpt lat="49.48143" lon="1.03686">
        <ele>23</ele>
        <time>2014-10-30T12:51:06Z</time>
      </trkpt>
      <trkpt lat="49.48153" lon="1.03683">
        <ele>23</ele>
        <time>2014-10-30T12:51:11Z</time>
      </trkpt>
      <trkpt lat="49.4816" lon="1.03673">
        <ele>23</ele>
        <time>2014-10-30T12:51:19Z</time>
      </trkpt>
      <trkpt lat="49.48158" lon="1.03658">
        <ele>23</ele>
        <time>2014-10-30T12:51:24Z</time>
      </trkpt>
      <trkpt lat="49.48148" lon="1.03647">
        <ele>23</ele>
        <time>2014-10-30T12:51:28Z</time>
      </trkpt>
      <trkpt lat="49.48143" lon="1.03633">
        <ele>23</ele>
        <time>2014-10-30T12:51:32Z</time>
      </trkpt>
      <trkpt lat="49.48143" lon="1.03617">
        <ele>23</ele>
        <time>2014-10-30T12:51:37Z</time>
      </trkpt>
      <trkpt lat="49.48143" lon="1.03602">
        <ele>23</ele>
        <time>2014-10-30T12:51:43Z</time>
      </trkpt>
      <trkpt lat="49.48143" lon="1.03584">
        <ele>23</ele>
        <time>2014-10-30T12:51:50Z</time>
      </trkpt>
      <trkpt lat="49.48144" lon="1.03567">
        <ele>23</ele>
        <time>2014-10-30T12:51:54Z</time>
      </trkpt>
      <trkpt lat="49.48147" lon="1.03553">
        <ele>23</ele>
        <time>2014-10-30T12:51:58Z</time>
      </trkpt>
      <trkpt lat="49.48155" lon="1.03548">
        <ele>34</ele>
        <time>2014-10-30T12:52:04Z</time>
      </trkpt>
      <trkpt lat="49.48162" lon="1.03538">
        <ele>41</ele>
        <time>2014-10-30T12:52:11Z</time>
      </trkpt>
      <trkpt lat="49.48164" lon="1.03522">
        <ele>58</ele>
        <time>2014-10-30T12:52:21Z</time>
      </trkpt>
      <trkpt lat="49.48165" lon="1.03508">
        <ele>58</ele>
        <time>2014-10-30T12:52:26Z</time>
      </trkpt>
      <trkpt lat="49.48164" lon="1.0349">
        <ele>49</ele>
        <time>2014-10-30T12:52:31Z</time>
      </trkpt>
      <trkpt lat="49.48165" lon="1.03472">
        <ele>41</ele>
        <time>2014-10-30T12:52:35Z</time>
      </trkpt>
      <trkpt lat="49.48166" lon="1.03456">
        <ele>41</ele>
        <time>2014-10-30T12:52:39Z</time>
      </trkpt>
      <trkpt lat="49.48164" lon="1.03439">
        <ele>41</ele>
        <time>2014-10-30T12:52:44Z</time>
      </trkpt>
      <trkpt lat="49.48162" lon="1.03424">
        <ele>41</ele>
        <time>2014-10-30T12:52:49Z</time>
      </trkpt>
      <trkpt lat="49.48159" lon="1.03409">
        <ele>41</ele>
        <time>2014-10-30T12:52:55Z</time>
      </trkpt>
      <trkpt lat="49.48155" lon="1.03394">
        <ele>41</ele>
        <time>2014-10-30T12:53:01Z</time>
      </trkpt>
      <trkpt lat="49.48154" lon="1.0338">
        <ele>41</ele>
        <time>2014-10-30T12:53:06Z</time>
      </trkpt>
      <trkpt lat="49.4815" lon="1.03366">
        <ele>41</ele>
        <time>2014-10-30T12:53:12Z</time>
      </trkpt>
      <trkpt lat="49.48146" lon="1.03352">
        <ele>41</ele>
        <time>2014-10-30T12:53:18Z</time>
      </trkpt>
      <trkpt lat="49.48141" lon="1.03339">
        <ele>51</ele>
        <time>2014-10-30T12:53:24Z</time>
      </trkpt>
      <trkpt lat="49.48137" lon="1.03321">
        <ele>51</ele>
        <time>2014-10-30T12:53:32Z</time>
      </trkpt>
      <trkpt lat="49.48132" lon="1.03307">
        <ele>57</ele>
        <time>2014-10-30T12:53:38Z</time>
      </trkpt>
      <trkpt lat="49.48127" lon="1.03292">
        <ele>62</ele>
        <time>2014-10-30T12:53:44Z</time>
      </trkpt>
      <trkpt lat="49.48121" lon="1.03279">
        <ele>68</ele>
        <time>2014-10-30T12:53:51Z</time>
      </trkpt>
      <trkpt lat="49.48117" lon="1.03262">
        <ele>62</ele>
        <time>2014-10-30T12:53:56Z</time>
      </trkpt>
      <trkpt lat="49.48114" lon="1.03248">
        <ele>62</ele>
        <time>2014-10-30T12:54:01Z</time>
      </trkpt>
      <trkpt lat="49.48109" lon="1.03234">
        <ele>55</ele>
        <time>2014-10-30T12:54:06Z</time>
      </trkpt>
      <trkpt lat="49.48107" lon="1.03218">
        <ele>55</ele>
        <time>2014-10-30T12:54:11Z</time>
      </trkpt>
      <trkpt lat="49.48099" lon="1.03212">
        <ele>63</ele>
        <time>2014-10-30T12:54:17Z</time>
      </trkpt>
      <trkpt lat="49.48089" lon="1.03211">
        <ele>63</ele>
        <time>2014-10-30T12:54:23Z</time>
      </trkpt>
      <trkpt lat="49.4809" lon="1.03197">
        <ele>63</ele>
        <time>2014-10-30T12:54:39Z</time>
      </trkpt>
      <trkpt lat="49.4809" lon="1.03181">
        <ele>63</ele>
        <time>2014-10-30T12:54:46Z</time>
      </trkpt>
      <trkpt lat="49.48089" lon="1.03167">
        <ele>63</ele>
        <time>2014-10-30T12:54:59Z</time>
      </trkpt>
      <trkpt lat="49.48088" lon="1.03151">
        <ele>56</ele>
        <time>2014-10-30T12:55:04Z</time>
      </trkpt>
      <trkpt lat="49.48083" lon="1.03137">
        <ele>56</ele>
        <time>2014-10-30T12:55:10Z</time>
      </trkpt>
      <trkpt lat="49.48079" lon="1.03122">
        <ele>56</ele>
        <time>2014-10-30T12:55:15Z</time>
      </trkpt>
      <trkpt lat="49.48076" lon="1.03109">
        <ele>56</ele>
        <time>2014-10-30T12:55:20Z</time>
      </trkpt>
      <trkpt lat="49.48072" lon="1.03093">
        <ele>62</ele>
        <time>2014-10-30T12:55:26Z</time>
      </trkpt>
      <trkpt lat="49.48068" lon="1.03081">
        <ele>62</ele>
        <time>2014-10-30T12:55:30Z</time>
      </trkpt>
      <trkpt lat="49.48064" lon="1.03066">
        <ele>62</ele>
        <time>2014-10-30T12:55:35Z</time>
      </trkpt>
      <trkpt lat="49.48059" lon="1.03051">
        <ele>62</ele>
        <time>2014-10-30T12:55:41Z</time>
      </trkpt>
      <trkpt lat="49.48055" lon="1.03036">
        <ele>62</ele>
        <time>2014-10-30T12:55:46Z</time>
      </trkpt>
      <trkpt lat="49.48051" lon="1.03022">
        <ele>70</ele>
        <time>2014-10-30T12:55:53Z</time>
      </trkpt>
      <trkpt lat="49.48047" lon="1.03007">
        <ele>70</ele>
        <time>2014-10-30T12:55:59Z</time>
      </trkpt>
      <trkpt lat="49.48041" lon="1.02995">
        <ele>81</ele>
        <time>2014-10-30T12:56:06Z</time>
      </trkpt>
      <trkpt lat="49.48038" lon="1.02982">
        <ele>87</ele>
        <time>2014-10-30T12:56:12Z</time>
      </trkpt>
      <trkpt lat="49.48034" lon="1.02966">
        <ele>87</ele>
        <time>2014-10-30T12:56:18Z</time>
      </trkpt>
      <trkpt lat="49.48032" lon="1.02951">
        <ele>87</ele>
        <time>2014-10-30T12:56:23Z</time>
      </trkpt>
      <trkpt lat="49.48026" lon="1.02941">
        <ele>87</ele>
        <time>2014-10-30T12:56:28Z</time>
      </trkpt>
      <trkpt lat="49.48023" lon="1.02927">
        <ele>87</ele>
        <time>2014-10-30T12:56:32Z</time>
      </trkpt>
      <trkpt lat="49.48018" lon="1.02913">
        <ele>87</ele>
        <time>2014-10-30T12:56:38Z</time>
      </trkpt>
      <trkpt lat="49.48017" lon="1.02898">
        <ele>82</ele>
        <time>2014-10-30T12:56:42Z</time>
      </trkpt>
      <trkpt lat="49.48015" lon="1.02882">
        <ele>82</ele>
        <time>2014-10-30T12:56:47Z</time>
      </trkpt>
      <trkpt lat="49.48011" lon="1.02869">
        <ele>82</ele>
        <time>2014-10-30T12:56:53Z</time>
      </trkpt>
      <trkpt lat="49.48006" lon="1.02857">
        <ele>82</ele>
        <time>2014-10-30T12:56:59Z</time>
      </trkpt>
      <trkpt lat="49.47999" lon="1.02845">
        <ele>92</ele>
        <time>2014-10-30T12:57:06Z</time>
      </trkpt>
      <trkpt lat="49.47993" lon="1.02831">
        <ele>92</ele>
        <time>2014-10-30T12:57:13Z</time>
      </trkpt>
      <trkpt lat="49.47986" lon="1.0282">
        <ele>92</ele>
        <time>2014-10-30T12:57:19Z</time>
      </trkpt>
      <trkpt lat="49.47978" lon="1.02813">
        <ele>99</ele>
        <time>2014-10-30T12:57:24Z</time>
      </trkpt>
      <trkpt lat="49.4797" lon="1.02804">
        <ele>99</ele>
        <time>2014-10-30T12:57:28Z</time>
      </trkpt>
      <trkpt lat="49.4796" lon="1.02797">
        <ele>99</ele>
        <time>2014-10-30T12:57:34Z</time>
      </trkpt>
      <trkpt lat="49.47952" lon="1.02787">
        <ele>99</ele>
        <time>2014-10-30T12:57:40Z</time>
      </trkpt>
      <trkpt lat="49.47944" lon="1.02778">
        <ele>99</ele>
        <time>2014-10-30T12:57:46Z</time>
      </trkpt>
      <trkpt lat="49.47938" lon="1.02767">
        <ele>99</ele>
        <time>2014-10-30T12:57:51Z</time>
      </trkpt>
      <trkpt lat="49.4793" lon="1.02757">
        <ele>94</ele>
        <time>2014-10-30T12:57:57Z</time>
      </trkpt>
      <trkpt lat="49.47924" lon="1.02747">
        <ele>94</ele>
        <time>2014-10-30T12:58:03Z</time>
      </trkpt>
      <trkpt lat="49.47917" lon="1.02735">
        <ele>94</ele>
        <time>2014-10-30T12:58:10Z</time>
      </trkpt>
      <trkpt lat="49.47911" lon="1.02723">
        <ele>94</ele>
        <time>2014-10-30T12:58:16Z</time>
      </trkpt>
      <trkpt lat="49.47906" lon="1.02712">
        <ele>94</ele>
        <time>2014-10-30T12:58:22Z</time>
      </trkpt>
      <trkpt lat="49.47902" lon="1.02699">
        <ele>101</ele>
        <time>2014-10-30T12:58:28Z</time>
      </trkpt>
      <trkpt lat="49.47897" lon="1.02685">
        <ele>101</ele>
        <time>2014-10-30T12:58:35Z</time>
      </trkpt>
      <trkpt lat="49.47895" lon="1.02671">
        <ele>101</ele>
        <time>2014-10-30T12:58:40Z</time>
      </trkpt>
      <trkpt lat="49.47897" lon="1.02655">
        <ele>101</ele>
        <time>2014-10-30T12:58:46Z</time>
      </trkpt>
      <trkpt lat="49.47899" lon="1.02641">
        <ele>107</ele>
        <time>2014-10-30T12:58:51Z</time>
      </trkpt>
      <trkpt lat="49.47901" lon="1.02627">
        <ele>107</ele>
        <time>2014-10-30T12:58:56Z</time>
      </trkpt>
      <trkpt lat="49.47907" lon="1.02615">
        <ele>115</ele>
        <time>2014-10-30T12:59:01Z</time>
      </trkpt>
      <trkpt lat="49.47911" lon="1.02602">
        <ele>115</ele>
        <time>2014-10-30T12:59:07Z</time>
      </trkpt>
      <trkpt lat="49.47915" lon="1.02589">
        <ele>115</ele>
        <time>2014-10-30T12:59:12Z</time>
      </trkpt>
      <trkpt lat="49.47922" lon="1.02579">
        <ele>115</ele>
        <time>2014-10-30T12:59:16Z</time>
      </trkpt>
      <trkpt lat="49.47925" lon="1.02565">
        <ele>115</ele>
        <time>2014-10-30T12:59:21Z</time>
      </trkpt>
      <trkpt lat="49.47929" lon="1.02551">
        <ele>115</ele>
        <time>2014-10-30T12:59:27Z</time>
      </trkpt>
      <trkpt lat="49.47934" lon="1.02536">
        <ele>115</ele>
        <time>2014-10-30T12:59:33Z</time>
      </trkpt>
      <trkpt lat="49.4794" lon="1.02525">
        <ele>115</ele>
        <time>2014-10-30T12:59:38Z</time>
      </trkpt>
      <trkpt lat="49.47944" lon="1.0251">
        <ele>115</ele>
        <time>2014-10-30T12:59:44Z</time>
      </trkpt>
      <trkpt lat="49.47949" lon="1.02499">
        <ele>115</ele>
        <time>2014-10-30T12:59:49Z</time>
      </trkpt>
      <trkpt lat="49.47956" lon="1.02488">
        <ele>115</ele>
        <time>2014-10-30T12:59:55Z</time>
      </trkpt>
      <trkpt lat="49.47956" lon="1.0247">
        <ele>115</ele>
        <time>2014-10-30T13:00:00Z</time>
      </trkpt>
      <trkpt lat="49.47958" lon="1.02455">
        <ele>108</ele>
        <time>2014-10-30T13:00:04Z</time>
      </trkpt>
      <trkpt lat="49.47962" lon="1.02439">
        <ele>114</ele>
        <time>2014-10-30T13:00:09Z</time>
      </trkpt>
      <trkpt lat="49.47967" lon="1.02425">
        <ele>114</ele>
        <time>2014-10-30T13:00:14Z</time>
      </trkpt>
      <trkpt lat="49.47972" lon="1.02412">
        <ele>120</ele>
        <time>2014-10-30T13:00:20Z</time>
      </trkpt>
      <trkpt lat="49.47978" lon="1.02397">
        <ele>120</ele>
        <time>2014-10-30T13:00:25Z</time>
      </trkpt>
      <trkpt lat="49.47983" lon="1.02382">
        <ele>120</ele>
        <time>2014-10-30T13:00:30Z</time>
      </trkpt>
      <trkpt lat="49.47988" lon="1.02369">
        <ele>120</ele>
        <time>2014-10-30T13:00:34Z</time>
      </trkpt>
      <trkpt lat="49.47993" lon="1.02357">
        <ele>120</ele>
        <time>2014-10-30T13:00:38Z</time>
      </trkpt>
      <trkpt lat="49.47998" lon="1.02344">
        <ele>120</ele>
        <time>2014-10-30T13:00:42Z</time>
      </trkpt>
      <trkpt lat="49.48002" lon="1.02332">
        <ele>120</ele>
        <time>2014-10-30T13:00:46Z</time>
      </trkpt>
      <trkpt lat="49.48007" lon="1.02318">
        <ele>120</ele>
        <time>2014-10-30T13:00:50Z</time>
      </trkpt>
      <trkpt lat="49.48012" lon="1.02305">
        <ele>120</ele>
        <time>2014-10-30T13:00:54Z</time>
      </trkpt>
      <trkpt lat="49.48017" lon="1.0229">
        <ele>120</ele>
        <time>2014-10-30T13:00:58Z</time>
      </trkpt>
      <trkpt lat="49.48023" lon="1.02276">
        <ele>120</ele>
        <time>2014-10-30T13:01:02Z</time>
      </trkpt>
      <trkpt lat="49.48029" lon="1.02262">
        <ele>120</ele>
        <time>2014-10-30T13:01:06Z</time>
      </trkpt>
      <trkpt lat="49.48035" lon="1.02249">
        <ele>120</ele>
        <time>2014-10-30T13:01:10Z</time>
      </trkpt>
      <trkpt lat="49.48042" lon="1.02236">
        <ele>120</ele>
        <time>2014-10-30T13:01:14Z</time>
      </trkpt>
      <trkpt lat="49.48048" lon="1.02225">
        <ele>120</ele>
        <time>2014-10-30T13:01:18Z</time>
      </trkpt>
      <trkpt lat="49.48054" lon="1.02211">
        <ele>125</ele>
        <time>2014-10-30T13:01:22Z</time>
      </trkpt>
      <trkpt lat="49.48061" lon="1.02198">
        <ele>125</ele>
        <time>2014-10-30T13:01:26Z</time>
      </trkpt>
      <trkpt lat="49.48066" lon="1.02184">
        <ele>125</ele>
        <time>2014-10-30T13:01:30Z</time>
      </trkpt>
      <trkpt lat="49.48067" lon="1.02169">
        <ele>125</ele>
        <time>2014-10-30T13:01:34Z</time>
      </trkpt>
      <trkpt lat="49.48067" lon="1.02155">
        <ele>125</ele>
        <time>2014-10-30T13:01:38Z</time>
      </trkpt>
      <trkpt lat="49.48075" lon="1.02143">
        <ele>125</ele>
        <time>2014-10-30T13:01:42Z</time>
      </trkpt>
      <trkpt lat="49.48084" lon="1.02131">
        <ele>125</ele>
        <time>2014-10-30T13:01:46Z</time>
      </trkpt>
      <trkpt lat="49.48092" lon="1.02121">
        <ele>125</ele>
        <time>2014-10-30T13:01:49Z</time>
      </trkpt>
      <trkpt lat="49.48099" lon="1.0211">
        <ele>125</ele>
        <time>2014-10-30T13:01:52Z</time>
      </trkpt>
      <trkpt lat="49.48106" lon="1.02097">
        <ele>125</ele>
        <time>2014-10-30T13:01:55Z</time>
      </trkpt>
      <trkpt lat="49.48113" lon="1.02085">
        <ele>125</ele>
        <time>2014-10-30T13:01:58Z</time>
      </trkpt>
      <trkpt lat="49.4812" lon="1.0207">
        <ele>125</ele>
        <time>2014-10-30T13:02:01Z</time>
      </trkpt>
      <trkpt lat="49.48126" lon="1.02055">
        <ele>125</ele>
        <time>2014-10-30T13:02:04Z</time>
      </trkpt>
      <trkpt lat="49.48132" lon="1.0204">
        <ele>125</ele>
        <time>2014-10-30T13:02:07Z</time>
      </trkpt>
      <trkpt lat="49.48138" lon="1.02024">
        <ele>125</ele>
        <time>2014-10-30T13:02:10Z</time>
      </trkpt>
      <trkpt lat="49.48144" lon="1.0201">
        <ele>125</ele>
        <time>2014-10-30T13:02:13Z</time>
      </trkpt>
      <trkpt lat="49.48151" lon="1.01996">
        <ele>125</ele>
        <time>2014-10-30T13:02:16Z</time>
      </trkpt>
      <trkpt lat="49.48157" lon="1.01981">
        <ele>125</ele>
        <time>2014-10-30T13:02:19Z</time>
      </trkpt>
      <trkpt lat="49.48164" lon="1.01967">
        <ele>125</ele>
        <time>2014-10-30T13:02:22Z</time>
      </trkpt>
      <trkpt lat="49.4817" lon="1.01952">
        <ele>125</ele>
        <time>2014-10-30T13:02:25Z</time>
      </trkpt>
      <trkpt lat="49.48177" lon="1.01935">
        <ele>125</ele>
        <time>2014-10-30T13:02:28Z</time>
      </trkpt>
      <trkpt lat="49.48184" lon="1.0192">
        <ele>125</ele>
        <time>2014-10-30T13:02:31Z</time>
      </trkpt>
      <trkpt lat="49.4819" lon="1.01905">
        <ele>125</ele>
        <time>2014-10-30T13:02:34Z</time>
      </trkpt>
      <trkpt lat="49.48196" lon="1.01889">
        <ele>125</ele>
        <time>2014-10-30T13:02:37Z</time>
      </trkpt>
      <trkpt lat="49.48203" lon="1.01873">
        <ele>125</ele>
        <time>2014-10-30T13:02:40Z</time>
      </trkpt>
      <trkpt lat="49.48212" lon="1.01859">
        <ele>125</ele>
        <time>2014-10-30T13:02:43Z</time>
      </trkpt>
      <trkpt lat="49.48219" lon="1.01846">
        <ele>125</ele>
        <time>2014-10-30T13:02:46Z</time>
      </trkpt>
      <trkpt lat="49.48225" lon="1.01833">
        <ele>125</ele>
        <time>2014-10-30T13:02:49Z</time>
      </trkpt>
      <trkpt lat="49.48219" lon="1.01821">
        <ele>131</ele>
        <time>2014-10-30T13:02:52Z</time>
      </trkpt>
      <trkpt lat="49.48209" lon="1.01814">
        <ele>131</ele>
        <time>2014-10-30T13:02:55Z</time>
      </trkpt>
      <trkpt lat="49.48199" lon="1.01808">
        <ele>131</ele>
        <time>2014-10-30T13:02:58Z</time>
      </trkpt>
      <trkpt lat="49.48189" lon="1.01801">
        <ele>131</ele>
        <time>2014-10-30T13:03:01Z</time>
      </trkpt>
      <trkpt lat="49.48177" lon="1.01793">
        <ele>131</ele>
        <time>2014-10-30T13:03:04Z</time>
      </trkpt>
      <trkpt lat="49.48165" lon="1.01785">
        <ele>131</ele>
        <time>2014-10-30T13:03:07Z</time>
      </trkpt>
      <trkpt lat="49.48156" lon="1.01778">
        <ele>131</ele>
        <time>2014-10-30T13:03:09Z</time>
      </trkpt>
      <trkpt lat="49.48148" lon="1.01772">
        <ele>131</ele>
        <time>2014-10-30T13:03:11Z</time>
      </trkpt>
      <trkpt lat="49.48136" lon="1.01763">
        <ele>137</ele>
        <time>2014-10-30T13:03:14Z</time>
      </trkpt>
      <trkpt lat="49.48127" lon="1.01757">
        <ele>137</ele>
        <time>2014-10-30T13:03:16Z</time>
      </trkpt>
      <trkpt lat="49.48119" lon="1.0175">
        <ele>137</ele>
        <time>2014-10-30T13:03:18Z</time>
      </trkpt>
      <trkpt lat="49.4811" lon="1.01744">
        <ele>137</ele>
        <time>2014-10-30T13:03:20Z</time>
      </trkpt>
      <trkpt lat="49.481" lon="1.01739">
        <ele>137</ele>
        <time>2014-10-30T13:03:22Z</time>
      </trkpt>
      <trkpt lat="49.48092" lon="1.01732">
        <ele>137</ele>
        <time>2014-10-30T13:03:24Z</time>
      </trkpt>
      <trkpt lat="49.48083" lon="1.01725">
        <ele>137</ele>
        <time>2014-10-30T13:03:26Z</time>
      </trkpt>
      <trkpt lat="49.48075" lon="1.01719">
        <ele>137</ele>
        <time>2014-10-30T13:03:28Z</time>
      </trkpt>
      <trkpt lat="49.48066" lon="1.01713">
        <ele>137</ele>
        <time>2014-10-30T13:03:30Z</time>
      </trkpt>
      <trkpt lat="49.48058" lon="1.01706">
        <ele>137</ele>
        <time>2014-10-30T13:03:32Z</time>
      </trkpt>
      <trkpt lat="49.48049" lon="1.017">
        <ele>137</ele>
        <time>2014-10-30T13:03:34Z</time>
      </trkpt>
      <trkpt lat="49.4804" lon="1.01694">
        <ele>137</ele>
        <time>2014-10-30T13:03:36Z</time>
      </trkpt>
      <trkpt lat="49.48031" lon="1.01688">
        <ele>137</ele>
        <time>2014-10-30T13:03:38Z</time>
      </trkpt>
      <trkpt lat="49.48021" lon="1.01681">
        <ele>137</ele>
        <time>2014-10-30T13:03:40Z</time>
      </trkpt>
      <trkpt lat="49.48013" lon="1.01675">
        <ele>137</ele>
        <time>2014-10-30T13:03:42Z</time>
      </trkpt>
      <trkpt lat="49.48004" lon="1.01669">
        <ele>137</ele>
        <time>2014-10-30T13:03:44Z</time>
      </trkpt>
      <trkpt lat="49.47996" lon="1.01662">
        <ele>137</ele>
        <time>2014-10-30T13:03:46Z</time>
      </trkpt>
      <trkpt lat="49.47987" lon="1.01656">
        <ele>137</ele>
        <time>2014-10-30T13:03:48Z</time>
      </trkpt>
      <trkpt lat="49.47978" lon="1.0165">
        <ele>137</ele>
        <time>2014-10-30T13:03:50Z</time>
      </trkpt>
      <trkpt lat="49.4797" lon="1.01643">
        <ele>137</ele>
        <time>2014-10-30T13:03:52Z</time>
      </trkpt>
      <trkpt lat="49.47961" lon="1.01636">
        <ele>137</ele>
        <time>2014-10-30T13:03:54Z</time>
      </trkpt>
      <trkpt lat="49.47953" lon="1.0163">
        <ele>137</ele>
        <time>2014-10-30T13:03:56Z</time>
      </trkpt>
      <trkpt lat="49.47944" lon="1.01624">
        <ele>137</ele>
        <time>2014-10-30T13:03:58Z</time>
      </trkpt>
      <trkpt lat="49.47936" lon="1.01617">
        <ele>137</ele>
        <time>2014-10-30T13:04:00Z</time>
      </trkpt>
      <trkpt lat="49.47925" lon="1.01609">
        <ele>137</ele>
        <time>2014-10-30T13:04:03Z</time>
      </trkpt>
      <trkpt lat="49.47915" lon="1.01602">
        <ele>137</ele>
        <time>2014-10-30T13:04:06Z</time>
      </trkpt>
      <trkpt lat="49.47906" lon="1.01593">
        <ele>137</ele>
        <time>2014-10-30T13:04:10Z</time>
      </trkpt>
      <trkpt lat="49.47897" lon="1.01583">
        <ele>137</ele>
        <time>2014-10-30T13:04:14Z</time>
      </trkpt>
      <trkpt lat="49.4789" lon="1.01574">
        <ele>137</ele>
        <time>2014-10-30T13:04:18Z</time>
      </trkpt>
      <trkpt lat="49.47882" lon="1.01565">
        <ele>137</ele>
        <time>2014-10-30T13:04:21Z</time>
      </trkpt>
      <trkpt lat="49.47875" lon="1.01557">
        <ele>137</ele>
        <time>2014-10-30T13:04:24Z</time>
      </trkpt>
      <trkpt lat="49.47866" lon="1.01549">
        <ele>137</ele>
        <time>2014-10-30T13:04:27Z</time>
      </trkpt>
      <trkpt lat="49.47858" lon="1.0154">
        <ele>137</ele>
        <time>2014-10-30T13:04:30Z</time>
      </trkpt>
      <trkpt lat="49.47849" lon="1.0153">
        <ele>137</ele>
        <time>2014-10-30T13:04:33Z</time>
      </trkpt>
      <trkpt lat="49.4784" lon="1.01521">
        <ele>137</ele>
        <time>2014-10-30T13:04:36Z</time>
      </trkpt>
      <trkpt lat="49.47831" lon="1.01509">
        <ele>137</ele>
        <time>2014-10-30T13:04:39Z</time>
      </trkpt>
      <trkpt lat="49.47822" lon="1.01494">
        <ele>137</ele>
        <time>2014-10-30T13:04:42Z</time>
      </trkpt>
      <trkpt lat="49.47818" lon="1.01477">
        <ele>137</ele>
        <time>2014-10-30T13:04:45Z</time>
      </trkpt>
      <trkpt lat="49.47816" lon="1.01458">
        <ele>137</ele>
        <time>2014-10-30T13:04:48Z</time>
      </trkpt>
      <trkpt lat="49.47817" lon="1.01439">
        <ele>137</ele>
        <time>2014-10-30T13:04:51Z</time>
      </trkpt>
      <trkpt lat="49.4782" lon="1.0142">
        <ele>137</ele>
        <time>2014-10-30T13:04:54Z</time>
      </trkpt>
      <trkpt lat="49.4782" lon="1.01405">
        <ele>137</ele>
        <time>2014-10-30T13:04:57Z</time>
      </trkpt>
      <trkpt lat="49.47811" lon="1.01397">
        <ele>137</ele>
        <time>2014-10-30T13:05:00Z</time>
      </trkpt>
      <trkpt lat="49.478" lon="1.0139">
        <ele>137</ele>
        <time>2014-10-30T13:05:03Z</time>
      </trkpt>
      <trkpt lat="49.4779" lon="1.01386">
        <ele>137</ele>
        <time>2014-10-30T13:05:06Z</time>
      </trkpt>
      <trkpt lat="49.47777" lon="1.01383">
        <ele>131</ele>
        <time>2014-10-30T13:05:09Z</time>
      </trkpt>
      <trkpt lat="49.47766" lon="1.01386">
        <ele>131</ele>
        <time>2014-10-30T13:05:12Z</time>
      </trkpt>
      <trkpt lat="49.47755" lon="1.0139">
        <ele>131</ele>
        <time>2014-10-30T13:05:15Z</time>
      </trkpt>
      <trkpt lat="49.47743" lon="1.01396">
        <ele>131</ele>
        <time>2014-10-30T13:05:18Z</time>
      </trkpt>
      <trkpt lat="49.47732" lon="1.01404">
        <ele>131</ele>
        <time>2014-10-30T13:05:21Z</time>
      </trkpt>
      <trkpt lat="49.47722" lon="1.01414">
        <ele>131</ele>
        <time>2014-10-30T13:05:24Z</time>
      </trkpt>
      <trkpt lat="49.47714" lon="1.01424">
        <ele>131</ele>
        <time>2014-10-30T13:05:27Z</time>
      </trkpt>
      <trkpt lat="49.47707" lon="1.01437">
        <ele>131</ele>
        <time>2014-10-30T13:05:30Z</time>
      </trkpt>
      <trkpt lat="49.477" lon="1.01452">
        <ele>131</ele>
        <time>2014-10-30T13:05:33Z</time>
      </trkpt>
      <trkpt lat="49.47694" lon="1.01466">
        <ele>131</ele>
        <time>2014-10-30T13:05:36Z</time>
      </trkpt>
      <trkpt lat="49.47687" lon="1.01478">
        <ele>131</ele>
        <time>2014-10-30T13:05:39Z</time>
      </trkpt>
      <trkpt lat="49.47679" lon="1.01491">
        <ele>131</ele>
        <time>2014-10-30T13:05:42Z</time>
      </trkpt>
      <trkpt lat="49.47674" lon="1.01502">
        <ele>131</ele>
        <time>2014-10-30T13:05:45Z</time>
      </trkpt>
      <trkpt lat="49.4767" lon="1.01518">
        <ele>131</ele>
        <time>2014-10-30T13:05:49Z</time>
      </trkpt>
      <trkpt lat="49.47667" lon="1.01531">
        <ele>131</ele>
        <time>2014-10-30T13:05:53Z</time>
      </trkpt>
      <trkpt lat="49.47677" lon="1.01529">
        <ele>131</ele>
        <time>2014-10-30T13:06:09Z</time>
      </trkpt>
      <trkpt lat="49.47681" lon="1.01511">
        <ele>131</ele>
        <time>2014-10-30T13:06:13Z</time>
      </trkpt>
      <trkpt lat="49.47687" lon="1.01498">
        <ele>131</ele>
        <time>2014-10-30T13:06:16Z</time>
      </trkpt>
      <trkpt lat="49.47693" lon="1.01485">
        <ele>131</ele>
        <time>2014-10-30T13:06:19Z</time>
      </trkpt>
      <trkpt lat="49.477" lon="1.01472">
        <ele>131</ele>
        <time>2014-10-30T13:06:22Z</time>
      </trkpt>
      <trkpt lat="49.47707" lon="1.01458">
        <ele>131</ele>
        <time>2014-10-30T13:06:25Z</time>
      </trkpt>
      <trkpt lat="49.47713" lon="1.01442">
        <ele>131</ele>
        <time>2014-10-30T13:06:28Z</time>
      </trkpt>
      <trkpt lat="49.4772" lon="1.01428">
        <ele>131</ele>
        <time>2014-10-30T13:06:31Z</time>
      </trkpt>
      <trkpt lat="49.47729" lon="1.01416">
        <ele>131</ele>
        <time>2014-10-30T13:06:34Z</time>
      </trkpt>
      <trkpt lat="49.47738" lon="1.01405">
        <ele>131</ele>
        <time>2014-10-30T13:06:37Z</time>
      </trkpt>
      <trkpt lat="49.47748" lon="1.01396">
        <ele>131</ele>
        <time>2014-10-30T13:06:40Z</time>
      </trkpt>
      <trkpt lat="49.47758" lon="1.0139">
        <ele>131</ele>
        <time>2014-10-30T13:06:43Z</time>
      </trkpt>
      <trkpt lat="49.47767" lon="1.01386">
        <ele>131</ele>
        <time>2014-10-30T13:06:46Z</time>
      </trkpt>
      <trkpt lat="49.47777" lon="1.01385">
        <ele>131</ele>
        <time>2014-10-30T13:06:49Z</time>
      </trkpt>
      <trkpt lat="49.47786" lon="1.01387">
        <ele>131</ele>
        <time>2014-10-30T13:06:52Z</time>
      </trkpt>
      <trkpt lat="49.47798" lon="1.0139">
        <ele>131</ele>
        <time>2014-10-30T13:06:56Z</time>
      </trkpt>
      <trkpt lat="49.47807" lon="1.01396">
        <ele>131</ele>
        <time>2014-10-30T13:06:59Z</time>
      </trkpt>
      <trkpt lat="49.47817" lon="1.01405">
        <ele>131</ele>
        <time>2014-10-30T13:07:03Z</time>
      </trkpt>
      <trkpt lat="49.47827" lon="1.01405">
        <ele>131</ele>
        <time>2014-10-30T13:07:07Z</time>
      </trkpt>
      <trkpt lat="49.47834" lon="1.01394">
        <ele>131</ele>
        <time>2014-10-30T13:07:10Z</time>
      </trkpt>
      <trkpt lat="49.47843" lon="1.0138">
        <ele>131</ele>
        <time>2014-10-30T13:07:13Z</time>
      </trkpt>
      <trkpt lat="49.47852" lon="1.01368">
        <ele>131</ele>
        <time>2014-10-30T13:07:16Z</time>
      </trkpt>
      <trkpt lat="49.47859" lon="1.01359">
        <ele>131</ele>
        <time>2014-10-30T13:07:18Z</time>
      </trkpt>
      <trkpt lat="49.47869" lon="1.01346">
        <ele>131</ele>
        <time>2014-10-30T13:07:21Z</time>
      </trkpt>
      <trkpt lat="49.47876" lon="1.01336">
        <ele>131</ele>
        <time>2014-10-30T13:07:23Z</time>
      </trkpt>
      <trkpt lat="49.47882" lon="1.01326">
        <ele>131</ele>
        <time>2014-10-30T13:07:25Z</time>
      </trkpt>
      <trkpt lat="49.47889" lon="1.01316">
        <ele>131</ele>
        <time>2014-10-30T13:07:27Z</time>
      </trkpt>
      <trkpt lat="49.47894" lon="1.01305">
        <ele>131</ele>
        <time>2014-10-30T13:07:29Z</time>
      </trkpt>
      <trkpt lat="49.479" lon="1.01293">
        <ele>131</ele>
        <time>2014-10-30T13:07:31Z</time>
      </trkpt>
      <trkpt lat="49.47906" lon="1.01282">
        <ele>131</ele>
        <time>2014-10-30T13:07:33Z</time>
      </trkpt>
      <trkpt lat="49.47911" lon="1.01268">
        <ele>131</ele>
        <time>2014-10-30T13:07:35Z</time>
      </trkpt>
      <trkpt lat="49.47915" lon="1.01255">
        <ele>131</ele>
        <time>2014-10-30T13:07:37Z</time>
      </trkpt>
      <trkpt lat="49.4792" lon="1.01239">
        <ele>131</ele>
        <time>2014-10-30T13:07:39Z</time>
      </trkpt>
      <trkpt lat="49.47923" lon="1.01223">
        <ele>131</ele>
        <time>2014-10-30T13:07:41Z</time>
      </trkpt>
      <trkpt lat="49.47925" lon="1.01206">
        <ele>131</ele>
        <time>2014-10-30T13:07:43Z</time>
      </trkpt>
      <trkpt lat="49.47927" lon="1.01189">
        <ele>131</ele>
        <time>2014-10-30T13:07:45Z</time>
      </trkpt>
      <trkpt lat="49.47926" lon="1.0117">
        <ele>131</ele>
        <time>2014-10-30T13:07:47Z</time>
      </trkpt>
      <trkpt lat="49.47925" lon="1.01153">
        <ele>131</ele>
        <time>2014-10-30T13:07:49Z</time>
      </trkpt>
      <trkpt lat="49.47921" lon="1.01136">
        <ele>131</ele>
        <time>2014-10-30T13:07:51Z</time>
      </trkpt>
      <trkpt lat="49.47917" lon="1.0112">
        <ele>131</ele>
        <time>2014-10-30T13:07:53Z</time>
      </trkpt>
      <trkpt lat="49.4791" lon="1.01105">
        <ele>131</ele>
        <time>2014-10-30T13:07:55Z</time>
      </trkpt>
      <trkpt lat="49.47903" lon="1.01091">
        <ele>131</ele>
        <time>2014-10-30T13:07:57Z</time>
      </trkpt>
      <trkpt lat="49.47897" lon="1.01077">
        <ele>131</ele>
        <time>2014-10-30T13:07:59Z</time>
      </trkpt>
      <trkpt lat="49.4789" lon="1.01063">
        <ele>131</ele>
        <time>2014-10-30T13:08:01Z</time>
      </trkpt>
      <trkpt lat="49.47884" lon="1.01051">
        <ele>131</ele>
        <time>2014-10-30T13:08:03Z</time>
      </trkpt>
      <trkpt lat="49.47878" lon="1.01037">
        <ele>131</ele>
        <time>2014-10-30T13:08:05Z</time>
      </trkpt>
      <trkpt lat="49.47871" lon="1.01025">
        <ele>131</ele>
        <time>2014-10-30T13:08:07Z</time>
      </trkpt>
      <trkpt lat="49.47864" lon="1.01013">
        <ele>131</ele>
        <time>2014-10-30T13:08:09Z</time>
      </trkpt>
      <trkpt lat="49.47856" lon="1.01">
        <ele>131</ele>
        <time>2014-10-30T13:08:11Z</time>
      </trkpt>
      <trkpt lat="49.47847" lon="1.00988">
        <ele>131</ele>
        <time>2014-10-30T13:08:13Z</time>
      </trkpt>
      <trkpt lat="49.47839" lon="1.00974">
        <ele>131</ele>
        <time>2014-10-30T13:08:15Z</time>
      </trkpt>
      <trkpt lat="49.4783" lon="1.0096">
        <ele>131</ele>
        <time>2014-10-30T13:08:17Z</time>
      </trkpt>
      <trkpt lat="49.47822" lon="1.00946">
        <ele>131</ele>
        <time>2014-10-30T13:08:19Z</time>
      </trkpt>
      <trkpt lat="49.47814" lon="1.00933">
        <ele>131</ele>
        <time>2014-10-30T13:08:21Z</time>
      </trkpt>
      <trkpt lat="49.47806" lon="1.00919">
        <ele>131</ele>
        <time>2014-10-30T13:08:23Z</time>
      </trkpt>
      <trkpt lat="49.47798" lon="1.00906">
        <ele>131</ele>
        <time>2014-10-30T13:08:25Z</time>
      </trkpt>
      <trkpt lat="49.4779" lon="1.00893">
        <ele>131</ele>
        <time>2014-10-30T13:08:27Z</time>
      </trkpt>
      <trkpt lat="49.47782" lon="1.0088">
        <ele>131</ele>
        <time>2014-10-30T13:08:29Z</time>
      </trkpt>
      <trkpt lat="49.47774" lon="1.00866">
        <ele>131</ele>
        <time>2014-10-30T13:08:31Z</time>
      </trkpt>
      <trkpt lat="49.47766" lon="1.00854">
        <ele>131</ele>
        <time>2014-10-30T13:08:33Z</time>
      </trkpt>
      <trkpt lat="49.47758" lon="1.0084">
        <ele>131</ele>
        <time>2014-10-30T13:08:35Z</time>
      </trkpt>
      <trkpt lat="49.4775" lon="1.00827">
        <ele>131</ele>
        <time>2014-10-30T13:08:37Z</time>
      </trkpt>
      <trkpt lat="49.47742" lon="1.00813">
        <ele>131</ele>
        <time>2014-10-30T13:08:39Z</time>
      </trkpt>
      <trkpt lat="49.47734" lon="1.008">
        <ele>131</ele>
        <time>2014-10-30T13:08:41Z</time>
      </trkpt>
      <trkpt lat="49.47726" lon="1.00787">
        <ele>131</ele>
        <time>2014-10-30T13:08:43Z</time>
      </trkpt>
      <trkpt lat="49.47719" lon="1.00776">
        <ele>131</ele>
        <time>2014-10-30T13:08:45Z</time>
      </trkpt>
      <trkpt lat="49.47712" lon="1.00763">
        <ele>131</ele>
        <time>2014-10-30T13:08:48Z</time>
      </trkpt>
      <trkpt lat="49.47703" lon="1.00764">
        <ele>131</ele>
        <time>2014-10-30T13:08:55Z</time>
      </trkpt>
      <trkpt lat="49.47701" lon="1.00778">
        <ele>126</ele>
        <time>2014-10-30T13:09:00Z</time>
      </trkpt>
      <trkpt lat="49.47698" lon="1.00794">
        <ele>126</ele>
        <time>2014-10-30T13:09:04Z</time>
      </trkpt>
      <trkpt lat="49.47697" lon="1.00812">
        <ele>126</ele>
        <time>2014-10-30T13:09:08Z</time>
      </trkpt>
      <trkpt lat="49.47697" lon="1.00826">
        <ele>126</ele>
        <time>2014-10-30T13:09:11Z</time>
      </trkpt>
      <trkpt lat="49.47697" lon="1.0084">
        <ele>126</ele>
        <time>2014-10-30T13:09:14Z</time>
      </trkpt>
      <trkpt lat="49.47698" lon="1.00856">
        <ele>131</ele>
        <time>2014-10-30T13:09:17Z</time>
      </trkpt>
      <trkpt lat="49.47697" lon="1.00871">
        <ele>131</ele>
        <time>2014-10-30T13:09:20Z</time>
      </trkpt>
      <trkpt lat="49.47697" lon="1.00886">
        <ele>131</ele>
        <time>2014-10-30T13:09:23Z</time>
      </trkpt>
      <trkpt lat="49.47694" lon="1.00901">
        <ele>131</ele>
        <time>2014-10-30T13:09:26Z</time>
      </trkpt>
      <trkpt lat="49.47693" lon="1.00917">
        <ele>131</ele>
        <time>2014-10-30T13:09:29Z</time>
      </trkpt>
      <trkpt lat="49.47691" lon="1.00935">
        <ele>131</ele>
        <time>2014-10-30T13:09:33Z</time>
      </trkpt>
      <trkpt lat="49.47687" lon="1.00947">
        <ele>131</ele>
        <time>2014-10-30T13:09:36Z</time>
      </trkpt>
      <trkpt lat="49.47682" lon="1.00962">
        <ele>131</ele>
        <time>2014-10-30T13:09:39Z</time>
      </trkpt>
      <trkpt lat="49.47679" lon="1.00977">
        <ele>131</ele>
        <time>2014-10-30T13:09:42Z</time>
      </trkpt>
      <trkpt lat="49.47673" lon="1.00993">
        <ele>139</ele>
        <time>2014-10-30T13:09:46Z</time>
      </trkpt>
      <trkpt lat="49.47667" lon="1.01006">
        <ele>139</ele>
        <time>2014-10-30T13:09:49Z</time>
      </trkpt>
      <trkpt lat="49.47659" lon="1.01018">
        <ele>139</ele>
        <time>2014-10-30T13:09:52Z</time>
      </trkpt>
      <trkpt lat="49.47651" lon="1.01034">
        <ele>144</ele>
        <time>2014-10-30T13:09:55Z</time>
      </trkpt>
      <trkpt lat="49.47643" lon="1.01048">
        <ele>144</ele>
        <time>2014-10-30T13:09:58Z</time>
      </trkpt>
      <trkpt lat="49.47635" lon="1.01063">
        <ele>150</ele>
        <time>2014-10-30T13:10:01Z</time>
      </trkpt>
      <trkpt lat="49.47629" lon="1.01077">
        <ele>150</ele>
        <time>2014-10-30T13:10:04Z</time>
      </trkpt>
      <trkpt lat="49.4762" lon="1.0109">
        <ele>150</ele>
        <time>2014-10-30T13:10:07Z</time>
      </trkpt>
      <trkpt lat="49.47615" lon="1.01101">
        <ele>155</ele>
        <time>2014-10-30T13:10:09Z</time>
      </trkpt>
      <trkpt lat="49.47606" lon="1.01116">
        <ele>155</ele>
        <time>2014-10-30T13:10:12Z</time>
      </trkpt>
      <trkpt lat="49.47601" lon="1.01128">
        <ele>155</ele>
        <time>2014-10-30T13:10:14Z</time>
      </trkpt>
      <trkpt lat="49.47592" lon="1.01142">
        <ele>155</ele>
        <time>2014-10-30T13:10:17Z</time>
      </trkpt>
      <trkpt lat="49.47585" lon="1.01152">
        <ele>155</ele>
        <time>2014-10-30T13:10:19Z</time>
      </trkpt>
      <trkpt lat="49.47577" lon="1.01169">
        <ele>161</ele>
        <time>2014-10-30T13:10:22Z</time>
      </trkpt>
      <trkpt lat="49.47572" lon="1.01181">
        <ele>161</ele>
        <time>2014-10-30T13:10:24Z</time>
      </trkpt>
      <trkpt lat="49.47564" lon="1.01195">
        <ele>161</ele>
        <time>2014-10-30T13:10:27Z</time>
      </trkpt>
      <trkpt lat="49.47558" lon="1.01207">
        <ele>161</ele>
        <time>2014-10-30T13:10:29Z</time>
      </trkpt>
      <trkpt lat="49.47552" lon="1.01219">
        <ele>161</ele>
        <time>2014-10-30T13:10:31Z</time>
      </trkpt>
      <trkpt lat="49.47544" lon="1.0123">
        <ele>161</ele>
        <time>2014-10-30T13:10:33Z</time>
      </trkpt>
      <trkpt lat="49.47537" lon="1.01241">
        <ele>167</ele>
        <time>2014-10-30T13:10:35Z</time>
      </trkpt>
      <trkpt lat="49.4753" lon="1.01253">
        <ele>167</ele>
        <time>2014-10-30T13:10:37Z</time>
      </trkpt>
      <trkpt lat="49.47522" lon="1.01265">
        <ele>167</ele>
        <time>2014-10-30T13:10:39Z</time>
      </trkpt>
      <trkpt lat="49.47515" lon="1.01279">
        <ele>167</ele>
        <time>2014-10-30T13:10:41Z</time>
      </trkpt>
      <trkpt lat="49.47506" lon="1.01292">
        <ele>172</ele>
        <time>2014-10-30T13:10:43Z</time>
      </trkpt>
      <trkpt lat="49.47499" lon="1.01303">
        <ele>172</ele>
        <time>2014-10-30T13:10:45Z</time>
      </trkpt>
      <trkpt lat="49.47492" lon="1.01314">
        <ele>172</ele>
        <time>2014-10-30T13:10:47Z</time>
      </trkpt>
      <trkpt lat="49.47485" lon="1.01326">
        <ele>172</ele>
        <time>2014-10-30T13:10:49Z</time>
      </trkpt>
      <trkpt lat="49.47476" lon="1.01339">
        <ele>172</ele>
        <time>2014-10-30T13:10:52Z</time>
      </trkpt>
      <trkpt lat="49.47469" lon="1.01354">
        <ele>172</ele>
        <time>2014-10-30T13:10:55Z</time>
      </trkpt>
      <trkpt lat="49.47464" lon="1.01368">
        <ele>172</ele>
        <time>2014-10-30T13:10:58Z</time>
      </trkpt>
      <trkpt lat="49.47456" lon="1.0138">
        <ele>172</ele>
        <time>2014-10-30T13:11:01Z</time>
      </trkpt>
      <trkpt lat="49.47449" lon="1.01393">
        <ele>172</ele>
        <time>2014-10-30T13:11:04Z</time>
      </trkpt>
      <trkpt lat="49.47443" lon="1.01405">
        <ele>172</ele>
        <time>2014-10-30T13:11:07Z</time>
      </trkpt>
      <trkpt lat="49.47437" lon="1.01419">
        <ele>172</ele>
        <time>2014-10-30T13:11:10Z</time>
      </trkpt>
      <trkpt lat="49.47431" lon="1.01431">
        <ele>172</ele>
        <time>2014-10-30T13:11:13Z</time>
      </trkpt>
      <trkpt lat="49.47426" lon="1.01444">
        <ele>172</ele>
        <time>2014-10-30T13:11:16Z</time>
      </trkpt>
      <trkpt lat="49.47418" lon="1.01455">
        <ele>172</ele>
        <time>2014-10-30T13:11:19Z</time>
      </trkpt>
      <trkpt lat="49.47411" lon="1.01467">
        <ele>172</ele>
        <time>2014-10-30T13:11:22Z</time>
      </trkpt>
      <trkpt lat="49.47405" lon="1.01482">
        <ele>172</ele>
        <time>2014-10-30T13:11:25Z</time>
      </trkpt>
      <trkpt lat="49.47397" lon="1.01492">
        <ele>172</ele>
        <time>2014-10-30T13:11:28Z</time>
      </trkpt>
      <trkpt lat="49.4739" lon="1.01504">
        <ele>182</ele>
        <time>2014-10-30T13:11:32Z</time>
      </trkpt>
      <trkpt lat="49.47384" lon="1.01514">
        <ele>182</ele>
        <time>2014-10-30T13:11:35Z</time>
      </trkpt>
      <trkpt lat="49.47377" lon="1.01525">
        <ele>188</ele>
        <time>2014-10-30T13:11:38Z</time>
      </trkpt>
      <trkpt lat="49.47371" lon="1.01536">
        <ele>188</ele>
        <time>2014-10-30T13:11:41Z</time>
      </trkpt>
      <trkpt lat="49.47363" lon="1.0155">
        <ele>197</ele>
        <time>2014-10-30T13:11:44Z</time>
      </trkpt>
      <trkpt lat="49.47355" lon="1.01561">
        <ele>197</ele>
        <time>2014-10-30T13:11:47Z</time>
      </trkpt>
      <trkpt lat="49.47348" lon="1.01573">
        <ele>197</ele>
        <time>2014-10-30T13:11:50Z</time>
      </trkpt>
      <trkpt lat="49.47341" lon="1.01585">
        <ele>197</ele>
        <time>2014-10-30T13:11:53Z</time>
      </trkpt>
      <trkpt lat="49.47334" lon="1.01597">
        <ele>206</ele>
        <time>2014-10-30T13:11:56Z</time>
      </trkpt>
      <trkpt lat="49.47327" lon="1.01609">
        <ele>206</ele>
        <time>2014-10-30T13:11:59Z</time>
      </trkpt>
      <trkpt lat="49.47318" lon="1.01622">
        <ele>206</ele>
        <time>2014-10-30T13:12:03Z</time>
      </trkpt>
      <trkpt lat="49.47311" lon="1.01637">
        <ele>206</ele>
        <time>2014-10-30T13:12:06Z</time>
      </trkpt>
      <trkpt lat="49.47303" lon="1.01648">
        <ele>206</ele>
        <time>2014-10-30T13:12:09Z</time>
      </trkpt>
      <trkpt lat="49.47295" lon="1.01659">
        <ele>206</ele>
        <time>2014-10-30T13:12:12Z</time>
      </trkpt>
      <trkpt lat="49.47286" lon="1.01667">
        <ele>198</ele>
        <time>2014-10-30T13:12:15Z</time>
      </trkpt>
      <trkpt lat="49.47275" lon="1.01674">
        <ele>198</ele>
        <time>2014-10-30T13:12:18Z</time>
      </trkpt>
      <trkpt lat="49.47266" lon="1.01684">
        <ele>198</ele>
        <time>2014-10-30T13:12:21Z</time>
      </trkpt>
      <trkpt lat="49.47258" lon="1.01697">
        <ele>198</ele>
        <time>2014-10-30T13:12:25Z</time>
      </trkpt>
      <trkpt lat="49.47251" lon="1.01708">
        <ele>192</ele>
        <time>2014-10-30T13:12:28Z</time>
      </trkpt>
      <trkpt lat="49.47242" lon="1.01721">
        <ele>192</ele>
        <time>2014-10-30T13:12:31Z</time>
      </trkpt>
      <trkpt lat="49.47237" lon="1.01742">
        <ele>181</ele>
        <time>2014-10-30T13:12:34Z</time>
      </trkpt>
      <trkpt lat="49.47228" lon="1.01756">
        <ele>181</ele>
        <time>2014-10-30T13:12:37Z</time>
      </trkpt>
      <trkpt lat="49.47223" lon="1.01771">
        <ele>181</ele>
        <time>2014-10-30T13:12:40Z</time>
      </trkpt>
      <trkpt lat="49.47216" lon="1.01785">
        <ele>189</ele>
        <time>2014-10-30T13:12:43Z</time>
      </trkpt>
      <trkpt lat="49.4721" lon="1.01797">
        <ele>189</ele>
        <time>2014-10-30T13:12:46Z</time>
      </trkpt>
      <trkpt lat="49.47206" lon="1.01815">
        <ele>189</ele>
        <time>2014-10-30T13:12:49Z</time>
      </trkpt>
      <trkpt lat="49.47197" lon="1.01827">
        <ele>183</ele>
        <time>2014-10-30T13:12:53Z</time>
      </trkpt>
      <trkpt lat="49.47187" lon="1.01832">
        <ele>183</ele>
        <time>2014-10-30T13:12:56Z</time>
      </trkpt>
      <trkpt lat="49.47176" lon="1.01838">
        <ele>177</ele>
        <time>2014-10-30T13:13:00Z</time>
      </trkpt>
      <trkpt lat="49.47164" lon="1.01841">
        <ele>177</ele>
        <time>2014-10-30T13:13:03Z</time>
      </trkpt>
      <trkpt lat="49.47152" lon="1.01843">
        <ele>169</ele>
        <time>2014-10-30T13:13:06Z</time>
      </trkpt>
      <trkpt lat="49.4714" lon="1.0185">
        <ele>162</ele>
        <time>2014-10-30T13:13:09Z</time>
      </trkpt>
      <trkpt lat="49.47129" lon="1.01855">
        <ele>162</ele>
        <time>2014-10-30T13:13:12Z</time>
      </trkpt>
      <trkpt lat="49.47123" lon="1.01866">
        <ele>151</ele>
        <time>2014-10-30T13:13:14Z</time>
      </trkpt>
      <trkpt lat="49.47112" lon="1.01874">
        <ele>145</ele>
        <time>2014-10-30T13:13:17Z</time>
      </trkpt>
      <trkpt lat="49.47099" lon="1.0188">
        <ele>145</ele>
        <time>2014-10-30T13:13:20Z</time>
      </trkpt>
      <trkpt lat="49.47089" lon="1.01882">
        <ele>139</ele>
        <time>2014-10-30T13:13:23Z</time>
      </trkpt>
      <trkpt lat="49.47078" lon="1.01884">
        <ele>139</ele>
        <time>2014-10-30T13:13:26Z</time>
      </trkpt>
      <trkpt lat="49.47069" lon="1.01886">
        <ele>139</ele>
        <time>2014-10-30T13:13:28Z</time>
      </trkpt>
      <trkpt lat="49.4706" lon="1.01889">
        <ele>134</ele>
        <time>2014-10-30T13:13:30Z</time>
      </trkpt>
      <trkpt lat="49.4705" lon="1.0189">
        <ele>134</ele>
        <time>2014-10-30T13:13:32Z</time>
      </trkpt>
      <trkpt lat="49.47037" lon="1.0189">
        <ele>134</ele>
        <time>2014-10-30T13:13:35Z</time>
      </trkpt>
      <trkpt lat="49.47024" lon="1.01892">
        <ele>134</ele>
        <time>2014-10-30T13:13:38Z</time>
      </trkpt>
      <trkpt lat="49.47012" lon="1.01895">
        <ele>134</ele>
        <time>2014-10-30T13:13:41Z</time>
      </trkpt>
      <trkpt lat="49.46998" lon="1.01896">
        <ele>134</ele>
        <time>2014-10-30T13:13:44Z</time>
      </trkpt>
      <trkpt lat="49.46989" lon="1.01898">
        <ele>134</ele>
        <time>2014-10-30T13:13:46Z</time>
      </trkpt>
      <trkpt lat="49.46977" lon="1.01899">
        <ele>134</ele>
        <time>2014-10-30T13:13:49Z</time>
      </trkpt>
      <trkpt lat="49.46965" lon="1.019">
        <ele>134</ele>
        <time>2014-10-30T13:13:52Z</time>
      </trkpt>
      <trkpt lat="49.46954" lon="1.019">
        <ele>134</ele>
        <time>2014-10-30T13:13:55Z</time>
      </trkpt>
      <trkpt lat="49.46943" lon="1.01902">
        <ele>134</ele>
        <time>2014-10-30T13:13:58Z</time>
      </trkpt>
      <trkpt lat="49.46931" lon="1.01902">
        <ele>134</ele>
        <time>2014-10-30T13:14:01Z</time>
      </trkpt>
      <trkpt lat="49.46919" lon="1.01904">
        <ele>134</ele>
        <time>2014-10-30T13:14:04Z</time>
      </trkpt>
      <trkpt lat="49.46907" lon="1.01903">
        <ele>134</ele>
        <time>2014-10-30T13:14:07Z</time>
      </trkpt>
      <trkpt lat="49.46898" lon="1.01904">
        <ele>134</ele>
        <time>2014-10-30T13:14:11Z</time>
      </trkpt>
      <trkpt lat="49.46887" lon="1.01903">
        <ele>134</ele>
        <time>2014-10-30T13:14:15Z</time>
      </trkpt>
      <trkpt lat="49.46878" lon="1.01904">
        <ele>134</ele>
        <time>2014-10-30T13:14:17Z</time>
      </trkpt>
      <trkpt lat="49.46866" lon="1.01906">
        <ele>134</ele>
        <time>2014-10-30T13:14:20Z</time>
      </trkpt>
      <trkpt lat="49.46854" lon="1.01906">
        <ele>134</ele>
        <time>2014-10-30T13:14:23Z</time>
      </trkpt>
      <trkpt lat="49.46844" lon="1.01908">
        <ele>134</ele>
        <time>2014-10-30T13:14:25Z</time>
      </trkpt>
      <trkpt lat="49.46833" lon="1.01909">
        <ele>134</ele>
        <time>2014-10-30T13:14:27Z</time>
      </trkpt>
      <trkpt lat="49.46823" lon="1.01911">
        <ele>128</ele>
        <time>2014-10-30T13:14:29Z</time>
      </trkpt>
      <trkpt lat="49.4681" lon="1.01914">
        <ele>128</ele>
        <time>2014-10-30T13:14:32Z</time>
      </trkpt>
      <trkpt lat="49.468" lon="1.01916">
        <ele>128</ele>
        <time>2014-10-30T13:14:34Z</time>
      </trkpt>
      <trkpt lat="49.4679" lon="1.01916">
        <ele>128</ele>
        <time>2014-10-30T13:14:36Z</time>
      </trkpt>
      <trkpt lat="49.46778" lon="1.01917">
        <ele>128</ele>
        <time>2014-10-30T13:14:39Z</time>
      </trkpt>
      <trkpt lat="49.46768" lon="1.01918">
        <ele>128</ele>
        <time>2014-10-30T13:14:41Z</time>
      </trkpt>
      <trkpt lat="49.46757" lon="1.01917">
        <ele>128</ele>
        <time>2014-10-30T13:14:43Z</time>
      </trkpt>
      <trkpt lat="49.46748" lon="1.01918">
        <ele>128</ele>
        <time>2014-10-30T13:14:45Z</time>
      </trkpt>
      <trkpt lat="49.46738" lon="1.01921">
        <ele>128</ele>
        <time>2014-10-30T13:14:47Z</time>
      </trkpt>
      <trkpt lat="49.46729" lon="1.01922">
        <ele>128</ele>
        <time>2014-10-30T13:14:49Z</time>
      </trkpt>
      <trkpt lat="49.46715" lon="1.01922">
        <ele>122</ele>
        <time>2014-10-30T13:14:52Z</time>
      </trkpt>
      <trkpt lat="49.46706" lon="1.01923">
        <ele>122</ele>
        <time>2014-10-30T13:14:54Z</time>
      </trkpt>
      <trkpt lat="49.46693" lon="1.01926">
        <ele>122</ele>
        <time>2014-10-30T13:14:57Z</time>
      </trkpt>
      <trkpt lat="49.46683" lon="1.01928">
        <ele>122</ele>
        <time>2014-10-30T13:14:59Z</time>
      </trkpt>
      <trkpt lat="49.46671" lon="1.01927">
        <ele>116</ele>
        <time>2014-10-30T13:15:02Z</time>
      </trkpt>
      <trkpt lat="49.46659" lon="1.01928">
        <ele>116</ele>
        <time>2014-10-30T13:15:05Z</time>
      </trkpt>
      <trkpt lat="49.46649" lon="1.01926">
        <ele>116</ele>
        <time>2014-10-30T13:15:07Z</time>
      </trkpt>
      <trkpt lat="49.46639" lon="1.01928">
        <ele>116</ele>
        <time>2014-10-30T13:15:09Z</time>
      </trkpt>
      <trkpt lat="49.46627" lon="1.01926">
        <ele>116</ele>
        <time>2014-10-30T13:15:11Z</time>
      </trkpt>
      <trkpt lat="49.46616" lon="1.01926">
        <ele>116</ele>
        <time>2014-10-30T13:15:13Z</time>
      </trkpt>
      <trkpt lat="49.46606" lon="1.01928">
        <ele>116</ele>
        <time>2014-10-30T13:15:15Z</time>
      </trkpt>
      <trkpt lat="49.46596" lon="1.0193">
        <ele>121</ele>
        <time>2014-10-30T13:15:18Z</time>
      </trkpt>
      <trkpt lat="49.46592" lon="1.01918">
        <ele>143</ele>
        <time>2014-10-30T13:15:30Z</time>
      </trkpt>
      <trkpt lat="49.46581" lon="1.01916">
        <ele>143</ele>
        <time>2014-10-30T13:15:36Z</time>
      </trkpt>
      <trkpt lat="49.4657" lon="1.01917">
        <ele>143</ele>
        <time>2014-10-30T13:15:40Z</time>
      </trkpt>
      <trkpt lat="49.46559" lon="1.01917">
        <ele>143</ele>
        <time>2014-10-30T13:15:43Z</time>
      </trkpt>
      <trkpt lat="49.46545" lon="1.01918">
        <ele>143</ele>
        <time>2014-10-30T13:15:46Z</time>
      </trkpt>
      <trkpt lat="49.46535" lon="1.01918">
        <ele>143</ele>
        <time>2014-10-30T13:15:48Z</time>
      </trkpt>
      <trkpt lat="49.46525" lon="1.01918">
        <ele>143</ele>
        <time>2014-10-30T13:15:50Z</time>
      </trkpt>
      <trkpt lat="49.46512" lon="1.0192">
        <ele>143</ele>
        <time>2014-10-30T13:15:53Z</time>
      </trkpt>
      <trkpt lat="49.46501" lon="1.01924">
        <ele>143</ele>
        <time>2014-10-30T13:15:56Z</time>
      </trkpt>
      <trkpt lat="49.46487" lon="1.01927">
        <ele>143</ele>
        <time>2014-10-30T13:15:59Z</time>
      </trkpt>
      <trkpt lat="49.46478" lon="1.01931">
        <ele>143</ele>
        <time>2014-10-30T13:16:01Z</time>
      </trkpt>
      <trkpt lat="49.46467" lon="1.01934">
        <ele>143</ele>
        <time>2014-10-30T13:16:04Z</time>
      </trkpt>
      <trkpt lat="49.46457" lon="1.01935">
        <ele>143</ele>
        <time>2014-10-30T13:16:06Z</time>
      </trkpt>
      <trkpt lat="49.46447" lon="1.01936">
        <ele>143</ele>
        <time>2014-10-30T13:16:08Z</time>
      </trkpt>
      <trkpt lat="49.46435" lon="1.01937">
        <ele>137</ele>
        <time>2014-10-30T13:16:10Z</time>
      </trkpt>
      <trkpt lat="49.46424" lon="1.01937">
        <ele>137</ele>
        <time>2014-10-30T13:16:12Z</time>
      </trkpt>
      <trkpt lat="49.46414" lon="1.01938">
        <ele>137</ele>
        <time>2014-10-30T13:16:14Z</time>
      </trkpt>
      <trkpt lat="49.46404" lon="1.01939">
        <ele>131</ele>
        <time>2014-10-30T13:16:16Z</time>
      </trkpt>
      <trkpt lat="49.46394" lon="1.01941">
        <ele>131</ele>
        <time>2014-10-30T13:16:18Z</time>
      </trkpt>
      <trkpt lat="49.46381" lon="1.01942">
        <ele>131</ele>
        <time>2014-10-30T13:16:21Z</time>
      </trkpt>
      <trkpt lat="49.46371" lon="1.01942">
        <ele>131</ele>
        <time>2014-10-30T13:16:24Z</time>
      </trkpt>
      <trkpt lat="49.46361" lon="1.01945">
        <ele>131</ele>
        <time>2014-10-30T13:16:27Z</time>
      </trkpt>
      <trkpt lat="49.46351" lon="1.01951">
        <ele>131</ele>
        <time>2014-10-30T13:16:31Z</time>
      </trkpt>
      <trkpt lat="49.4634" lon="1.01947">
        <ele>131</ele>
        <time>2014-10-30T13:16:37Z</time>
      </trkpt>
      <trkpt lat="49.4633" lon="1.01941">
        <ele>131</ele>
        <time>2014-10-30T13:16:43Z</time>
      </trkpt>
      <trkpt lat="49.4632" lon="1.01942">
        <ele>131</ele>
        <time>2014-10-30T13:16:47Z</time>
      </trkpt>
      <trkpt lat="49.46309" lon="1.01943">
        <ele>131</ele>
        <time>2014-10-30T13:16:50Z</time>
      </trkpt>
      <trkpt lat="49.46299" lon="1.01946">
        <ele>131</ele>
        <time>2014-10-30T13:16:53Z</time>
      </trkpt>
      <trkpt lat="49.46287" lon="1.01948">
        <ele>131</ele>
        <time>2014-10-30T13:16:56Z</time>
      </trkpt>
      <trkpt lat="49.46274" lon="1.0195">
        <ele>125</ele>
        <time>2014-10-30T13:16:59Z</time>
      </trkpt>
      <trkpt lat="49.46263" lon="1.01953">
        <ele>125</ele>
        <time>2014-10-30T13:17:02Z</time>
      </trkpt>
      <trkpt lat="49.46251" lon="1.01951">
        <ele>125</ele>
        <time>2014-10-30T13:17:06Z</time>
      </trkpt>
      <trkpt lat="49.46241" lon="1.01951">
        <ele>125</ele>
        <time>2014-10-30T13:17:12Z</time>
      </trkpt>
      <trkpt lat="49.46231" lon="1.01951">
        <ele>125</ele>
        <time>2014-10-30T13:17:16Z</time>
      </trkpt>
      <trkpt lat="49.46221" lon="1.01947">
        <ele>125</ele>
        <time>2014-10-30T13:17:19Z</time>
      </trkpt>
      <trkpt lat="49.46211" lon="1.01949">
        <ele>125</ele>
        <time>2014-10-30T13:17:22Z</time>
      </trkpt>
      <trkpt lat="49.46198" lon="1.01952">
        <ele>125</ele>
        <time>2014-10-30T13:17:26Z</time>
      </trkpt>
      <trkpt lat="49.46188" lon="1.01953">
        <ele>125</ele>
        <time>2014-10-30T13:17:29Z</time>
      </trkpt>
      <trkpt lat="49.46179" lon="1.01953">
        <ele>125</ele>
        <time>2014-10-30T13:17:33Z</time>
      </trkpt>
      <trkpt lat="49.4617" lon="1.0196">
        <ele>125</ele>
        <time>2014-10-30T13:17:39Z</time>
      </trkpt>
      <trkpt lat="49.4616" lon="1.01969">
        <ele>125</ele>
        <time>2014-10-30T13:17:44Z</time>
      </trkpt>
      <trkpt lat="49.46153" lon="1.01978">
        <ele>125</ele>
        <time>2014-10-30T13:17:48Z</time>
      </trkpt>
      <trkpt lat="49.46145" lon="1.01986">
        <ele>125</ele>
        <time>2014-10-30T13:17:51Z</time>
      </trkpt>
      <trkpt lat="49.46136" lon="1.01997">
        <ele>133</ele>
        <time>2014-10-30T13:17:55Z</time>
      </trkpt>
      <trkpt lat="49.46129" lon="1.02006">
        <ele>133</ele>
        <time>2014-10-30T13:17:58Z</time>
      </trkpt>
      <trkpt lat="49.46121" lon="1.02015">
        <ele>133</ele>
        <time>2014-10-30T13:18:02Z</time>
      </trkpt>
      <trkpt lat="49.46112" lon="1.02026">
        <ele>139</ele>
        <time>2014-10-30T13:18:06Z</time>
      </trkpt>
      <trkpt lat="49.46102" lon="1.02036">
        <ele>139</ele>
        <time>2014-10-30T13:18:10Z</time>
      </trkpt>
      <trkpt lat="49.46094" lon="1.02047">
        <ele>139</ele>
        <time>2014-10-30T13:18:13Z</time>
      </trkpt>
      <trkpt lat="49.46086" lon="1.02059">
        <ele>139</ele>
        <time>2014-10-30T13:18:16Z</time>
      </trkpt>
      <trkpt lat="49.46078" lon="1.02069">
        <ele>139</ele>
        <time>2014-10-30T13:18:19Z</time>
      </trkpt>
      <trkpt lat="49.4607" lon="1.02082">
        <ele>139</ele>
        <time>2014-10-30T13:18:22Z</time>
      </trkpt>
      <trkpt lat="49.46063" lon="1.02094">
        <ele>139</ele>
        <time>2014-10-30T13:18:25Z</time>
      </trkpt>
      <trkpt lat="49.46053" lon="1.02105">
        <ele>139</ele>
        <time>2014-10-30T13:18:28Z</time>
      </trkpt>
      <trkpt lat="49.46043" lon="1.02115">
        <ele>139</ele>
        <time>2014-10-30T13:18:31Z</time>
      </trkpt>
      <trkpt lat="49.46034" lon="1.02125">
        <ele>139</ele>
        <time>2014-10-30T13:18:34Z</time>
      </trkpt>
      <trkpt lat="49.46026" lon="1.02136">
        <ele>139</ele>
        <time>2014-10-30T13:18:37Z</time>
      </trkpt>
      <trkpt lat="49.46019" lon="1.02147">
        <ele>139</ele>
        <time>2014-10-30T13:18:40Z</time>
      </trkpt>
      <trkpt lat="49.46012" lon="1.02156">
        <ele>139</ele>
        <time>2014-10-30T13:18:43Z</time>
      </trkpt>
      <trkpt lat="49.46005" lon="1.02165">
        <ele>146</ele>
        <time>2014-10-30T13:18:46Z</time>
      </trkpt>
      <trkpt lat="49.45998" lon="1.02174">
        <ele>146</ele>
        <time>2014-10-30T13:18:49Z</time>
      </trkpt>
      <trkpt lat="49.4599" lon="1.02184">
        <ele>146</ele>
        <time>2014-10-30T13:18:52Z</time>
      </trkpt>
      <trkpt lat="49.45982" lon="1.02193">
        <ele>151</ele>
        <time>2014-10-30T13:18:55Z</time>
      </trkpt>
      <trkpt lat="49.45974" lon="1.02204">
        <ele>151</ele>
        <time>2014-10-30T13:18:58Z</time>
      </trkpt>
      <trkpt lat="49.45966" lon="1.02212">
        <ele>151</ele>
        <time>2014-10-30T13:19:01Z</time>
      </trkpt>
      <trkpt lat="49.45959" lon="1.02221">
        <ele>157</ele>
        <time>2014-10-30T13:19:04Z</time>
      </trkpt>
      <trkpt lat="49.45951" lon="1.02232">
        <ele>157</ele>
        <time>2014-10-30T13:19:07Z</time>
      </trkpt>
      <trkpt lat="49.45944" lon="1.02244">
        <ele>163</ele>
        <time>2014-10-30T13:19:10Z</time>
      </trkpt>
      <trkpt lat="49.45935" lon="1.02255">
        <ele>163</ele>
        <time>2014-10-30T13:19:13Z</time>
      </trkpt>
      <trkpt lat="49.45926" lon="1.02266">
        <ele>163</ele>
        <time>2014-10-30T13:19:16Z</time>
      </trkpt>
      <trkpt lat="49.45918" lon="1.02276">
        <ele>163</ele>
        <time>2014-10-30T13:19:19Z</time>
      </trkpt>
      <trkpt lat="49.45909" lon="1.02286">
        <ele>168</ele>
        <time>2014-10-30T13:19:22Z</time>
      </trkpt>
      <trkpt lat="49.45901" lon="1.02296">
        <ele>168</ele>
        <time>2014-10-30T13:19:25Z</time>
      </trkpt>
      <trkpt lat="49.45893" lon="1.02306">
        <ele>168</ele>
        <time>2014-10-30T13:19:28Z</time>
      </trkpt>
      <trkpt lat="49.45884" lon="1.02317">
        <ele>168</ele>
        <time>2014-10-30T13:19:31Z</time>
      </trkpt>
      <trkpt lat="49.45875" lon="1.02328">
        <ele>168</ele>
        <time>2014-10-30T13:19:34Z</time>
      </trkpt>
      <trkpt lat="49.45866" lon="1.02341">
        <ele>168</ele>
        <time>2014-10-30T13:19:37Z</time>
      </trkpt>
      <trkpt lat="49.45856" lon="1.02352">
        <ele>168</ele>
        <time>2014-10-30T13:19:40Z</time>
      </trkpt>
      <trkpt lat="49.45848" lon="1.02362">
        <ele>168</ele>
        <time>2014-10-30T13:19:43Z</time>
      </trkpt>
      <trkpt lat="49.45841" lon="1.02374">
        <ele>168</ele>
        <time>2014-10-30T13:19:46Z</time>
      </trkpt>
      <trkpt lat="49.45834" lon="1.02386">
        <ele>175</ele>
        <time>2014-10-30T13:19:49Z</time>
      </trkpt>
      <trkpt lat="49.45825" lon="1.02398">
        <ele>175</ele>
        <time>2014-10-30T13:19:52Z</time>
      </trkpt>
      <trkpt lat="49.45817" lon="1.02409">
        <ele>175</ele>
        <time>2014-10-30T13:19:55Z</time>
      </trkpt>
      <trkpt lat="49.45807" lon="1.0242">
        <ele>175</ele>
        <time>2014-10-30T13:19:58Z</time>
      </trkpt>
      <trkpt lat="49.45799" lon="1.0243">
        <ele>175</ele>
        <time>2014-10-30T13:20:01Z</time>
      </trkpt>
      <trkpt lat="49.45791" lon="1.02444">
        <ele>175</ele>
        <time>2014-10-30T13:20:04Z</time>
      </trkpt>
      <trkpt lat="49.45782" lon="1.02457">
        <ele>175</ele>
        <time>2014-10-30T13:20:07Z</time>
      </trkpt>
      <trkpt lat="49.45776" lon="1.02466">
        <ele>175</ele>
        <time>2014-10-30T13:20:09Z</time>
      </trkpt>
      <trkpt lat="49.45766" lon="1.0248">
        <ele>175</ele>
        <time>2014-10-30T13:20:12Z</time>
      </trkpt>
      <trkpt lat="49.45757" lon="1.02494">
        <ele>175</ele>
        <time>2014-10-30T13:20:15Z</time>
      </trkpt>
      <trkpt lat="49.45747" lon="1.02508">
        <ele>175</ele>
        <time>2014-10-30T13:20:18Z</time>
      </trkpt>
      <trkpt lat="49.45741" lon="1.02518">
        <ele>175</ele>
        <time>2014-10-30T13:20:20Z</time>
      </trkpt>
      <trkpt lat="49.45734" lon="1.02528">
        <ele>175</ele>
        <time>2014-10-30T13:20:22Z</time>
      </trkpt>
      <trkpt lat="49.45726" lon="1.02538">
        <ele>175</ele>
        <time>2014-10-30T13:20:24Z</time>
      </trkpt>
      <trkpt lat="49.4572" lon="1.02548">
        <ele>175</ele>
        <time>2014-10-30T13:20:26Z</time>
      </trkpt>
      <trkpt lat="49.45714" lon="1.02559">
        <ele>175</ele>
        <time>2014-10-30T13:20:28Z</time>
      </trkpt>
      <trkpt lat="49.45707" lon="1.02569">
        <ele>175</ele>
        <time>2014-10-30T13:20:30Z</time>
      </trkpt>
      <trkpt lat="49.457" lon="1.02579">
        <ele>175</ele>
        <time>2014-10-30T13:20:32Z</time>
      </trkpt>
      <trkpt lat="49.45693" lon="1.02591">
        <ele>175</ele>
        <time>2014-10-30T13:20:34Z</time>
      </trkpt>
      <trkpt lat="49.45683" lon="1.02606">
        <ele>175</ele>
        <time>2014-10-30T13:20:37Z</time>
      </trkpt>
      <trkpt lat="49.45676" lon="1.02615">
        <ele>175</ele>
        <time>2014-10-30T13:20:39Z</time>
      </trkpt>
      <trkpt lat="49.45669" lon="1.02624">
        <ele>175</ele>
        <time>2014-10-30T13:20:41Z</time>
      </trkpt>
      <trkpt lat="49.45662" lon="1.02634">
        <ele>175</ele>
        <time>2014-10-30T13:20:43Z</time>
      </trkpt>
      <trkpt lat="49.45655" lon="1.02644">
        <ele>175</ele>
        <time>2014-10-30T13:20:45Z</time>
      </trkpt>
      <trkpt lat="49.45645" lon="1.02657">
        <ele>175</ele>
        <time>2014-10-30T13:20:48Z</time>
      </trkpt>
      <trkpt lat="49.45637" lon="1.02667">
        <ele>175</ele>
        <time>2014-10-30T13:20:50Z</time>
      </trkpt>
      <trkpt lat="49.45629" lon="1.02676">
        <ele>175</ele>
        <time>2014-10-30T13:20:52Z</time>
      </trkpt>
      <trkpt lat="49.45621" lon="1.02686">
        <ele>175</ele>
        <time>2014-10-30T13:20:54Z</time>
      </trkpt>
      <trkpt lat="49.45613" lon="1.02703">
        <ele>168</ele>
        <time>2014-10-30T13:20:56Z</time>
      </trkpt>
      <trkpt lat="49.45605" lon="1.02716">
        <ele>168</ele>
        <time>2014-10-30T13:20:58Z</time>
      </trkpt>
      <trkpt lat="49.45598" lon="1.02726">
        <ele>168</ele>
        <time>2014-10-30T13:21:00Z</time>
      </trkpt>
      <trkpt lat="49.4559" lon="1.02737">
        <ele>168</ele>
        <time>2014-10-30T13:21:02Z</time>
      </trkpt>
      <trkpt lat="49.45582" lon="1.02748">
        <ele>168</ele>
        <time>2014-10-30T13:21:04Z</time>
      </trkpt>
      <trkpt lat="49.45575" lon="1.02763">
        <ele>161</ele>
        <time>2014-10-30T13:21:06Z</time>
      </trkpt>
      <trkpt lat="49.45568" lon="1.02774">
        <ele>161</ele>
        <time>2014-10-30T13:21:08Z</time>
      </trkpt>
      <trkpt lat="49.4556" lon="1.02788">
        <ele>161</ele>
        <time>2014-10-30T13:21:10Z</time>
      </trkpt>
      <trkpt lat="49.45552" lon="1.02801">
        <ele>161</ele>
        <time>2014-10-30T13:21:12Z</time>
      </trkpt>
      <trkpt lat="49.45543" lon="1.02815">
        <ele>156</ele>
        <time>2014-10-30T13:21:14Z</time>
      </trkpt>
      <trkpt lat="49.45534" lon="1.02826">
        <ele>156</ele>
        <time>2014-10-30T13:21:16Z</time>
      </trkpt>
      <trkpt lat="49.45524" lon="1.02836">
        <ele>156</ele>
        <time>2014-10-30T13:21:18Z</time>
      </trkpt>
      <trkpt lat="49.45517" lon="1.02847">
        <ele>156</ele>
        <time>2014-10-30T13:21:20Z</time>
      </trkpt>
      <trkpt lat="49.45511" lon="1.02858">
        <ele>156</ele>
        <time>2014-10-30T13:21:22Z</time>
      </trkpt>
      <trkpt lat="49.45505" lon="1.02869">
        <ele>156</ele>
        <time>2014-10-30T13:21:24Z</time>
      </trkpt>
      <trkpt lat="49.45498" lon="1.02878">
        <ele>156</ele>
        <time>2014-10-30T13:21:26Z</time>
      </trkpt>
      <trkpt lat="49.4549" lon="1.02889">
        <ele>156</ele>
        <time>2014-10-30T13:21:28Z</time>
      </trkpt>
      <trkpt lat="49.45481" lon="1.029">
        <ele>156</ele>
        <time>2014-10-30T13:21:30Z</time>
      </trkpt>
      <trkpt lat="49.45474" lon="1.02914">
        <ele>156</ele>
        <time>2014-10-30T13:21:32Z</time>
      </trkpt>
      <trkpt lat="49.45464" lon="1.02928">
        <ele>156</ele>
        <time>2014-10-30T13:21:34Z</time>
      </trkpt>
      <trkpt lat="49.45455" lon="1.02942">
        <ele>156</ele>
        <time>2014-10-30T13:21:36Z</time>
      </trkpt>
      <trkpt lat="49.45448" lon="1.02954">
        <ele>156</ele>
        <time>2014-10-30T13:21:38Z</time>
      </trkpt>
      <trkpt lat="49.4544" lon="1.02964">
        <ele>156</ele>
        <time>2014-10-30T13:21:40Z</time>
      </trkpt>
      <trkpt lat="49.45433" lon="1.02974">
        <ele>156</ele>
        <time>2014-10-30T13:21:42Z</time>
      </trkpt>
      <trkpt lat="49.45425" lon="1.02986">
        <ele>156</ele>
        <time>2014-10-30T13:21:44Z</time>
      </trkpt>
      <trkpt lat="49.45417" lon="1.02997">
        <ele>156</ele>
        <time>2014-10-30T13:21:46Z</time>
      </trkpt>
      <trkpt lat="49.45409" lon="1.03011">
        <ele>156</ele>
        <time>2014-10-30T13:21:48Z</time>
      </trkpt>
      <trkpt lat="49.45401" lon="1.03022">
        <ele>156</ele>
        <time>2014-10-30T13:21:50Z</time>
      </trkpt>
      <trkpt lat="49.45394" lon="1.03034">
        <ele>156</ele>
        <time>2014-10-30T13:21:52Z</time>
      </trkpt>
      <trkpt lat="49.45387" lon="1.03045">
        <ele>156</ele>
        <time>2014-10-30T13:21:54Z</time>
      </trkpt>
      <trkpt lat="49.4538" lon="1.03057">
        <ele>148</ele>
        <time>2014-10-30T13:21:56Z</time>
      </trkpt>
      <trkpt lat="49.45373" lon="1.0307">
        <ele>148</ele>
        <time>2014-10-30T13:21:59Z</time>
      </trkpt>
      <trkpt lat="49.45365" lon="1.03082">
        <ele>148</ele>
        <time>2014-10-30T13:22:02Z</time>
      </trkpt>
      <trkpt lat="49.45357" lon="1.03096">
        <ele>148</ele>
        <time>2014-10-30T13:22:05Z</time>
      </trkpt>
      <trkpt lat="49.45351" lon="1.03106">
        <ele>148</ele>
        <time>2014-10-30T13:22:07Z</time>
      </trkpt>
      <trkpt lat="49.45343" lon="1.03119">
        <ele>142</ele>
        <time>2014-10-30T13:22:10Z</time>
      </trkpt>
      <trkpt lat="49.45335" lon="1.03127">
        <ele>142</ele>
        <time>2014-10-30T13:22:13Z</time>
      </trkpt>
      <trkpt lat="49.45325" lon="1.03124">
        <ele>136</ele>
        <time>2014-10-30T13:22:23Z</time>
      </trkpt>
      <trkpt lat="49.45315" lon="1.03119">
        <ele>136</ele>
        <time>2014-10-30T13:22:28Z</time>
      </trkpt>
      <trkpt lat="49.45309" lon="1.03106">
        <ele>136</ele>
        <time>2014-10-30T13:22:32Z</time>
      </trkpt>
      <trkpt lat="49.4531" lon="1.03091">
        <ele>136</ele>
        <time>2014-10-30T13:22:36Z</time>
      </trkpt>
      <trkpt lat="49.45311" lon="1.03073">
        <ele>144</ele>
        <time>2014-10-30T13:23:12Z</time>
      </trkpt>
      <trkpt lat="49.45314" lon="1.03059">
        <ele>144</ele>
        <time>2014-10-30T13:23:15Z</time>
      </trkpt>
      <trkpt lat="49.45313" lon="1.03043">
        <ele>144</ele>
        <time>2014-10-30T13:23:18Z</time>
      </trkpt>
      <trkpt lat="49.45312" lon="1.03027">
        <ele>138</ele>
        <time>2014-10-30T13:23:21Z</time>
      </trkpt>
      <trkpt lat="49.45312" lon="1.03008">
        <ele>138</ele>
        <time>2014-10-30T13:23:24Z</time>
      </trkpt>
      <trkpt lat="49.45314" lon="1.02989">
        <ele>138</ele>
        <time>2014-10-30T13:23:27Z</time>
      </trkpt>
      <trkpt lat="49.45315" lon="1.02975">
        <ele>138</ele>
        <time>2014-10-30T13:23:29Z</time>
      </trkpt>
      <trkpt lat="49.45311" lon="1.02947">
        <ele>133</ele>
        <time>2014-10-30T13:23:34Z</time>
      </trkpt>
      <trkpt lat="49.45312" lon="1.02925">
        <ele>133</ele>
        <time>2014-10-30T13:23:37Z</time>
      </trkpt>
      <trkpt lat="49.45312" lon="1.0291">
        <ele>133</ele>
        <time>2014-10-30T13:23:39Z</time>
      </trkpt>
      <trkpt lat="49.45312" lon="1.02894">
        <ele>133</ele>
        <time>2014-10-30T13:23:41Z</time>
      </trkpt>
      <trkpt lat="49.45313" lon="1.02879">
        <ele>126</ele>
        <time>2014-10-30T13:23:43Z</time>
      </trkpt>
      <trkpt lat="49.45312" lon="1.02862">
        <ele>126</ele>
        <time>2014-10-30T13:23:46Z</time>
      </trkpt>
      <trkpt lat="49.45314" lon="1.02845">
        <ele>126</ele>
        <time>2014-10-30T13:23:49Z</time>
      </trkpt>
      <trkpt lat="49.45314" lon="1.02825">
        <ele>126</ele>
        <time>2014-10-30T13:23:52Z</time>
      </trkpt>
      <trkpt lat="49.45311" lon="1.02807">
        <ele>126</ele>
        <time>2014-10-30T13:23:55Z</time>
      </trkpt>
      <trkpt lat="49.4531" lon="1.02788">
        <ele>126</ele>
        <time>2014-10-30T13:23:58Z</time>
      </trkpt>
      <trkpt lat="49.45311" lon="1.02769">
        <ele>126</ele>
        <time>2014-10-30T13:24:01Z</time>
      </trkpt>
      <trkpt lat="49.45314" lon="1.02751">
        <ele>126</ele>
        <time>2014-10-30T13:24:04Z</time>
      </trkpt>
      <trkpt lat="49.45315" lon="1.02735">
        <ele>126</ele>
        <time>2014-10-30T13:24:06Z</time>
      </trkpt>
      <trkpt lat="49.45315" lon="1.02721">
        <ele>126</ele>
        <time>2014-10-30T13:24:08Z</time>
      </trkpt>
      <trkpt lat="49.45316" lon="1.02705">
        <ele>126</ele>
        <time>2014-10-30T13:24:10Z</time>
      </trkpt>
      <trkpt lat="49.45317" lon="1.02686">
        <ele>126</ele>
        <time>2014-10-30T13:24:13Z</time>
      </trkpt>
      <trkpt lat="49.45317" lon="1.02666">
        <ele>126</ele>
        <time>2014-10-30T13:24:16Z</time>
      </trkpt>
      <trkpt lat="49.45317" lon="1.02651">
        <ele>126</ele>
        <time>2014-10-30T13:24:18Z</time>
      </trkpt>
      <trkpt lat="49.45315" lon="1.02637">
        <ele>126</ele>
        <time>2014-10-30T13:24:20Z</time>
      </trkpt>
      <trkpt lat="49.45314" lon="1.02623">
        <ele>126</ele>
        <time>2014-10-30T13:24:22Z</time>
      </trkpt>
      <trkpt lat="49.45314" lon="1.02607">
        <ele>126</ele>
        <time>2014-10-30T13:24:24Z</time>
      </trkpt>
      <trkpt lat="49.45312" lon="1.02589">
        <ele>126</ele>
        <time>2014-10-30T13:24:27Z</time>
      </trkpt>
      <trkpt lat="49.45314" lon="1.02575">
        <ele>126</ele>
        <time>2014-10-30T13:24:29Z</time>
      </trkpt>
      <trkpt lat="49.45317" lon="1.0256">
        <ele>131</ele>
        <time>2014-10-30T13:24:32Z</time>
      </trkpt>
      <trkpt lat="49.45323" lon="1.02545">
        <ele>131</ele>
        <time>2014-10-30T13:24:35Z</time>
      </trkpt>
      <trkpt lat="49.45328" lon="1.02527">
        <ele>131</ele>
        <time>2014-10-30T13:24:38Z</time>
      </trkpt>
      <trkpt lat="49.45329" lon="1.02508">
        <ele>131</ele>
        <time>2014-10-30T13:24:41Z</time>
      </trkpt>
      <trkpt lat="49.4533" lon="1.02493">
        <ele>131</ele>
        <time>2014-10-30T13:24:43Z</time>
      </trkpt>
      <trkpt lat="49.45331" lon="1.02475">
        <ele>131</ele>
        <time>2014-10-30T13:24:45Z</time>
      </trkpt>
      <trkpt lat="49.45331" lon="1.02458">
        <ele>131</ele>
        <time>2014-10-30T13:24:47Z</time>
      </trkpt>
      <trkpt lat="49.45329" lon="1.02439">
        <ele>131</ele>
        <time>2014-10-30T13:24:50Z</time>
      </trkpt>
      <trkpt lat="49.45329" lon="1.02421">
        <ele>131</ele>
        <time>2014-10-30T13:24:53Z</time>
      </trkpt>
      <trkpt lat="49.45325" lon="1.02404">
        <ele>131</ele>
        <time>2014-10-30T13:24:55Z</time>
      </trkpt>
      <trkpt lat="49.45324" lon="1.02389">
        <ele>131</ele>
        <time>2014-10-30T13:24:57Z</time>
      </trkpt>
      <trkpt lat="49.45324" lon="1.02375">
        <ele>131</ele>
        <time>2014-10-30T13:24:59Z</time>
      </trkpt>
      <trkpt lat="49.45324" lon="1.02354">
        <ele>131</ele>
        <time>2014-10-30T13:25:02Z</time>
      </trkpt>
      <trkpt lat="49.45321" lon="1.02341">
        <ele>131</ele>
        <time>2014-10-30T13:25:04Z</time>
      </trkpt>
      <trkpt lat="49.4532" lon="1.0232">
        <ele>131</ele>
        <time>2014-10-30T13:25:07Z</time>
      </trkpt>
      <trkpt lat="49.45319" lon="1.02305">
        <ele>131</ele>
        <time>2014-10-30T13:25:09Z</time>
      </trkpt>
      <trkpt lat="49.45318" lon="1.0229">
        <ele>131</ele>
        <time>2014-10-30T13:25:11Z</time>
      </trkpt>
      <trkpt lat="49.45313" lon="1.02275">
        <ele>131</ele>
        <time>2014-10-30T13:25:14Z</time>
      </trkpt>
      <trkpt lat="49.45312" lon="1.02261">
        <ele>131</ele>
        <time>2014-10-30T13:25:16Z</time>
      </trkpt>
      <trkpt lat="49.45312" lon="1.02245">
        <ele>131</ele>
        <time>2014-10-30T13:25:18Z</time>
      </trkpt>
      <trkpt lat="49.45313" lon="1.0223">
        <ele>131</ele>
        <time>2014-10-30T13:25:20Z</time>
      </trkpt>
      <trkpt lat="49.45311" lon="1.02209">
        <ele>125</ele>
        <time>2014-10-30T13:25:22Z</time>
      </trkpt>
      <trkpt lat="49.45311" lon="1.02191">
        <ele>125</ele>
        <time>2014-10-30T13:25:24Z</time>
      </trkpt>
      <trkpt lat="49.45308" lon="1.02175">
        <ele>125</ele>
        <time>2014-10-30T13:25:26Z</time>
      </trkpt>
      <trkpt lat="49.45308" lon="1.02156">
        <ele>125</ele>
        <time>2014-10-30T13:25:28Z</time>
      </trkpt>
      <trkpt lat="49.45308" lon="1.0214">
        <ele>125</ele>
        <time>2014-10-30T13:25:30Z</time>
      </trkpt>
      <trkpt lat="49.45308" lon="1.02126">
        <ele>125</ele>
        <time>2014-10-30T13:25:32Z</time>
      </trkpt>
      <trkpt lat="49.45307" lon="1.0211">
        <ele>125</ele>
        <time>2014-10-30T13:25:34Z</time>
      </trkpt>
      <trkpt lat="49.45305" lon="1.02094">
        <ele>125</ele>
        <time>2014-10-30T13:25:36Z</time>
      </trkpt>
      <trkpt lat="49.45303" lon="1.0208">
        <ele>125</ele>
        <time>2014-10-30T13:25:38Z</time>
      </trkpt>
      <trkpt lat="49.453" lon="1.0206">
        <ele>125</ele>
        <time>2014-10-30T13:25:41Z</time>
      </trkpt>
      <trkpt lat="49.45295" lon="1.02042">
        <ele>125</ele>
        <time>2014-10-30T13:25:44Z</time>
      </trkpt>
      <trkpt lat="49.45295" lon="1.02025">
        <ele>125</ele>
        <time>2014-10-30T13:25:47Z</time>
      </trkpt>
      <trkpt lat="49.45295" lon="1.02008">
        <ele>125</ele>
        <time>2014-10-30T13:25:50Z</time>
      </trkpt>
      <trkpt lat="49.45295" lon="1.0199">
        <ele>130</ele>
        <time>2014-10-30T13:25:53Z</time>
      </trkpt>
      <trkpt lat="49.45292" lon="1.01977">
        <ele>130</ele>
        <time>2014-10-30T13:25:55Z</time>
      </trkpt>
      <trkpt lat="49.45287" lon="1.01961">
        <ele>130</ele>
        <time>2014-10-30T13:25:57Z</time>
      </trkpt>
      <trkpt lat="49.45282" lon="1.01943">
        <ele>130</ele>
        <time>2014-10-30T13:26:00Z</time>
      </trkpt>
      <trkpt lat="49.45278" lon="1.01926">
        <ele>130</ele>
        <time>2014-10-30T13:26:03Z</time>
      </trkpt>
      <trkpt lat="49.45271" lon="1.01913">
        <ele>130</ele>
        <time>2014-10-30T13:26:06Z</time>
      </trkpt>
      <trkpt lat="49.45267" lon="1.01899">
        <ele>130</ele>
        <time>2014-10-30T13:26:08Z</time>
      </trkpt>
      <trkpt lat="49.45259" lon="1.01884">
        <ele>130</ele>
        <time>2014-10-30T13:26:11Z</time>
      </trkpt>
      <trkpt lat="49.45253" lon="1.01873">
        <ele>122</ele>
        <time>2014-10-30T13:26:13Z</time>
      </trkpt>
      <trkpt lat="49.45245" lon="1.0186">
        <ele>122</ele>
        <time>2014-10-30T13:26:16Z</time>
      </trkpt>
      <trkpt lat="49.45237" lon="1.01851">
        <ele>122</ele>
        <time>2014-10-30T13:26:18Z</time>
      </trkpt>
      <trkpt lat="49.45229" lon="1.01838">
        <ele>117</ele>
        <time>2014-10-30T13:26:20Z</time>
      </trkpt>
      <trkpt lat="49.4522" lon="1.0182">
        <ele>117</ele>
        <time>2014-10-30T13:26:22Z</time>
      </trkpt>
      <trkpt lat="49.45215" lon="1.01808">
        <ele>117</ele>
        <time>2014-10-30T13:26:24Z</time>
      </trkpt>
      <trkpt lat="49.45212" lon="1.0179">
        <ele>117</ele>
        <time>2014-10-30T13:26:27Z</time>
      </trkpt>
      <trkpt lat="49.45209" lon="1.01772">
        <ele>123</ele>
        <time>2014-10-30T13:26:30Z</time>
      </trkpt>
      <trkpt lat="49.45206" lon="1.01752">
        <ele>129</ele>
        <time>2014-10-30T13:26:33Z</time>
      </trkpt>
      <trkpt lat="49.45204" lon="1.01732">
        <ele>129</ele>
        <time>2014-10-30T13:26:36Z</time>
      </trkpt>
      <trkpt lat="49.45201" lon="1.01711">
        <ele>129</ele>
        <time>2014-10-30T13:26:39Z</time>
      </trkpt>
      <trkpt lat="49.45202" lon="1.01697">
        <ele>129</ele>
        <time>2014-10-30T13:26:41Z</time>
      </trkpt>
      <trkpt lat="49.45199" lon="1.0168">
        <ele>129</ele>
        <time>2014-10-30T13:26:44Z</time>
      </trkpt>
      <trkpt lat="49.45201" lon="1.01666">
        <ele>123</ele>
        <time>2014-10-30T13:26:47Z</time>
      </trkpt>
      <trkpt lat="49.45192" lon="1.01662">
        <ele>113</ele>
        <time>2014-10-30T13:26:56Z</time>
      </trkpt>
      <trkpt lat="49.45183" lon="1.01667">
        <ele>113</ele>
        <time>2014-10-30T13:27:00Z</time>
      </trkpt>
      <trkpt lat="49.45173" lon="1.01671">
        <ele>113</ele>
        <time>2014-10-30T13:27:05Z</time>
      </trkpt>
      <trkpt lat="49.45182" lon="1.01669">
        <ele>126</ele>
        <time>2014-10-30T13:27:19Z</time>
      </trkpt>
      <trkpt lat="49.45192" lon="1.01667">
        <ele>126</ele>
        <time>2014-10-30T13:27:24Z</time>
      </trkpt>
      <trkpt lat="49.45189" lon="1.01653">
        <ele>119</ele>
        <time>2014-10-30T13:27:30Z</time>
      </trkpt>
      <trkpt lat="49.45178" lon="1.01646">
        <ele>119</ele>
        <time>2014-10-30T13:27:34Z</time>
      </trkpt>
      <trkpt lat="49.45168" lon="1.01642">
        <ele>113</ele>
        <time>2014-10-30T13:27:38Z</time>
      </trkpt>
      <trkpt lat="49.45157" lon="1.01635">
        <ele>113</ele>
        <time>2014-10-30T13:27:41Z</time>
      </trkpt>
      <trkpt lat="49.45146" lon="1.01631">
        <ele>113</ele>
        <time>2014-10-30T13:27:44Z</time>
      </trkpt>
      <trkpt lat="49.45133" lon="1.01626">
        <ele>113</ele>
        <time>2014-10-30T13:27:47Z</time>
      </trkpt>
      <trkpt lat="49.45122" lon="1.01623">
        <ele>113</ele>
        <time>2014-10-30T13:27:51Z</time>
      </trkpt>
      <trkpt lat="49.45112" lon="1.0162">
        <ele>108</ele>
        <time>2014-10-30T13:27:53Z</time>
      </trkpt>
      <trkpt lat="49.45102" lon="1.01616">
        <ele>108</ele>
        <time>2014-10-30T13:27:56Z</time>
      </trkpt>
      <trkpt lat="49.45097" lon="1.016">
        <ele>108</ele>
        <time>2014-10-30T13:28:00Z</time>
      </trkpt>
      <trkpt lat="49.45096" lon="1.01582">
        <ele>116</ele>
        <time>2014-10-30T13:28:03Z</time>
      </trkpt>
      <trkpt lat="49.45096" lon="1.01563">
        <ele>116</ele>
        <time>2014-10-30T13:28:06Z</time>
      </trkpt>
      <trkpt lat="49.45097" lon="1.01544">
        <ele>116</ele>
        <time>2014-10-30T13:28:09Z</time>
      </trkpt>
      <trkpt lat="49.45096" lon="1.01527">
        <ele>116</ele>
        <time>2014-10-30T13:28:12Z</time>
      </trkpt>
      <trkpt lat="49.45098" lon="1.01511">
        <ele>116</ele>
        <time>2014-10-30T13:28:15Z</time>
      </trkpt>
      <trkpt lat="49.451" lon="1.01496">
        <ele>116</ele>
        <time>2014-10-30T13:28:18Z</time>
      </trkpt>
      <trkpt lat="49.45099" lon="1.01482">
        <ele>116</ele>
        <time>2014-10-30T13:28:22Z</time>
      </trkpt>
      <trkpt lat="49.45099" lon="1.01467">
        <ele>123</ele>
        <time>2014-10-30T13:28:28Z</time>
      </trkpt>
      <trkpt lat="49.45098" lon="1.01453">
        <ele>123</ele>
        <time>2014-10-30T13:28:33Z</time>
      </trkpt>
      <trkpt lat="49.45089" lon="1.01448">
        <ele>117</ele>
        <time>2014-10-30T13:28:55Z</time>
      </trkpt>
      <trkpt lat="49.45076" lon="1.01449">
        <ele>117</ele>
        <time>2014-10-30T13:29:01Z</time>
      </trkpt>
      <trkpt lat="49.45065" lon="1.01443">
        <ele>117</ele>
        <time>2014-10-30T13:29:04Z</time>
      </trkpt>
      <trkpt lat="49.45055" lon="1.01441">
        <ele>117</ele>
        <time>2014-10-30T13:29:07Z</time>
      </trkpt>
      <trkpt lat="49.45045" lon="1.01435">
        <ele>117</ele>
        <time>2014-10-30T13:29:10Z</time>
      </trkpt>
      <trkpt lat="49.45034" lon="1.01432">
        <ele>117</ele>
        <time>2014-10-30T13:29:13Z</time>
      </trkpt>
      <trkpt lat="49.45025" lon="1.01429">
        <ele>122</ele>
        <time>2014-10-30T13:29:16Z</time>
      </trkpt>
      <trkpt lat="49.45015" lon="1.01427">
        <ele>122</ele>
        <time>2014-10-30T13:29:19Z</time>
      </trkpt>
      <trkpt lat="49.45006" lon="1.01424">
        <ele>122</ele>
        <time>2014-10-30T13:29:21Z</time>
      </trkpt>
      <trkpt lat="49.44995" lon="1.01421">
        <ele>122</ele>
        <time>2014-10-30T13:29:24Z</time>
      </trkpt>
      <trkpt lat="49.44985" lon="1.01418">
        <ele>122</ele>
        <time>2014-10-30T13:29:27Z</time>
      </trkpt>
      <trkpt lat="49.44972" lon="1.01414">
        <ele>122</ele>
        <time>2014-10-30T13:29:30Z</time>
      </trkpt>
      <trkpt lat="49.44962" lon="1.01411">
        <ele>122</ele>
        <time>2014-10-30T13:29:33Z</time>
      </trkpt>
      <trkpt lat="49.44953" lon="1.01407">
        <ele>122</ele>
        <time>2014-10-30T13:29:36Z</time>
      </trkpt>
      <trkpt lat="49.44944" lon="1.01405">
        <ele>122</ele>
        <time>2014-10-30T13:29:39Z</time>
      </trkpt>
      <trkpt lat="49.44932" lon="1.01401">
        <ele>122</ele>
        <time>2014-10-30T13:29:42Z</time>
      </trkpt>
      <trkpt lat="49.44922" lon="1.01397">
        <ele>122</ele>
        <time>2014-10-30T13:29:45Z</time>
      </trkpt>
      <trkpt lat="49.44911" lon="1.01393">
        <ele>122</ele>
        <time>2014-10-30T13:29:48Z</time>
      </trkpt>
      <trkpt lat="49.449" lon="1.01389">
        <ele>122</ele>
        <time>2014-10-30T13:29:51Z</time>
      </trkpt>
      <trkpt lat="49.4489" lon="1.01388">
        <ele>122</ele>
        <time>2014-10-30T13:29:53Z</time>
      </trkpt>
      <trkpt lat="49.44878" lon="1.01384">
        <ele>122</ele>
        <time>2014-10-30T13:29:56Z</time>
      </trkpt>
      <trkpt lat="49.44867" lon="1.01379">
        <ele>122</ele>
        <time>2014-10-30T13:29:59Z</time>
      </trkpt>
      <trkpt lat="49.44858" lon="1.01376">
        <ele>122</ele>
        <time>2014-10-30T13:30:01Z</time>
      </trkpt>
      <trkpt lat="49.44847" lon="1.01374">
        <ele>122</ele>
        <time>2014-10-30T13:30:03Z</time>
      </trkpt>
      <trkpt lat="49.44837" lon="1.0137">
        <ele>122</ele>
        <time>2014-10-30T13:30:05Z</time>
      </trkpt>
      <trkpt lat="49.44826" lon="1.01365">
        <ele>122</ele>
        <time>2014-10-30T13:30:08Z</time>
      </trkpt>
      <trkpt lat="49.44813" lon="1.0136">
        <ele>122</ele>
        <time>2014-10-30T13:30:11Z</time>
      </trkpt>
      <trkpt lat="49.44802" lon="1.01357">
        <ele>122</ele>
        <time>2014-10-30T13:30:14Z</time>
      </trkpt>
      <trkpt lat="49.44792" lon="1.01358">
        <ele>116</ele>
        <time>2014-10-30T13:30:16Z</time>
      </trkpt>
      <trkpt lat="49.44784" lon="1.01354">
        <ele>116</ele>
        <time>2014-10-30T13:30:19Z</time>
      </trkpt>
      <trkpt lat="49.44771" lon="1.01348">
        <ele>116</ele>
        <time>2014-10-30T13:30:23Z</time>
      </trkpt>
      <trkpt lat="49.44759" lon="1.01343">
        <ele>116</ele>
        <time>2014-10-30T13:30:26Z</time>
      </trkpt>
      <trkpt lat="49.44744" lon="1.0134">
        <ele>116</ele>
        <time>2014-10-30T13:30:29Z</time>
      </trkpt>
      <trkpt lat="49.44734" lon="1.01336">
        <ele>110</ele>
        <time>2014-10-30T13:30:31Z</time>
      </trkpt>
      <trkpt lat="49.44725" lon="1.01333">
        <ele>110</ele>
        <time>2014-10-30T13:30:33Z</time>
      </trkpt>
      <trkpt lat="49.44714" lon="1.0133">
        <ele>110</ele>
        <time>2014-10-30T13:30:35Z</time>
      </trkpt>
      <trkpt lat="49.44705" lon="1.01327">
        <ele>110</ele>
        <time>2014-10-30T13:30:37Z</time>
      </trkpt>
      <trkpt lat="49.44695" lon="1.01325">
        <ele>110</ele>
        <time>2014-10-30T13:30:39Z</time>
      </trkpt>
      <trkpt lat="49.44685" lon="1.01321">
        <ele>110</ele>
        <time>2014-10-30T13:30:41Z</time>
      </trkpt>
      <trkpt lat="49.44672" lon="1.01319">
        <ele>110</ele>
        <time>2014-10-30T13:30:43Z</time>
      </trkpt>
      <trkpt lat="49.44662" lon="1.01317">
        <ele>110</ele>
        <time>2014-10-30T13:30:45Z</time>
      </trkpt>
      <trkpt lat="49.44652" lon="1.01315">
        <ele>110</ele>
        <time>2014-10-30T13:30:47Z</time>
      </trkpt>
      <trkpt lat="49.44641" lon="1.01312">
        <ele>104</ele>
        <time>2014-10-30T13:30:49Z</time>
      </trkpt>
      <trkpt lat="49.44632" lon="1.01309">
        <ele>104</ele>
        <time>2014-10-30T13:30:51Z</time>
      </trkpt>
      <trkpt lat="49.44621" lon="1.01308">
        <ele>104</ele>
        <time>2014-10-30T13:30:53Z</time>
      </trkpt>
      <trkpt lat="49.44612" lon="1.01305">
        <ele>104</ele>
        <time>2014-10-30T13:30:55Z</time>
      </trkpt>
      <trkpt lat="49.44602" lon="1.01301">
        <ele>104</ele>
        <time>2014-10-30T13:30:57Z</time>
      </trkpt>
      <trkpt lat="49.44593" lon="1.01298">
        <ele>99</ele>
        <time>2014-10-30T13:30:59Z</time>
      </trkpt>
      <trkpt lat="49.44582" lon="1.01294">
        <ele>99</ele>
        <time>2014-10-30T13:31:02Z</time>
      </trkpt>
      <trkpt lat="49.44573" lon="1.0129">
        <ele>99</ele>
        <time>2014-10-30T13:31:05Z</time>
      </trkpt>
      <trkpt lat="49.44559" lon="1.01287">
        <ele>99</ele>
        <time>2014-10-30T13:31:08Z</time>
      </trkpt>
      <trkpt lat="49.44546" lon="1.01284">
        <ele>99</ele>
        <time>2014-10-30T13:31:11Z</time>
      </trkpt>
      <trkpt lat="49.44536" lon="1.01281">
        <ele>99</ele>
        <time>2014-10-30T13:31:15Z</time>
      </trkpt>
      <trkpt lat="49.44529" lon="1.01269">
        <ele>99</ele>
        <time>2014-10-30T13:31:20Z</time>
      </trkpt>
      <trkpt lat="49.44532" lon="1.01253">
        <ele>99</ele>
        <time>2014-10-30T13:31:25Z</time>
      </trkpt>
      <trkpt lat="49.44532" lon="1.01234">
        <ele>99</ele>
        <time>2014-10-30T13:31:29Z</time>
      </trkpt>
      <trkpt lat="49.44531" lon="1.01214">
        <ele>99</ele>
        <time>2014-10-30T13:31:32Z</time>
      </trkpt>
      <trkpt lat="49.44531" lon="1.01196">
        <ele>99</ele>
        <time>2014-10-30T13:31:34Z</time>
      </trkpt>
      <trkpt lat="49.44531" lon="1.01182">
        <ele>104</ele>
        <time>2014-10-30T13:31:36Z</time>
      </trkpt>
      <trkpt lat="49.44535" lon="1.01168">
        <ele>104</ele>
        <time>2014-10-30T13:31:38Z</time>
      </trkpt>
      <trkpt lat="49.44532" lon="1.0115">
        <ele>104</ele>
        <time>2014-10-30T13:31:42Z</time>
      </trkpt>
      <trkpt lat="49.44534" lon="1.01133">
        <ele>112</ele>
        <time>2014-10-30T13:31:45Z</time>
      </trkpt>
      <trkpt lat="49.44533" lon="1.01114">
        <ele>112</ele>
        <time>2014-10-30T13:31:48Z</time>
      </trkpt>
      <trkpt lat="49.44531" lon="1.01098">
        <ele>112</ele>
        <time>2014-10-30T13:31:51Z</time>
      </trkpt>
      <trkpt lat="49.44528" lon="1.01084">
        <ele>112</ele>
        <time>2014-10-30T13:31:54Z</time>
      </trkpt>
      <trkpt lat="49.44529" lon="1.01069">
        <ele>112</ele>
        <time>2014-10-30T13:31:57Z</time>
      </trkpt>
      <trkpt lat="49.44529" lon="1.01052">
        <ele>112</ele>
        <time>2014-10-30T13:32:01Z</time>
      </trkpt>
      <trkpt lat="49.44528" lon="1.01036">
        <ele>120</ele>
        <time>2014-10-30T13:32:04Z</time>
      </trkpt>
      <trkpt lat="49.44529" lon="1.01017">
        <ele>120</ele>
        <time>2014-10-30T13:32:07Z</time>
      </trkpt>
      <trkpt lat="49.44529" lon="1.00998">
        <ele>120</ele>
        <time>2014-10-30T13:32:10Z</time>
      </trkpt>
      <trkpt lat="49.44528" lon="1.00981">
        <ele>114</ele>
        <time>2014-10-30T13:32:13Z</time>
      </trkpt>
      <trkpt lat="49.44525" lon="1.00964">
        <ele>114</ele>
        <time>2014-10-30T13:32:18Z</time>
      </trkpt>
      <trkpt lat="49.44525" lon="1.00946">
        <ele>108</ele>
        <time>2014-10-30T13:32:23Z</time>
      </trkpt>
      <trkpt lat="49.44525" lon="1.00928">
        <ele>108</ele>
        <time>2014-10-30T13:32:27Z</time>
      </trkpt>
      <trkpt lat="49.4453" lon="1.00911">
        <ele>101</ele>
        <time>2014-10-30T13:32:30Z</time>
      </trkpt>
      <trkpt lat="49.44532" lon="1.00896">
        <ele>101</ele>
        <time>2014-10-30T13:32:33Z</time>
      </trkpt>
      <trkpt lat="49.44534" lon="1.00881">
        <ele>101</ele>
        <time>2014-10-30T13:32:37Z</time>
      </trkpt>
      <trkpt lat="49.44536" lon="1.00866">
        <ele>101</ele>
        <time>2014-10-30T13:32:40Z</time>
      </trkpt>
      <trkpt lat="49.44537" lon="1.00849">
        <ele>93</ele>
        <time>2014-10-30T13:32:44Z</time>
      </trkpt>
      <trkpt lat="49.44542" lon="1.00835">
        <ele>93</ele>
        <time>2014-10-30T13:32:48Z</time>
      </trkpt>
      <trkpt lat="49.44539" lon="1.00818">
        <ele>100</ele>
        <time>2014-10-30T13:32:52Z</time>
      </trkpt>
      <trkpt lat="49.44536" lon="1.00804">
        <ele>100</ele>
        <time>2014-10-30T13:32:55Z</time>
      </trkpt>
      <trkpt lat="49.44532" lon="1.00789">
        <ele>100</ele>
        <time>2014-10-30T13:32:58Z</time>
      </trkpt>
      <trkpt lat="49.44533" lon="1.00774">
        <ele>100</ele>
        <time>2014-10-30T13:33:01Z</time>
      </trkpt>
      <trkpt lat="49.4453" lon="1.0076">
        <ele>107</ele>
        <time>2014-10-30T13:33:05Z</time>
      </trkpt>
      <trkpt lat="49.44531" lon="1.00743">
        <ele>112</ele>
        <time>2014-10-30T13:33:10Z</time>
      </trkpt>
      <trkpt lat="49.44531" lon="1.00727">
        <ele>117</ele>
        <time>2014-10-30T13:33:14Z</time>
      </trkpt>
      <trkpt lat="49.44529" lon="1.00713">
        <ele>117</ele>
        <time>2014-10-30T13:33:17Z</time>
      </trkpt>
      <trkpt lat="49.44528" lon="1.00697">
        <ele>117</ele>
        <time>2014-10-30T13:33:20Z</time>
      </trkpt>
      <trkpt lat="49.4453" lon="1.0068">
        <ele>117</ele>
        <time>2014-10-30T13:33:24Z</time>
      </trkpt>
      <trkpt lat="49.44533" lon="1.00666">
        <ele>117</ele>
        <time>2014-10-30T13:33:27Z</time>
      </trkpt>
      <trkpt lat="49.44535" lon="1.00648">
        <ele>117</ele>
        <time>2014-10-30T13:33:31Z</time>
      </trkpt>
      <trkpt lat="49.44542" lon="1.00632">
        <ele>117</ele>
        <time>2014-10-30T13:33:34Z</time>
      </trkpt>
      <trkpt lat="49.4454" lon="1.00614">
        <ele>107</ele>
        <time>2014-10-30T13:33:37Z</time>
      </trkpt>
      <trkpt lat="49.4454" lon="1.00599">
        <ele>107</ele>
        <time>2014-10-30T13:33:41Z</time>
      </trkpt>
      <trkpt lat="49.44541" lon="1.00584">
        <ele>107</ele>
        <time>2014-10-30T13:33:44Z</time>
      </trkpt>
      <trkpt lat="49.4454" lon="1.00566">
        <ele>107</ele>
        <time>2014-10-30T13:33:47Z</time>
      </trkpt>
      <trkpt lat="49.44541" lon="1.00552">
        <ele>99</ele>
        <time>2014-10-30T13:33:50Z</time>
      </trkpt>
      <trkpt lat="49.4454" lon="1.00535">
        <ele>99</ele>
        <time>2014-10-30T13:33:53Z</time>
      </trkpt>
      <trkpt lat="49.44539" lon="1.0052">
        <ele>99</ele>
        <time>2014-10-30T13:33:56Z</time>
      </trkpt>
      <trkpt lat="49.44539" lon="1.00504">
        <ele>99</ele>
        <time>2014-10-30T13:34:01Z</time>
      </trkpt>
      <trkpt lat="49.44542" lon="1.00488">
        <ele>99</ele>
        <time>2014-10-30T13:34:06Z</time>
      </trkpt>
      <trkpt lat="49.44545" lon="1.00475">
        <ele>89</ele>
        <time>2014-10-30T13:34:20Z</time>
      </trkpt>
      <trkpt lat="49.4454" lon="1.00461">
        <ele>89</ele>
        <time>2014-10-30T13:34:41Z</time>
      </trkpt>
      <trkpt lat="49.44539" lon="1.00446">
        <ele>89</ele>
        <time>2014-10-30T13:34:48Z</time>
      </trkpt>
      <trkpt lat="49.44537" lon="1.00432">
        <ele>96</ele>
        <time>2014-10-30T13:34:54Z</time>
      </trkpt>
      <trkpt lat="49.44539" lon="1.00417">
        <ele>96</ele>
        <time>2014-10-30T13:34:58Z</time>
      </trkpt>
      <trkpt lat="49.44538" lon="1.00402">
        <ele>96</ele>
        <time>2014-10-30T13:35:03Z</time>
      </trkpt>
      <trkpt lat="49.44536" lon="1.00387">
        <ele>96</ele>
        <time>2014-10-30T13:35:17Z</time>
      </trkpt>
      <trkpt lat="49.44539" lon="1.00373">
        <ele>96</ele>
        <time>2014-10-30T13:35:27Z</time>
      </trkpt>
      <trkpt lat="49.44541" lon="1.00356">
        <ele>96</ele>
        <time>2014-10-30T13:35:32Z</time>
      </trkpt>
      <trkpt lat="49.4454" lon="1.0034">
        <ele>96</ele>
        <time>2014-10-30T13:35:36Z</time>
      </trkpt>
      <trkpt lat="49.44538" lon="1.00325">
        <ele>96</ele>
        <time>2014-10-30T13:35:39Z</time>
      </trkpt>
      <trkpt lat="49.44536" lon="1.00308">
        <ele>96</ele>
        <time>2014-10-30T13:35:43Z</time>
      </trkpt>
      <trkpt lat="49.44537" lon="1.00292">
        <ele>96</ele>
        <time>2014-10-30T13:35:46Z</time>
      </trkpt>
      <trkpt lat="49.44536" lon="1.00275">
        <ele>96</ele>
        <time>2014-10-30T13:35:49Z</time>
      </trkpt>
      <trkpt lat="49.44534" lon="1.00262">
        <ele>96</ele>
        <time>2014-10-30T13:35:52Z</time>
      </trkpt>
      <trkpt lat="49.4453" lon="1.00246">
        <ele>96</ele>
        <time>2014-10-30T13:35:55Z</time>
      </trkpt>
      <trkpt lat="49.44531" lon="1.00227">
        <ele>96</ele>
        <time>2014-10-30T13:35:58Z</time>
      </trkpt>
      <trkpt lat="49.4453" lon="1.0021">
        <ele>89</ele>
        <time>2014-10-30T13:36:01Z</time>
      </trkpt>
      <trkpt lat="49.44529" lon="1.00193">
        <ele>89</ele>
        <time>2014-10-30T13:36:04Z</time>
      </trkpt>
      <trkpt lat="49.44529" lon="1.00175">
        <ele>89</ele>
        <time>2014-10-30T13:36:07Z</time>
      </trkpt>
      <trkpt lat="49.4453" lon="1.00157">
        <ele>84</ele>
        <time>2014-10-30T13:36:11Z</time>
      </trkpt>
      <trkpt lat="49.44531" lon="1.00141">
        <ele>84</ele>
        <time>2014-10-30T13:36:14Z</time>
      </trkpt>
      <trkpt lat="49.4453" lon="1.00126">
        <ele>84</ele>
        <time>2014-10-30T13:36:16Z</time>
      </trkpt>
      <trkpt lat="49.44529" lon="1.00109">
        <ele>84</ele>
        <time>2014-10-30T13:36:19Z</time>
      </trkpt>
      <trkpt lat="49.44526" lon="1.00094">
        <ele>84</ele>
        <time>2014-10-30T13:36:22Z</time>
      </trkpt>
      <trkpt lat="49.44528" lon="1.00079">
        <ele>84</ele>
        <time>2014-10-30T13:36:25Z</time>
      </trkpt>
      <trkpt lat="49.44526" lon="1.00062">
        <ele>84</ele>
        <time>2014-10-30T13:36:28Z</time>
      </trkpt>
      <trkpt lat="49.44528" lon="1.00047">
        <ele>84</ele>
        <time>2014-10-30T13:36:31Z</time>
      </trkpt>
      <trkpt lat="49.44526" lon="1.00032">
        <ele>84</ele>
        <time>2014-10-30T13:36:34Z</time>
      </trkpt>
      <trkpt lat="49.44526" lon="1.00013">
        <ele>84</ele>
        <time>2014-10-30T13:36:38Z</time>
      </trkpt>
      <trkpt lat="49.44529" lon="1">
        <ele>84</ele>
        <time>2014-10-30T13:36:41Z</time>
      </trkpt>
      <trkpt lat="49.44531" lon="0.99986">
        <ele>84</ele>
        <time>2014-10-30T13:36:44Z</time>
      </trkpt>
      <trkpt lat="49.44529" lon="0.99971">
        <ele>84</ele>
        <time>2014-10-30T13:36:47Z</time>
      </trkpt>
      <trkpt lat="49.44529" lon="0.99954">
        <ele>84</ele>
        <time>2014-10-30T13:36:51Z</time>
      </trkpt>
      <trkpt lat="49.44526" lon="0.99939">
        <ele>84</ele>
        <time>2014-10-30T13:36:55Z</time>
      </trkpt>
      <trkpt lat="49.44526" lon="0.99924">
        <ele>84</ele>
        <time>2014-10-30T13:36:58Z</time>
      </trkpt>
      <trkpt lat="49.44528" lon="0.99907">
        <ele>84</ele>
        <time>2014-10-30T13:37:02Z</time>
      </trkpt>
      <trkpt lat="49.44528" lon="0.99893">
        <ele>84</ele>
        <time>2014-10-30T13:37:05Z</time>
      </trkpt>
      <trkpt lat="49.44529" lon="0.99878">
        <ele>84</ele>
        <time>2014-10-30T13:37:09Z</time>
      </trkpt>
      <trkpt lat="49.44529" lon="0.99864">
        <ele>84</ele>
        <time>2014-10-30T13:37:12Z</time>
      </trkpt>
      <trkpt lat="49.44532" lon="0.99849">
        <ele>84</ele>
        <time>2014-10-30T13:37:16Z</time>
      </trkpt>
      <trkpt lat="49.44532" lon="0.99834">
        <ele>90</ele>
        <time>2014-10-30T13:37:20Z</time>
      </trkpt>
      <trkpt lat="49.44532" lon="0.99818">
        <ele>90</ele>
        <time>2014-10-30T13:37:23Z</time>
      </trkpt>
      <trkpt lat="49.44531" lon="0.998">
        <ele>90</ele>
        <time>2014-10-30T13:37:26Z</time>
      </trkpt>
      <trkpt lat="49.44532" lon="0.99785">
        <ele>90</ele>
        <time>2014-10-30T13:37:30Z</time>
      </trkpt>
      <trkpt lat="49.44535" lon="0.99771">
        <ele>85</ele>
        <time>2014-10-30T13:37:33Z</time>
      </trkpt>
      <trkpt lat="49.44536" lon="0.99756">
        <ele>85</ele>
        <time>2014-10-30T13:37:36Z</time>
      </trkpt>
      <trkpt lat="49.44536" lon="0.9974">
        <ele>85</ele>
        <time>2014-10-30T13:37:39Z</time>
      </trkpt>
      <trkpt lat="49.44536" lon="0.99722">
        <ele>85</ele>
        <time>2014-10-30T13:37:42Z</time>
      </trkpt>
      <trkpt lat="49.44538" lon="0.99704">
        <ele>85</ele>
        <time>2014-10-30T13:37:46Z</time>
      </trkpt>
      <trkpt lat="49.44538" lon="0.99689">
        <ele>85</ele>
        <time>2014-10-30T13:37:49Z</time>
      </trkpt>
      <trkpt lat="49.44538" lon="0.99674">
        <ele>85</ele>
        <time>2014-10-30T13:37:52Z</time>
      </trkpt>
      <trkpt lat="49.44538" lon="0.99656">
        <ele>85</ele>
        <time>2014-10-30T13:37:56Z</time>
      </trkpt>
      <trkpt lat="49.44538" lon="0.9964">
        <ele>85</ele>
        <time>2014-10-30T13:37:59Z</time>
      </trkpt>
      <trkpt lat="49.44536" lon="0.99626">
        <ele>85</ele>
        <time>2014-10-30T13:38:02Z</time>
      </trkpt>
      <trkpt lat="49.44535" lon="0.99611">
        <ele>85</ele>
        <time>2014-10-30T13:38:05Z</time>
      </trkpt>
      <trkpt lat="49.44534" lon="0.99595">
        <ele>85</ele>
        <time>2014-10-30T13:38:08Z</time>
      </trkpt>
      <trkpt lat="49.44535" lon="0.99577">
        <ele>85</ele>
        <time>2014-10-30T13:38:12Z</time>
      </trkpt>
      <trkpt lat="49.44536" lon="0.99559">
        <ele>85</ele>
        <time>2014-10-30T13:38:15Z</time>
      </trkpt>
      <trkpt lat="49.44534" lon="0.99544">
        <ele>85</ele>
        <time>2014-10-30T13:38:18Z</time>
      </trkpt>
      <trkpt lat="49.44526" lon="0.99532">
        <ele>80</ele>
        <time>2014-10-30T13:38:22Z</time>
      </trkpt>
      <trkpt lat="49.44526" lon="0.99516">
        <ele>80</ele>
        <time>2014-10-30T13:38:27Z</time>
      </trkpt>
      <trkpt lat="49.44523" lon="0.99498">
        <ele>80</ele>
        <time>2014-10-30T13:38:30Z</time>
      </trkpt>
      <trkpt lat="49.44523" lon="0.99484">
        <ele>80</ele>
        <time>2014-10-30T13:38:33Z</time>
      </trkpt>
      <trkpt lat="49.44524" lon="0.99469">
        <ele>80</ele>
        <time>2014-10-30T13:38:37Z</time>
      </trkpt>
      <trkpt lat="49.44525" lon="0.9945">
        <ele>80</ele>
        <time>2014-10-30T13:38:41Z</time>
      </trkpt>
      <trkpt lat="49.44528" lon="0.99431">
        <ele>80</ele>
        <time>2014-10-30T13:38:45Z</time>
      </trkpt>
      <trkpt lat="49.44527" lon="0.99415">
        <ele>80</ele>
        <time>2014-10-30T13:38:48Z</time>
      </trkpt>
      <trkpt lat="49.44528" lon="0.99398">
        <ele>80</ele>
        <time>2014-10-30T13:38:52Z</time>
      </trkpt>
      <trkpt lat="49.44529" lon="0.99382">
        <ele>80</ele>
        <time>2014-10-30T13:38:56Z</time>
      </trkpt>
      <trkpt lat="49.44531" lon="0.99365">
        <ele>80</ele>
        <time>2014-10-30T13:39:00Z</time>
      </trkpt>
      <trkpt lat="49.4453" lon="0.99348">
        <ele>80</ele>
        <time>2014-10-30T13:39:04Z</time>
      </trkpt>
      <trkpt lat="49.44532" lon="0.99331">
        <ele>80</ele>
        <time>2014-10-30T13:39:08Z</time>
      </trkpt>
      <trkpt lat="49.44535" lon="0.99316">
        <ele>80</ele>
        <time>2014-10-30T13:39:12Z</time>
      </trkpt>
      <trkpt lat="49.44532" lon="0.99301">
        <ele>80</ele>
        <time>2014-10-30T13:39:16Z</time>
      </trkpt>
      <trkpt lat="49.44531" lon="0.99285">
        <ele>80</ele>
        <time>2014-10-30T13:39:20Z</time>
      </trkpt>
      <trkpt lat="49.44532" lon="0.99268">
        <ele>80</ele>
        <time>2014-10-30T13:39:25Z</time>
      </trkpt>
      <trkpt lat="49.44528" lon="0.99254">
        <ele>80</ele>
        <time>2014-10-30T13:39:30Z</time>
      </trkpt>
      <trkpt lat="49.44528" lon="0.9924">
        <ele>80</ele>
        <time>2014-10-30T13:39:34Z</time>
      </trkpt>
      <trkpt lat="49.44531" lon="0.99226">
        <ele>80</ele>
        <time>2014-10-30T13:39:45Z</time>
      </trkpt>
      <trkpt lat="49.44526" lon="0.99211">
        <ele>74</ele>
        <time>2014-10-30T13:39:55Z</time>
      </trkpt>
      <trkpt lat="49.44522" lon="0.99198">
        <ele>74</ele>
        <time>2014-10-30T13:40:00Z</time>
      </trkpt>
      <trkpt lat="49.44521" lon="0.99183">
        <ele>74</ele>
        <time>2014-10-30T13:40:05Z</time>
      </trkpt>
      <trkpt lat="49.44531" lon="0.99186">
        <ele>74</ele>
        <time>2014-10-30T13:40:10Z</time>
      </trkpt>
      <trkpt lat="49.44542" lon="0.99188">
        <ele>74</ele>
        <time>2014-10-30T13:40:14Z</time>
      </trkpt>
      <trkpt lat="49.44551" lon="0.99191">
        <ele>81</ele>
        <time>2014-10-30T13:40:17Z</time>
      </trkpt>
      <trkpt lat="49.44562" lon="0.99196">
        <ele>81</ele>
        <time>2014-10-30T13:40:21Z</time>
      </trkpt>
      <trkpt lat="49.44571" lon="0.99197">
        <ele>88</ele>
        <time>2014-10-30T13:40:24Z</time>
      </trkpt>
      <trkpt lat="49.44582" lon="0.99203">
        <ele>88</ele>
        <time>2014-10-30T13:40:28Z</time>
      </trkpt>
      <trkpt lat="49.44591" lon="0.99206">
        <ele>88</ele>
        <time>2014-10-30T13:40:31Z</time>
      </trkpt>
      <trkpt lat="49.44602" lon="0.99211">
        <ele>88</ele>
        <time>2014-10-30T13:40:35Z</time>
      </trkpt>
      <trkpt lat="49.44614" lon="0.99214">
        <ele>88</ele>
        <time>2014-10-30T13:40:38Z</time>
      </trkpt>
      <trkpt lat="49.44623" lon="0.99219">
        <ele>88</ele>
        <time>2014-10-30T13:40:42Z</time>
      </trkpt>
      <trkpt lat="49.44633" lon="0.99219">
        <ele>97</ele>
        <time>2014-10-30T13:40:47Z</time>
      </trkpt>
      <trkpt lat="49.44644" lon="0.99223">
        <ele>92</ele>
        <time>2014-10-30T13:40:50Z</time>
      </trkpt>
      <trkpt lat="49.44654" lon="0.99226">
        <ele>92</ele>
        <time>2014-10-30T13:40:53Z</time>
      </trkpt>
      <trkpt lat="49.44664" lon="0.99227">
        <ele>92</ele>
        <time>2014-10-30T13:40:57Z</time>
      </trkpt>
      <trkpt lat="49.44676" lon="0.99232">
        <ele>85</ele>
        <time>2014-10-30T13:41:01Z</time>
      </trkpt>
      <trkpt lat="49.44685" lon="0.99237">
        <ele>85</ele>
        <time>2014-10-30T13:41:04Z</time>
      </trkpt>
      <trkpt lat="49.44696" lon="0.99241">
        <ele>85</ele>
        <time>2014-10-30T13:41:08Z</time>
      </trkpt>
      <trkpt lat="49.44705" lon="0.99245">
        <ele>85</ele>
        <time>2014-10-30T13:41:11Z</time>
      </trkpt>
      <trkpt lat="49.44715" lon="0.99251">
        <ele>85</ele>
        <time>2014-10-30T13:41:15Z</time>
      </trkpt>
      <trkpt lat="49.44728" lon="0.99254">
        <ele>85</ele>
        <time>2014-10-30T13:41:19Z</time>
      </trkpt>
      <trkpt lat="49.44739" lon="0.99257">
        <ele>85</ele>
        <time>2014-10-30T13:41:22Z</time>
      </trkpt>
      <trkpt lat="49.4475" lon="0.99259">
        <ele>92</ele>
        <time>2014-10-30T13:41:26Z</time>
      </trkpt>
      <trkpt lat="49.44763" lon="0.99257">
        <ele>92</ele>
        <time>2014-10-30T13:41:29Z</time>
      </trkpt>
      <trkpt lat="49.44774" lon="0.99258">
        <ele>98</ele>
        <time>2014-10-30T13:41:32Z</time>
      </trkpt>
      <trkpt lat="49.44786" lon="0.99263">
        <ele>98</ele>
        <time>2014-10-30T13:41:35Z</time>
      </trkpt>
      <trkpt lat="49.44798" lon="0.99269">
        <ele>98</ele>
        <time>2014-10-30T13:41:39Z</time>
      </trkpt>
      <trkpt lat="49.44807" lon="0.99269">
        <ele>98</ele>
        <time>2014-10-30T13:41:42Z</time>
      </trkpt>
      <trkpt lat="49.44816" lon="0.99271">
        <ele>106</ele>
        <time>2014-10-30T13:41:45Z</time>
      </trkpt>
      <trkpt lat="49.44828" lon="0.99277">
        <ele>106</ele>
        <time>2014-10-30T13:41:48Z</time>
      </trkpt>
      <trkpt lat="49.44837" lon="0.99281">
        <ele>106</ele>
        <time>2014-10-30T13:41:51Z</time>
      </trkpt>
      <trkpt lat="49.4485" lon="0.99283">
        <ele>106</ele>
        <time>2014-10-30T13:41:55Z</time>
      </trkpt>
      <trkpt lat="49.4486" lon="0.99286">
        <ele>106</ele>
        <time>2014-10-30T13:41:58Z</time>
      </trkpt>
      <trkpt lat="49.44871" lon="0.99293">
        <ele>106</ele>
        <time>2014-10-30T13:42:02Z</time>
      </trkpt>
      <trkpt lat="49.44881" lon="0.99295">
        <ele>100</ele>
        <time>2014-10-30T13:42:04Z</time>
      </trkpt>
      <trkpt lat="49.44891" lon="0.993">
        <ele>92</ele>
        <time>2014-10-30T13:42:06Z</time>
      </trkpt>
      <trkpt lat="49.44901" lon="0.99302">
        <ele>92</ele>
        <time>2014-10-30T13:42:08Z</time>
      </trkpt>
      <trkpt lat="49.44914" lon="0.99304">
        <ele>87</ele>
        <time>2014-10-30T13:42:11Z</time>
      </trkpt>
      <trkpt lat="49.44925" lon="0.99308">
        <ele>87</ele>
        <time>2014-10-30T13:42:13Z</time>
      </trkpt>
      <trkpt lat="49.44938" lon="0.99311">
        <ele>87</ele>
        <time>2014-10-30T13:42:16Z</time>
      </trkpt>
      <trkpt lat="49.44948" lon="0.99315">
        <ele>87</ele>
        <time>2014-10-30T13:42:18Z</time>
      </trkpt>
      <trkpt lat="49.44959" lon="0.99318">
        <ele>87</ele>
        <time>2014-10-30T13:42:20Z</time>
      </trkpt>
      <trkpt lat="49.44968" lon="0.99322">
        <ele>81</ele>
        <time>2014-10-30T13:42:22Z</time>
      </trkpt>
      <trkpt lat="49.44977" lon="0.99325">
        <ele>81</ele>
        <time>2014-10-30T13:42:24Z</time>
      </trkpt>
      <trkpt lat="49.4499" lon="0.99329">
        <ele>81</ele>
        <time>2014-10-30T13:42:27Z</time>
      </trkpt>
      <trkpt lat="49.45" lon="0.99332">
        <ele>81</ele>
        <time>2014-10-30T13:42:30Z</time>
      </trkpt>
      <trkpt lat="49.4501" lon="0.99338">
        <ele>81</ele>
        <time>2014-10-30T13:42:33Z</time>
      </trkpt>
      <trkpt lat="49.4502" lon="0.9934">
        <ele>81</ele>
        <time>2014-10-30T13:42:36Z</time>
      </trkpt>
      <trkpt lat="49.4503" lon="0.99342">
        <ele>87</ele>
        <time>2014-10-30T13:42:40Z</time>
      </trkpt>
      <trkpt lat="49.4504" lon="0.99343">
        <ele>87</ele>
        <time>2014-10-30T13:42:44Z</time>
      </trkpt>
      <trkpt lat="49.4505" lon="0.99347">
        <ele>87</ele>
        <time>2014-10-30T13:42:47Z</time>
      </trkpt>
      <trkpt lat="49.45061" lon="0.99347">
        <ele>87</ele>
        <time>2014-10-30T13:42:50Z</time>
      </trkpt>
      <trkpt lat="49.45071" lon="0.99354">
        <ele>87</ele>
        <time>2014-10-30T13:42:53Z</time>
      </trkpt>
      <trkpt lat="49.45082" lon="0.99359">
        <ele>94</ele>
        <time>2014-10-30T13:42:57Z</time>
      </trkpt>
      <trkpt lat="49.45091" lon="0.99362">
        <ele>94</ele>
        <time>2014-10-30T13:43:00Z</time>
      </trkpt>
      <trkpt lat="49.451" lon="0.99364">
        <ele>94</ele>
        <time>2014-10-30T13:43:03Z</time>
      </trkpt>
      <trkpt lat="49.45112" lon="0.99366">
        <ele>102</ele>
        <time>2014-10-30T13:43:07Z</time>
      </trkpt>
      <trkpt lat="49.4512" lon="0.99371">
        <ele>102</ele>
        <time>2014-10-30T13:43:10Z</time>
      </trkpt>
      <trkpt lat="49.45133" lon="0.99373">
        <ele>102</ele>
        <time>2014-10-30T13:43:14Z</time>
      </trkpt>
      <trkpt lat="49.45143" lon="0.9937">
        <ele>102</ele>
        <time>2014-10-30T13:43:17Z</time>
      </trkpt>
      <trkpt lat="49.45154" lon="0.99368">
        <ele>96</ele>
        <time>2014-10-30T13:43:20Z</time>
      </trkpt>
      <trkpt lat="49.45165" lon="0.99373">
        <ele>96</ele>
        <time>2014-10-30T13:43:23Z</time>
      </trkpt>
      <trkpt lat="49.45175" lon="0.99373">
        <ele>96</ele>
        <time>2014-10-30T13:43:27Z</time>
      </trkpt>
      <trkpt lat="49.45184" lon="0.99377">
        <ele>96</ele>
        <time>2014-10-30T13:43:30Z</time>
      </trkpt>
      <trkpt lat="49.45193" lon="0.99376">
        <ele>96</ele>
        <time>2014-10-30T13:43:34Z</time>
      </trkpt>
      <trkpt lat="49.45199" lon="0.99363">
        <ele>96</ele>
        <time>2014-10-30T13:43:39Z</time>
      </trkpt>
      <trkpt lat="49.45201" lon="0.99346">
        <ele>87</ele>
        <time>2014-10-30T13:43:44Z</time>
      </trkpt>
      <trkpt lat="49.45203" lon="0.9933">
        <ele>87</ele>
        <time>2014-10-30T13:43:48Z</time>
      </trkpt>
      <trkpt lat="49.45204" lon="0.99313">
        <ele>87</ele>
        <time>2014-10-30T13:43:53Z</time>
      </trkpt>
      <trkpt lat="49.45206" lon="0.99296">
        <ele>87</ele>
        <time>2014-10-30T13:43:57Z</time>
      </trkpt>
      <trkpt lat="49.45206" lon="0.9928">
        <ele>87</ele>
        <time>2014-10-30T13:44:01Z</time>
      </trkpt>
      <trkpt lat="49.45209" lon="0.99262">
        <ele>87</ele>
        <time>2014-10-30T13:44:04Z</time>
      </trkpt>
      <trkpt lat="49.45212" lon="0.99249">
        <ele>87</ele>
        <time>2014-10-30T13:44:06Z</time>
      </trkpt>
      <trkpt lat="49.45212" lon="0.99231">
        <ele>87</ele>
        <time>2014-10-30T13:44:09Z</time>
      </trkpt>
      <trkpt lat="49.45213" lon="0.99214">
        <ele>87</ele>
        <time>2014-10-30T13:44:12Z</time>
      </trkpt>
      <trkpt lat="49.45213" lon="0.99197">
        <ele>87</ele>
        <time>2014-10-30T13:44:16Z</time>
      </trkpt>
      <trkpt lat="49.45215" lon="0.99178">
        <ele>87</ele>
        <time>2014-10-30T13:44:19Z</time>
      </trkpt>
      <trkpt lat="49.45216" lon="0.99159">
        <ele>87</ele>
        <time>2014-10-30T13:44:22Z</time>
      </trkpt>
      <trkpt lat="49.45217" lon="0.9914">
        <ele>87</ele>
        <time>2014-10-30T13:44:25Z</time>
      </trkpt>
      <trkpt lat="49.45218" lon="0.99123">
        <ele>87</ele>
        <time>2014-10-30T13:44:28Z</time>
      </trkpt>
      <trkpt lat="49.45219" lon="0.99108">
        <ele>87</ele>
        <time>2014-10-30T13:44:31Z</time>
      </trkpt>
      <trkpt lat="49.45217" lon="0.99089">
        <ele>81</ele>
        <time>2014-10-30T13:44:35Z</time>
      </trkpt>
      <trkpt lat="49.45218" lon="0.99073">
        <ele>81</ele>
        <time>2014-10-30T13:44:40Z</time>
      </trkpt>
      <trkpt lat="49.45221" lon="0.99058">
        <ele>81</ele>
        <time>2014-10-30T13:44:46Z</time>
      </trkpt>
      <trkpt lat="49.45221" lon="0.99043">
        <ele>81</ele>
        <time>2014-10-30T13:44:51Z</time>
      </trkpt>
      <trkpt lat="49.45221" lon="0.99028">
        <ele>81</ele>
        <time>2014-10-30T13:44:55Z</time>
      </trkpt>
      <trkpt lat="49.45221" lon="0.9901">
        <ele>75</ele>
        <time>2014-10-30T13:44:59Z</time>
      </trkpt>
      <trkpt lat="49.45226" lon="0.98995">
        <ele>75</ele>
        <time>2014-10-30T13:45:03Z</time>
      </trkpt>
      <trkpt lat="49.45233" lon="0.98983">
        <ele>75</ele>
        <time>2014-10-30T13:45:06Z</time>
      </trkpt>
      <trkpt lat="49.45232" lon="0.98967">
        <ele>75</ele>
        <time>2014-10-30T13:45:10Z</time>
      </trkpt>
      <trkpt lat="49.45233" lon="0.9895">
        <ele>75</ele>
        <time>2014-10-30T13:45:13Z</time>
      </trkpt>
      <trkpt lat="49.45238" lon="0.98935">
        <ele>75</ele>
        <time>2014-10-30T13:45:17Z</time>
      </trkpt>
      <trkpt lat="49.45238" lon="0.98916">
        <ele>75</ele>
        <time>2014-10-30T13:45:20Z</time>
      </trkpt>
      <trkpt lat="49.45237" lon="0.98899">
        <ele>75</ele>
        <time>2014-10-30T13:45:23Z</time>
      </trkpt>
      <trkpt lat="49.45236" lon="0.98885">
        <ele>75</ele>
        <time>2014-10-30T13:45:25Z</time>
      </trkpt>
      <trkpt lat="49.45237" lon="0.9887">
        <ele>83</ele>
        <time>2014-10-30T13:45:28Z</time>
      </trkpt>
      <trkpt lat="49.45237" lon="0.98855">
        <ele>83</ele>
        <time>2014-10-30T13:45:31Z</time>
      </trkpt>
      <trkpt lat="49.45239" lon="0.98836">
        <ele>83</ele>
        <time>2014-10-30T13:45:34Z</time>
      </trkpt>
      <trkpt lat="49.45242" lon="0.98822">
        <ele>83</ele>
        <time>2014-10-30T13:45:37Z</time>
      </trkpt>
      <trkpt lat="49.45244" lon="0.98808">
        <ele>83</ele>
        <time>2014-10-30T13:45:40Z</time>
      </trkpt>
      <trkpt lat="49.45245" lon="0.98793">
        <ele>83</ele>
        <time>2014-10-30T13:45:43Z</time>
      </trkpt>
      <trkpt lat="49.45245" lon="0.98776">
        <ele>83</ele>
        <time>2014-10-30T13:45:46Z</time>
      </trkpt>
      <trkpt lat="49.45242" lon="0.98756">
        <ele>83</ele>
        <time>2014-10-30T13:45:50Z</time>
      </trkpt>
      <trkpt lat="49.4524" lon="0.98741">
        <ele>83</ele>
        <time>2014-10-30T13:45:53Z</time>
      </trkpt>
      <trkpt lat="49.4524" lon="0.98727">
        <ele>83</ele>
        <time>2014-10-30T13:45:56Z</time>
      </trkpt>
      <trkpt lat="49.4524" lon="0.98711">
        <ele>83</ele>
        <time>2014-10-30T13:46:00Z</time>
      </trkpt>
      <trkpt lat="49.45239" lon="0.98695">
        <ele>83</ele>
        <time>2014-10-30T13:46:04Z</time>
      </trkpt>
      <trkpt lat="49.4524" lon="0.98679">
        <ele>83</ele>
        <time>2014-10-30T13:46:08Z</time>
      </trkpt>
      <trkpt lat="49.45241" lon="0.98664">
        <ele>83</ele>
        <time>2014-10-30T13:46:12Z</time>
      </trkpt>
      <trkpt lat="49.45244" lon="0.98649">
        <ele>83</ele>
        <time>2014-10-30T13:46:16Z</time>
      </trkpt>
      <trkpt lat="49.45246" lon="0.98634">
        <ele>83</ele>
        <time>2014-10-30T13:46:20Z</time>
      </trkpt>
      <trkpt lat="49.45246" lon="0.98619">
        <ele>83</ele>
        <time>2014-10-30T13:46:24Z</time>
      </trkpt>
      <trkpt lat="49.45248" lon="0.98603">
        <ele>83</ele>
        <time>2014-10-30T13:46:29Z</time>
      </trkpt>
      <trkpt lat="49.4525" lon="0.98587">
        <ele>83</ele>
        <time>2014-10-30T13:46:35Z</time>
      </trkpt>
      <trkpt lat="49.45253" lon="0.98569">
        <ele>91</ele>
        <time>2014-10-30T13:46:40Z</time>
      </trkpt>
      <trkpt lat="49.45252" lon="0.98553">
        <ele>91</ele>
        <time>2014-10-30T13:46:44Z</time>
      </trkpt>
      <trkpt lat="49.45252" lon="0.98539">
        <ele>91</ele>
        <time>2014-10-30T13:46:48Z</time>
      </trkpt>
      <trkpt lat="49.45254" lon="0.98525">
        <ele>98</ele>
        <time>2014-10-30T13:46:52Z</time>
      </trkpt>
      <trkpt lat="49.45255" lon="0.98506">
        <ele>98</ele>
        <time>2014-10-30T13:46:56Z</time>
      </trkpt>
      <trkpt lat="49.45256" lon="0.9849">
        <ele>98</ele>
        <time>2014-10-30T13:46:59Z</time>
      </trkpt>
      <trkpt lat="49.45259" lon="0.98472">
        <ele>98</ele>
        <time>2014-10-30T13:47:03Z</time>
      </trkpt>
      <trkpt lat="49.45259" lon="0.98458">
        <ele>98</ele>
        <time>2014-10-30T13:47:08Z</time>
      </trkpt>
      <trkpt lat="49.45264" lon="0.98445">
        <ele>98</ele>
        <time>2014-10-30T13:47:12Z</time>
      </trkpt>
      <trkpt lat="49.45267" lon="0.98431">
        <ele>98</ele>
        <time>2014-10-30T13:47:19Z</time>
      </trkpt>
      <trkpt lat="49.45259" lon="0.98424">
        <ele>98</ele>
        <time>2014-10-30T13:47:52Z</time>
      </trkpt>
      <trkpt lat="49.4526" lon="0.9841">
        <ele>98</ele>
        <time>2014-10-30T13:48:10Z</time>
      </trkpt>
      <trkpt lat="49.45263" lon="0.98394">
        <ele>98</ele>
        <time>2014-10-30T13:48:15Z</time>
      </trkpt>
      <trkpt lat="49.45264" lon="0.9838">
        <ele>98</ele>
        <time>2014-10-30T13:48:19Z</time>
      </trkpt>
      <trkpt lat="49.45264" lon="0.98363">
        <ele>98</ele>
        <time>2014-10-30T13:48:23Z</time>
      </trkpt>
      <trkpt lat="49.45267" lon="0.98345">
        <ele>98</ele>
        <time>2014-10-30T13:48:27Z</time>
      </trkpt>
      <trkpt lat="49.45271" lon="0.98332">
        <ele>92</ele>
        <time>2014-10-30T13:48:31Z</time>
      </trkpt>
      <trkpt lat="49.45277" lon="0.98322">
        <ele>92</ele>
        <time>2014-10-30T13:48:37Z</time>
      </trkpt>
      <trkpt lat="49.45286" lon="0.98312">
        <ele>92</ele>
        <time>2014-10-30T13:48:42Z</time>
      </trkpt>
      <trkpt lat="49.45294" lon="0.98299">
        <ele>92</ele>
        <time>2014-10-30T13:48:46Z</time>
      </trkpt>
      <trkpt lat="49.45301" lon="0.98288">
        <ele>92</ele>
        <time>2014-10-30T13:48:49Z</time>
      </trkpt>
      <trkpt lat="49.4531" lon="0.98278">
        <ele>92</ele>
        <time>2014-10-30T13:48:52Z</time>
      </trkpt>
      <trkpt lat="49.45318" lon="0.98268">
        <ele>92</ele>
        <time>2014-10-30T13:48:55Z</time>
      </trkpt>
      <trkpt lat="49.45327" lon="0.98258">
        <ele>92</ele>
        <time>2014-10-30T13:48:58Z</time>
      </trkpt>
      <trkpt lat="49.45336" lon="0.98247">
        <ele>97</ele>
        <time>2014-10-30T13:49:01Z</time>
      </trkpt>
      <trkpt lat="49.45345" lon="0.98237">
        <ele>97</ele>
        <time>2014-10-30T13:49:04Z</time>
      </trkpt>
      <trkpt lat="49.45355" lon="0.98227">
        <ele>97</ele>
        <time>2014-10-30T13:49:07Z</time>
      </trkpt>
      <trkpt lat="49.45363" lon="0.98215">
        <ele>97</ele>
        <time>2014-10-30T13:49:10Z</time>
      </trkpt>
      <trkpt lat="49.45372" lon="0.98203">
        <ele>97</ele>
        <time>2014-10-30T13:49:13Z</time>
      </trkpt>
      <trkpt lat="49.45382" lon="0.98193">
        <ele>97</ele>
        <time>2014-10-30T13:49:16Z</time>
      </trkpt>
      <trkpt lat="49.4539" lon="0.98187">
        <ele>97</ele>
        <time>2014-10-30T13:49:18Z</time>
      </trkpt>
      <trkpt lat="49.454" lon="0.9818">
        <ele>97</ele>
        <time>2014-10-30T13:49:20Z</time>
      </trkpt>
      <trkpt lat="49.45409" lon="0.98172">
        <ele>97</ele>
        <time>2014-10-30T13:49:22Z</time>
      </trkpt>
      <trkpt lat="49.45418" lon="0.98163">
        <ele>97</ele>
        <time>2014-10-30T13:49:24Z</time>
      </trkpt>
      <trkpt lat="49.45428" lon="0.98155">
        <ele>97</ele>
        <time>2014-10-30T13:49:26Z</time>
      </trkpt>
      <trkpt lat="49.45438" lon="0.98142">
        <ele>97</ele>
        <time>2014-10-30T13:49:28Z</time>
      </trkpt>
      <trkpt lat="49.45447" lon="0.98129">
        <ele>97</ele>
        <time>2014-10-30T13:49:30Z</time>
      </trkpt>
      <trkpt lat="49.45453" lon="0.98119">
        <ele>97</ele>
        <time>2014-10-30T13:49:32Z</time>
      </trkpt>
      <trkpt lat="49.45461" lon="0.98111">
        <ele>97</ele>
        <time>2014-10-30T13:49:36Z</time>
      </trkpt>
      <trkpt lat="49.45469" lon="0.98102">
        <ele>97</ele>
        <time>2014-10-30T13:49:40Z</time>
      </trkpt>
      <trkpt lat="49.45478" lon="0.98092">
        <ele>97</ele>
        <time>2014-10-30T13:49:45Z</time>
      </trkpt>
      <trkpt lat="49.45487" lon="0.98083">
        <ele>97</ele>
        <time>2014-10-30T13:49:50Z</time>
      </trkpt>
      <trkpt lat="49.45496" lon="0.98076">
        <ele>97</ele>
        <time>2014-10-30T13:49:55Z</time>
      </trkpt>
      <trkpt lat="49.45504" lon="0.98069">
        <ele>97</ele>
        <time>2014-10-30T13:50:00Z</time>
      </trkpt>
      <trkpt lat="49.45513" lon="0.98061">
        <ele>104</ele>
        <time>2014-10-30T13:50:05Z</time>
      </trkpt>
      <trkpt lat="49.45522" lon="0.98054">
        <ele>104</ele>
        <time>2014-10-30T13:50:10Z</time>
      </trkpt>
      <trkpt lat="49.4553" lon="0.98048">
        <ele>110</ele>
        <time>2014-10-30T13:50:15Z</time>
      </trkpt>
      <trkpt lat="49.45537" lon="0.98039">
        <ele>110</ele>
        <time>2014-10-30T13:50:20Z</time>
      </trkpt>
      <trkpt lat="49.45544" lon="0.9803">
        <ele>110</ele>
        <time>2014-10-30T13:50:26Z</time>
      </trkpt>
      <trkpt lat="49.45545" lon="0.98015">
        <ele>110</ele>
        <time>2014-10-30T13:50:36Z</time>
      </trkpt>
      <trkpt lat="49.45548" lon="0.98002">
        <ele>119</ele>
        <time>2014-10-30T13:50:49Z</time>
      </trkpt>
      <trkpt lat="49.4554" lon="0.97994">
        <ele>110</ele>
        <time>2014-10-30T13:51:15Z</time>
      </trkpt>
      <trkpt lat="49.45547" lon="0.98004">
        <ele>110</ele>
        <time>2014-10-30T13:51:49Z</time>
      </trkpt>
      <trkpt lat="49.45555" lon="0.98">
        <ele>104</ele>
        <time>2014-10-30T13:51:55Z</time>
      </trkpt>
      <trkpt lat="49.45565" lon="0.97996">
        <ele>104</ele>
        <time>2014-10-30T13:52:04Z</time>
      </trkpt>
      <trkpt lat="49.45574" lon="0.97989">
        <ele>104</ele>
        <time>2014-10-30T13:52:13Z</time>
      </trkpt>
      <trkpt lat="49.45583" lon="0.97981">
        <ele>110</ele>
        <time>2014-10-30T13:52:21Z</time>
      </trkpt>
      <trkpt lat="49.45592" lon="0.97972">
        <ele>110</ele>
        <time>2014-10-30T13:52:28Z</time>
      </trkpt>
      <trkpt lat="49.456" lon="0.97966">
        <ele>116</ele>
        <time>2014-10-30T13:52:35Z</time>
      </trkpt>
      <trkpt lat="49.45609" lon="0.9796">
        <ele>116</ele>
        <time>2014-10-30T13:52:41Z</time>
      </trkpt>
      <trkpt lat="49.45615" lon="0.97948">
        <ele>116</ele>
        <time>2014-10-30T13:52:47Z</time>
      </trkpt>
      <trkpt lat="49.45621" lon="0.97936">
        <ele>116</ele>
        <time>2014-10-30T13:52:54Z</time>
      </trkpt>
      <trkpt lat="49.45628" lon="0.97926">
        <ele>116</ele>
        <time>2014-10-30T13:53:02Z</time>
      </trkpt>
      <trkpt lat="49.45636" lon="0.97917">
        <ele>116</ele>
        <time>2014-10-30T13:53:08Z</time>
      </trkpt>
      <trkpt lat="49.45645" lon="0.97909">
        <ele>116</ele>
        <time>2014-10-30T13:53:15Z</time>
      </trkpt>
      <trkpt lat="49.45653" lon="0.97899">
        <ele>116</ele>
        <time>2014-10-30T13:53:21Z</time>
      </trkpt>
      <trkpt lat="49.45661" lon="0.9789">
        <ele>116</ele>
        <time>2014-10-30T13:53:27Z</time>
      </trkpt>
      <trkpt lat="49.4567" lon="0.97882">
        <ele>116</ele>
        <time>2014-10-30T13:53:33Z</time>
      </trkpt>
      <trkpt lat="49.45677" lon="0.97874">
        <ele>116</ele>
        <time>2014-10-30T13:53:38Z</time>
      </trkpt>
      <trkpt lat="49.45683" lon="0.97863">
        <ele>116</ele>
        <time>2014-10-30T13:53:43Z</time>
      </trkpt>
      <trkpt lat="49.45691" lon="0.97854">
        <ele>116</ele>
        <time>2014-10-30T13:53:49Z</time>
      </trkpt>
      <trkpt lat="49.457" lon="0.97845">
        <ele>116</ele>
        <time>2014-10-30T13:53:54Z</time>
      </trkpt>
      <trkpt lat="49.45708" lon="0.97836">
        <ele>116</ele>
        <time>2014-10-30T13:54:00Z</time>
      </trkpt>
      <trkpt lat="49.45717" lon="0.97827">
        <ele>116</ele>
        <time>2014-10-30T13:54:05Z</time>
      </trkpt>
      <trkpt lat="49.45725" lon="0.97817">
        <ele>116</ele>
        <time>2014-10-30T13:54:09Z</time>
      </trkpt>
      <trkpt lat="49.45734" lon="0.97809">
        <ele>122</ele>
        <time>2014-10-30T13:54:13Z</time>
      </trkpt>
      <trkpt lat="49.45742" lon="0.97797">
        <ele>122</ele>
        <time>2014-10-30T13:54:17Z</time>
      </trkpt>
      <trkpt lat="49.45752" lon="0.97787">
        <ele>122</ele>
        <time>2014-10-30T13:54:22Z</time>
      </trkpt>
      <trkpt lat="49.45759" lon="0.97777">
        <ele>122</ele>
        <time>2014-10-30T13:54:26Z</time>
      </trkpt>
      <trkpt lat="49.45768" lon="0.9777">
        <ele>122</ele>
        <time>2014-10-30T13:54:30Z</time>
      </trkpt>
      <trkpt lat="49.45777" lon="0.97762">
        <ele>122</ele>
        <time>2014-10-30T13:54:35Z</time>
      </trkpt>
      <trkpt lat="49.45787" lon="0.97756">
        <ele>122</ele>
        <time>2014-10-30T13:54:39Z</time>
      </trkpt>
      <trkpt lat="49.45796" lon="0.97756">
        <ele>122</ele>
        <time>2014-10-30T13:54:43Z</time>
      </trkpt>
      <trkpt lat="49.45806" lon="0.97765">
        <ele>128</ele>
        <time>2014-10-30T13:54:48Z</time>
      </trkpt>
      <trkpt lat="49.45814" lon="0.97774">
        <ele>128</ele>
        <time>2014-10-30T13:54:52Z</time>
      </trkpt>
      <trkpt lat="49.45824" lon="0.97781">
        <ele>128</ele>
        <time>2014-10-30T13:54:56Z</time>
      </trkpt>
      <trkpt lat="49.45833" lon="0.97789">
        <ele>128</ele>
        <time>2014-10-30T13:55:00Z</time>
      </trkpt>
      <trkpt lat="49.45843" lon="0.97801">
        <ele>128</ele>
        <time>2014-10-30T13:55:04Z</time>
      </trkpt>
      <trkpt lat="49.45851" lon="0.9781">
        <ele>128</ele>
        <time>2014-10-30T13:55:08Z</time>
      </trkpt>
      <trkpt lat="49.45859" lon="0.97819">
        <ele>136</ele>
        <time>2014-10-30T13:55:12Z</time>
      </trkpt>
      <trkpt lat="49.4587" lon="0.9783">
        <ele>136</ele>
        <time>2014-10-30T13:55:16Z</time>
      </trkpt>
      <trkpt lat="49.45878" lon="0.97838">
        <ele>143</ele>
        <time>2014-10-30T13:55:19Z</time>
      </trkpt>
      <trkpt lat="49.45886" lon="0.97848">
        <ele>143</ele>
        <time>2014-10-30T13:55:22Z</time>
      </trkpt>
      <trkpt lat="49.45895" lon="0.97858">
        <ele>143</ele>
        <time>2014-10-30T13:55:25Z</time>
      </trkpt>
      <trkpt lat="49.45903" lon="0.97868">
        <ele>149</ele>
        <time>2014-10-30T13:55:28Z</time>
      </trkpt>
      <trkpt lat="49.45912" lon="0.97881">
        <ele>149</ele>
        <time>2014-10-30T13:55:31Z</time>
      </trkpt>
      <trkpt lat="49.45923" lon="0.97892">
        <ele>149</ele>
        <time>2014-10-30T13:55:34Z</time>
      </trkpt>
      <trkpt lat="49.45934" lon="0.97902">
        <ele>149</ele>
        <time>2014-10-30T13:55:37Z</time>
      </trkpt>
      <trkpt lat="49.45942" lon="0.97911">
        <ele>149</ele>
        <time>2014-10-30T13:55:40Z</time>
      </trkpt>
      <trkpt lat="49.4595" lon="0.97918">
        <ele>149</ele>
        <time>2014-10-30T13:55:43Z</time>
      </trkpt>
      <trkpt lat="49.45958" lon="0.97926">
        <ele>149</ele>
        <time>2014-10-30T13:55:45Z</time>
      </trkpt>
      <trkpt lat="49.45967" lon="0.97937">
        <ele>149</ele>
        <time>2014-10-30T13:55:48Z</time>
      </trkpt>
      <trkpt lat="49.45978" lon="0.97945">
        <ele>142</ele>
        <time>2014-10-30T13:55:51Z</time>
      </trkpt>
      <trkpt lat="49.45988" lon="0.97952">
        <ele>134</ele>
        <time>2014-10-30T13:55:54Z</time>
      </trkpt>
      <trkpt lat="49.45995" lon="0.97942">
        <ele>127</ele>
        <time>2014-10-30T13:55:57Z</time>
      </trkpt>
      <trkpt lat="49.46001" lon="0.97929">
        <ele>127</ele>
        <time>2014-10-30T13:56:01Z</time>
      </trkpt>
      <trkpt lat="49.46006" lon="0.97916">
        <ele>127</ele>
        <time>2014-10-30T13:56:05Z</time>
      </trkpt>
      <trkpt lat="49.46017" lon="0.97906">
        <ele>127</ele>
        <time>2014-10-30T13:56:09Z</time>
      </trkpt>
      <trkpt lat="49.46025" lon="0.97896">
        <ele>127</ele>
        <time>2014-10-30T13:56:12Z</time>
      </trkpt>
      <trkpt lat="49.46032" lon="0.97884">
        <ele>127</ele>
        <time>2014-10-30T13:56:16Z</time>
      </trkpt>
      <trkpt lat="49.46041" lon="0.97874">
        <ele>127</ele>
        <time>2014-10-30T13:56:21Z</time>
      </trkpt>
      <trkpt lat="49.4605" lon="0.97864">
        <ele>127</ele>
        <time>2014-10-30T13:56:25Z</time>
      </trkpt>
      <trkpt lat="49.46059" lon="0.97855">
        <ele>127</ele>
        <time>2014-10-30T13:56:29Z</time>
      </trkpt>
      <trkpt lat="49.46067" lon="0.97846">
        <ele>127</ele>
        <time>2014-10-30T13:56:33Z</time>
      </trkpt>
      <trkpt lat="49.46075" lon="0.97835">
        <ele>127</ele>
        <time>2014-10-30T13:56:37Z</time>
      </trkpt>
      <trkpt lat="49.46086" lon="0.97823">
        <ele>127</ele>
        <time>2014-10-30T13:56:41Z</time>
      </trkpt>
      <trkpt lat="49.46095" lon="0.97811">
        <ele>133</ele>
        <time>2014-10-30T13:56:44Z</time>
      </trkpt>
      <trkpt lat="49.46104" lon="0.97801">
        <ele>133</ele>
        <time>2014-10-30T13:56:47Z</time>
      </trkpt>
      <trkpt lat="49.46114" lon="0.97791">
        <ele>133</ele>
        <time>2014-10-30T13:56:50Z</time>
      </trkpt>
      <trkpt lat="49.46121" lon="0.97782">
        <ele>133</ele>
        <time>2014-10-30T13:56:53Z</time>
      </trkpt>
      <trkpt lat="49.46128" lon="0.97773">
        <ele>133</ele>
        <time>2014-10-30T13:56:56Z</time>
      </trkpt>
      <trkpt lat="49.46138" lon="0.97768">
        <ele>133</ele>
        <time>2014-10-30T13:57:01Z</time>
      </trkpt>
      <trkpt lat="49.46148" lon="0.9776">
        <ele>126</ele>
        <time>2014-10-30T13:57:06Z</time>
      </trkpt>
      <trkpt lat="49.46156" lon="0.97751">
        <ele>126</ele>
        <time>2014-10-30T13:57:12Z</time>
      </trkpt>
      <trkpt lat="49.4616" lon="0.97739">
        <ele>126</ele>
        <time>2014-10-30T13:57:15Z</time>
      </trkpt>
      <trkpt lat="49.46155" lon="0.97726">
        <ele>119</ele>
        <time>2014-10-30T13:57:20Z</time>
      </trkpt>
      <trkpt lat="49.46146" lon="0.97737">
        <ele>119</ele>
        <time>2014-10-30T13:57:26Z</time>
      </trkpt>
      <trkpt lat="49.46137" lon="0.97746">
        <ele>112</ele>
        <time>2014-10-30T13:57:31Z</time>
      </trkpt>
      <trkpt lat="49.46128" lon="0.97755">
        <ele>112</ele>
        <time>2014-10-30T13:57:36Z</time>
      </trkpt>
      <trkpt lat="49.46121" lon="0.97765">
        <ele>112</ele>
        <time>2014-10-30T13:57:40Z</time>
      </trkpt>
      <trkpt lat="49.46114" lon="0.97775">
        <ele>112</ele>
        <time>2014-10-30T13:57:44Z</time>
      </trkpt>
      <trkpt lat="49.46104" lon="0.97785">
        <ele>112</ele>
        <time>2014-10-30T13:57:49Z</time>
      </trkpt>
      <trkpt lat="49.46097" lon="0.97794">
        <ele>112</ele>
        <time>2014-10-30T13:57:53Z</time>
      </trkpt>
      <trkpt lat="49.46089" lon="0.97803">
        <ele>117</ele>
        <time>2014-10-30T13:57:59Z</time>
      </trkpt>
      <trkpt lat="49.46082" lon="0.97815">
        <ele>117</ele>
        <time>2014-10-30T13:58:05Z</time>
      </trkpt>
      <trkpt lat="49.46074" lon="0.97826">
        <ele>117</ele>
        <time>2014-10-30T13:58:10Z</time>
      </trkpt>
      <trkpt lat="49.46066" lon="0.97837">
        <ele>117</ele>
        <time>2014-10-30T13:58:15Z</time>
      </trkpt>
      <trkpt lat="49.46057" lon="0.97847">
        <ele>123</ele>
        <time>2014-10-30T13:58:19Z</time>
      </trkpt>
      <trkpt lat="49.4605" lon="0.97857">
        <ele>123</ele>
        <time>2014-10-30T13:58:22Z</time>
      </trkpt>
      <trkpt lat="49.46041" lon="0.97863">
        <ele>123</ele>
        <time>2014-10-30T13:58:27Z</time>
      </trkpt>
      <trkpt lat="49.46033" lon="0.97854">
        <ele>139</ele>
        <time>2014-10-30T13:58:43Z</time>
      </trkpt>
      <trkpt lat="49.46029" lon="0.97869">
        <ele>134</ele>
        <time>2014-10-30T13:59:20Z</time>
      </trkpt>
      <trkpt lat="49.46022" lon="0.9788">
        <ele>134</ele>
        <time>2014-10-30T13:59:24Z</time>
      </trkpt>
      <trkpt lat="49.46014" lon="0.97889">
        <ele>134</ele>
        <time>2014-10-30T13:59:29Z</time>
      </trkpt>
      <trkpt lat="49.46006" lon="0.97898">
        <ele>134</ele>
        <time>2014-10-30T13:59:33Z</time>
      </trkpt>
      <trkpt lat="49.46002" lon="0.97913">
        <ele>134</ele>
        <time>2014-10-30T13:59:38Z</time>
      </trkpt>
      <trkpt lat="49.45997" lon="0.97928">
        <ele>142</ele>
        <time>2014-10-30T13:59:43Z</time>
      </trkpt>
      <trkpt lat="49.45997" lon="0.97942">
        <ele>142</ele>
        <time>2014-10-30T13:59:48Z</time>
      </trkpt>
      <trkpt lat="49.46002" lon="0.97957">
        <ele>142</ele>
        <time>2014-10-30T13:59:53Z</time>
      </trkpt>
      <trkpt lat="49.46009" lon="0.97966">
        <ele>151</ele>
        <time>2014-10-30T13:59:58Z</time>
      </trkpt>
      <trkpt lat="49.46017" lon="0.97975">
        <ele>151</ele>
        <time>2014-10-30T14:00:02Z</time>
      </trkpt>
      <trkpt lat="49.46026" lon="0.97982">
        <ele>151</ele>
        <time>2014-10-30T14:00:05Z</time>
      </trkpt>
      <trkpt lat="49.46032" lon="0.97993">
        <ele>151</ele>
        <time>2014-10-30T14:00:08Z</time>
      </trkpt>
      <trkpt lat="49.46042" lon="0.98001">
        <ele>151</ele>
        <time>2014-10-30T14:00:11Z</time>
      </trkpt>
      <trkpt lat="49.46051" lon="0.9801">
        <ele>151</ele>
        <time>2014-10-30T14:00:14Z</time>
      </trkpt>
      <trkpt lat="49.46059" lon="0.98022">
        <ele>151</ele>
        <time>2014-10-30T14:00:18Z</time>
      </trkpt>
      <trkpt lat="49.46065" lon="0.98033">
        <ele>151</ele>
        <time>2014-10-30T14:00:21Z</time>
      </trkpt>
      <trkpt lat="49.46072" lon="0.98043">
        <ele>151</ele>
        <time>2014-10-30T14:00:24Z</time>
      </trkpt>
      <trkpt lat="49.46081" lon="0.98049">
        <ele>151</ele>
        <time>2014-10-30T14:00:27Z</time>
      </trkpt>
      <trkpt lat="49.46091" lon="0.98056">
        <ele>151</ele>
        <time>2014-10-30T14:00:30Z</time>
      </trkpt>
      <trkpt lat="49.46101" lon="0.98067">
        <ele>151</ele>
        <time>2014-10-30T14:00:34Z</time>
      </trkpt>
      <trkpt lat="49.4611" lon="0.9808">
        <ele>151</ele>
        <time>2014-10-30T14:00:37Z</time>
      </trkpt>
      <trkpt lat="49.4612" lon="0.9809">
        <ele>151</ele>
        <time>2014-10-30T14:00:40Z</time>
      </trkpt>
      <trkpt lat="49.4613" lon="0.981">
        <ele>143</ele>
        <time>2014-10-30T14:00:43Z</time>
      </trkpt>
      <trkpt lat="49.46138" lon="0.98109">
        <ele>143</ele>
        <time>2014-10-30T14:00:46Z</time>
      </trkpt>
      <trkpt lat="49.46145" lon="0.98118">
        <ele>143</ele>
        <time>2014-10-30T14:00:49Z</time>
      </trkpt>
      <trkpt lat="49.46156" lon="0.98127">
        <ele>143</ele>
        <time>2014-10-30T14:00:53Z</time>
      </trkpt>
      <trkpt lat="49.46164" lon="0.98137">
        <ele>137</ele>
        <time>2014-10-30T14:00:56Z</time>
      </trkpt>
      <trkpt lat="49.46174" lon="0.98149">
        <ele>137</ele>
        <time>2014-10-30T14:00:59Z</time>
      </trkpt>
      <trkpt lat="49.46183" lon="0.98159">
        <ele>137</ele>
        <time>2014-10-30T14:01:02Z</time>
      </trkpt>
      <trkpt lat="49.4619" lon="0.98169">
        <ele>137</ele>
        <time>2014-10-30T14:01:05Z</time>
      </trkpt>
      <trkpt lat="49.46197" lon="0.98178">
        <ele>131</ele>
        <time>2014-10-30T14:01:07Z</time>
      </trkpt>
      <trkpt lat="49.46209" lon="0.98185">
        <ele>131</ele>
        <time>2014-10-30T14:01:10Z</time>
      </trkpt>
      <trkpt lat="49.46218" lon="0.98193">
        <ele>131</ele>
        <time>2014-10-30T14:01:13Z</time>
      </trkpt>
      <trkpt lat="49.46227" lon="0.98201">
        <ele>131</ele>
        <time>2014-10-30T14:01:16Z</time>
      </trkpt>
      <trkpt lat="49.46235" lon="0.98214">
        <ele>131</ele>
        <time>2014-10-30T14:01:19Z</time>
      </trkpt>
      <trkpt lat="49.46244" lon="0.98224">
        <ele>131</ele>
        <time>2014-10-30T14:01:22Z</time>
      </trkpt>
      <trkpt lat="49.46255" lon="0.98236">
        <ele>131</ele>
        <time>2014-10-30T14:01:26Z</time>
      </trkpt>
      <trkpt lat="49.46266" lon="0.98246">
        <ele>131</ele>
        <time>2014-10-30T14:01:29Z</time>
      </trkpt>
      <trkpt lat="49.46275" lon="0.98257">
        <ele>131</ele>
        <time>2014-10-30T14:01:32Z</time>
      </trkpt>
      <trkpt lat="49.46285" lon="0.98268">
        <ele>125</ele>
        <time>2014-10-30T14:01:35Z</time>
      </trkpt>
      <trkpt lat="49.46294" lon="0.98275">
        <ele>125</ele>
        <time>2014-10-30T14:01:38Z</time>
      </trkpt>
      <trkpt lat="49.46303" lon="0.98287">
        <ele>125</ele>
        <time>2014-10-30T14:01:42Z</time>
      </trkpt>
      <trkpt lat="49.46311" lon="0.98293">
        <ele>125</ele>
        <time>2014-10-30T14:01:45Z</time>
      </trkpt>
      <trkpt lat="49.4632" lon="0.983">
        <ele>125</ele>
        <time>2014-10-30T14:01:48Z</time>
      </trkpt>
      <trkpt lat="49.46329" lon="0.9831">
        <ele>125</ele>
        <time>2014-10-30T14:01:52Z</time>
      </trkpt>
      <trkpt lat="49.4634" lon="0.98319">
        <ele>125</ele>
        <time>2014-10-30T14:01:56Z</time>
      </trkpt>
      <trkpt lat="49.4635" lon="0.98328">
        <ele>125</ele>
        <time>2014-10-30T14:01:59Z</time>
      </trkpt>
      <trkpt lat="49.46358" lon="0.98336">
        <ele>125</ele>
        <time>2014-10-30T14:02:02Z</time>
      </trkpt>
      <trkpt lat="49.46368" lon="0.98347">
        <ele>125</ele>
        <time>2014-10-30T14:02:06Z</time>
      </trkpt>
      <trkpt lat="49.46375" lon="0.98355">
        <ele>130</ele>
        <time>2014-10-30T14:02:09Z</time>
      </trkpt>
      <trkpt lat="49.46383" lon="0.98364">
        <ele>130</ele>
        <time>2014-10-30T14:02:12Z</time>
      </trkpt>
      <trkpt lat="49.4639" lon="0.98373">
        <ele>130</ele>
        <time>2014-10-30T14:02:15Z</time>
      </trkpt>
      <trkpt lat="49.46399" lon="0.98383">
        <ele>137</ele>
        <time>2014-10-30T14:02:19Z</time>
      </trkpt>
      <trkpt lat="49.46407" lon="0.98392">
        <ele>137</ele>
        <time>2014-10-30T14:02:22Z</time>
      </trkpt>
      <trkpt lat="49.46417" lon="0.98402">
        <ele>137</ele>
        <time>2014-10-30T14:02:26Z</time>
      </trkpt>
      <trkpt lat="49.46426" lon="0.9841">
        <ele>137</ele>
        <time>2014-10-30T14:02:30Z</time>
      </trkpt>
      <trkpt lat="49.46434" lon="0.98419">
        <ele>137</ele>
        <time>2014-10-30T14:02:34Z</time>
      </trkpt>
      <trkpt lat="49.46444" lon="0.98428">
        <ele>137</ele>
        <time>2014-10-30T14:02:37Z</time>
      </trkpt>
      <trkpt lat="49.46453" lon="0.98437">
        <ele>137</ele>
        <time>2014-10-30T14:02:40Z</time>
      </trkpt>
      <trkpt lat="49.46461" lon="0.98449">
        <ele>137</ele>
        <time>2014-10-30T14:02:43Z</time>
      </trkpt>
      <trkpt lat="49.46468" lon="0.98461">
        <ele>137</ele>
        <time>2014-10-30T14:02:46Z</time>
      </trkpt>
      <trkpt lat="49.46477" lon="0.98471">
        <ele>130</ele>
        <time>2014-10-30T14:02:49Z</time>
      </trkpt>
      <trkpt lat="49.46485" lon="0.98481">
        <ele>130</ele>
        <time>2014-10-30T14:02:52Z</time>
      </trkpt>
      <trkpt lat="49.46494" lon="0.9849">
        <ele>130</ele>
        <time>2014-10-30T14:02:55Z</time>
      </trkpt>
      <trkpt lat="49.46503" lon="0.985">
        <ele>130</ele>
        <time>2014-10-30T14:02:58Z</time>
      </trkpt>
      <trkpt lat="49.46513" lon="0.9851">
        <ele>124</ele>
        <time>2014-10-30T14:03:01Z</time>
      </trkpt>
      <trkpt lat="49.46526" lon="0.98518">
        <ele>124</ele>
        <time>2014-10-30T14:03:04Z</time>
      </trkpt>
      <trkpt lat="49.46536" lon="0.98526">
        <ele>124</ele>
        <time>2014-10-30T14:03:07Z</time>
      </trkpt>
      <trkpt lat="49.46546" lon="0.98534">
        <ele>124</ele>
        <time>2014-10-30T14:03:10Z</time>
      </trkpt>
      <trkpt lat="49.46556" lon="0.98544">
        <ele>124</ele>
        <time>2014-10-30T14:03:13Z</time>
      </trkpt>
      <trkpt lat="49.46566" lon="0.98555">
        <ele>124</ele>
        <time>2014-10-30T14:03:16Z</time>
      </trkpt>
      <trkpt lat="49.46576" lon="0.98568">
        <ele>124</ele>
        <time>2014-10-30T14:03:19Z</time>
      </trkpt>
      <trkpt lat="49.46583" lon="0.98585">
        <ele>124</ele>
        <time>2014-10-30T14:03:22Z</time>
      </trkpt>
      <trkpt lat="49.46589" lon="0.98602">
        <ele>124</ele>
        <time>2014-10-30T14:03:25Z</time>
      </trkpt>
      <trkpt lat="49.46594" lon="0.98619">
        <ele>124</ele>
        <time>2014-10-30T14:03:28Z</time>
      </trkpt>
      <trkpt lat="49.46599" lon="0.98638">
        <ele>124</ele>
        <time>2014-10-30T14:03:31Z</time>
      </trkpt>
      <trkpt lat="49.46603" lon="0.98656">
        <ele>124</ele>
        <time>2014-10-30T14:03:34Z</time>
      </trkpt>
      <trkpt lat="49.46608" lon="0.98673">
        <ele>124</ele>
        <time>2014-10-30T14:03:37Z</time>
      </trkpt>
      <trkpt lat="49.46616" lon="0.98688">
        <ele>124</ele>
        <time>2014-10-30T14:03:40Z</time>
      </trkpt>
      <trkpt lat="49.46622" lon="0.98698">
        <ele>124</ele>
        <time>2014-10-30T14:03:42Z</time>
      </trkpt>
      <trkpt lat="49.46632" lon="0.98711">
        <ele>124</ele>
        <time>2014-10-30T14:03:45Z</time>
      </trkpt>
      <trkpt lat="49.4664" lon="0.98726">
        <ele>124</ele>
        <time>2014-10-30T14:03:48Z</time>
      </trkpt>
      <trkpt lat="49.46646" lon="0.98737">
        <ele>124</ele>
        <time>2014-10-30T14:03:50Z</time>
      </trkpt>
      <trkpt lat="49.46653" lon="0.98746">
        <ele>124</ele>
        <time>2014-10-30T14:03:52Z</time>
      </trkpt>
      <trkpt lat="49.4666" lon="0.98756">
        <ele>124</ele>
        <time>2014-10-30T14:03:54Z</time>
      </trkpt>
      <trkpt lat="49.4667" lon="0.98771">
        <ele>119</ele>
        <time>2014-10-30T14:03:57Z</time>
      </trkpt>
      <trkpt lat="49.46676" lon="0.98783">
        <ele>119</ele>
        <time>2014-10-30T14:03:59Z</time>
      </trkpt>
      <trkpt lat="49.4668" lon="0.98801">
        <ele>119</ele>
        <time>2014-10-30T14:04:01Z</time>
      </trkpt>
      <trkpt lat="49.4668" lon="0.9882">
        <ele>119</ele>
        <time>2014-10-30T14:04:03Z</time>
      </trkpt>
      <trkpt lat="49.46679" lon="0.98837">
        <ele>119</ele>
        <time>2014-10-30T14:04:05Z</time>
      </trkpt>
      <trkpt lat="49.46676" lon="0.98854">
        <ele>119</ele>
        <time>2014-10-30T14:04:07Z</time>
      </trkpt>
      <trkpt lat="49.46674" lon="0.9887">
        <ele>119</ele>
        <time>2014-10-30T14:04:09Z</time>
      </trkpt>
      <trkpt lat="49.46673" lon="0.98884">
        <ele>119</ele>
        <time>2014-10-30T14:04:11Z</time>
      </trkpt>
      <trkpt lat="49.46671" lon="0.98904">
        <ele>119</ele>
        <time>2014-10-30T14:04:14Z</time>
      </trkpt>
      <trkpt lat="49.46669" lon="0.98922">
        <ele>114</ele>
        <time>2014-10-30T14:04:17Z</time>
      </trkpt>
      <trkpt lat="49.46666" lon="0.9894">
        <ele>114</ele>
        <time>2014-10-30T14:04:20Z</time>
      </trkpt>
      <trkpt lat="49.46662" lon="0.98956">
        <ele>114</ele>
        <time>2014-10-30T14:04:23Z</time>
      </trkpt>
      <trkpt lat="49.46659" lon="0.98973">
        <ele>114</ele>
        <time>2014-10-30T14:04:26Z</time>
      </trkpt>
      <trkpt lat="49.46656" lon="0.98993">
        <ele>114</ele>
        <time>2014-10-30T14:04:29Z</time>
      </trkpt>
      <trkpt lat="49.46654" lon="0.99011">
        <ele>114</ele>
        <time>2014-10-30T14:04:32Z</time>
      </trkpt>
      <trkpt lat="49.46653" lon="0.99032">
        <ele>114</ele>
        <time>2014-10-30T14:04:35Z</time>
      </trkpt>
      <trkpt lat="49.46652" lon="0.99046">
        <ele>114</ele>
        <time>2014-10-30T14:04:37Z</time>
      </trkpt>
      <trkpt lat="49.46652" lon="0.99061">
        <ele>114</ele>
        <time>2014-10-30T14:04:39Z</time>
      </trkpt>
      <trkpt lat="49.46652" lon="0.99076">
        <ele>114</ele>
        <time>2014-10-30T14:04:41Z</time>
      </trkpt>
      <trkpt lat="49.46651" lon="0.99091">
        <ele>114</ele>
        <time>2014-10-30T14:04:43Z</time>
      </trkpt>
      <trkpt lat="49.46651" lon="0.99105">
        <ele>114</ele>
        <time>2014-10-30T14:04:45Z</time>
      </trkpt>
      <trkpt lat="49.46652" lon="0.99119">
        <ele>114</ele>
        <time>2014-10-30T14:04:47Z</time>
      </trkpt>
      <trkpt lat="49.46653" lon="0.99134">
        <ele>114</ele>
        <time>2014-10-30T14:04:49Z</time>
      </trkpt>
      <trkpt lat="49.46657" lon="0.99152">
        <ele>114</ele>
        <time>2014-10-30T14:04:52Z</time>
      </trkpt>
      <trkpt lat="49.46664" lon="0.99165">
        <ele>114</ele>
        <time>2014-10-30T14:04:55Z</time>
      </trkpt>
      <trkpt lat="49.46671" lon="0.99175">
        <ele>114</ele>
        <time>2014-10-30T14:04:58Z</time>
      </trkpt>
      <trkpt lat="49.46679" lon="0.99187">
        <ele>114</ele>
        <time>2014-10-30T14:05:02Z</time>
      </trkpt>
      <trkpt lat="49.46687" lon="0.99196">
        <ele>114</ele>
        <time>2014-10-30T14:05:07Z</time>
      </trkpt>
      <trkpt lat="49.46692" lon="0.99208">
        <ele>120</ele>
        <time>2014-10-30T14:05:14Z</time>
      </trkpt>
      <trkpt lat="49.46701" lon="0.99214">
        <ele>120</ele>
        <time>2014-10-30T14:05:19Z</time>
      </trkpt>
      <trkpt lat="49.46711" lon="0.99214">
        <ele>120</ele>
        <time>2014-10-30T14:05:22Z</time>
      </trkpt>
      <trkpt lat="49.4672" lon="0.99216">
        <ele>115</ele>
        <time>2014-10-30T14:05:25Z</time>
      </trkpt>
      <trkpt lat="49.46729" lon="0.99217">
        <ele>115</ele>
        <time>2014-10-30T14:05:28Z</time>
      </trkpt>
      <trkpt lat="49.46738" lon="0.99221">
        <ele>115</ele>
        <time>2014-10-30T14:05:31Z</time>
      </trkpt>
      <trkpt lat="49.46746" lon="0.99228">
        <ele>115</ele>
        <time>2014-10-30T14:05:34Z</time>
      </trkpt>
      <trkpt lat="49.46755" lon="0.99235">
        <ele>115</ele>
        <time>2014-10-30T14:05:37Z</time>
      </trkpt>
      <trkpt lat="49.46762" lon="0.99244">
        <ele>115</ele>
        <time>2014-10-30T14:05:40Z</time>
      </trkpt>
      <trkpt lat="49.4677" lon="0.99253">
        <ele>115</ele>
        <time>2014-10-30T14:05:43Z</time>
      </trkpt>
      <trkpt lat="49.46779" lon="0.9926">
        <ele>115</ele>
        <time>2014-10-30T14:05:46Z</time>
      </trkpt>
      <trkpt lat="49.4679" lon="0.99265">
        <ele>115</ele>
        <time>2014-10-30T14:05:49Z</time>
      </trkpt>
      <trkpt lat="49.46799" lon="0.99273">
        <ele>115</ele>
        <time>2014-10-30T14:05:52Z</time>
      </trkpt>
      <trkpt lat="49.46808" lon="0.99281">
        <ele>115</ele>
        <time>2014-10-30T14:05:55Z</time>
      </trkpt>
      <trkpt lat="49.46818" lon="0.99288">
        <ele>115</ele>
        <time>2014-10-30T14:05:58Z</time>
      </trkpt>
      <trkpt lat="49.46827" lon="0.99297">
        <ele>115</ele>
        <time>2014-10-30T14:06:01Z</time>
      </trkpt>
      <trkpt lat="49.46837" lon="0.99303">
        <ele>115</ele>
        <time>2014-10-30T14:06:04Z</time>
      </trkpt>
      <trkpt lat="49.46848" lon="0.99304">
        <ele>115</ele>
        <time>2014-10-30T14:06:07Z</time>
      </trkpt>
      <trkpt lat="49.46858" lon="0.99306">
        <ele>115</ele>
        <time>2014-10-30T14:06:10Z</time>
      </trkpt>
      <trkpt lat="49.46869" lon="0.99308">
        <ele>115</ele>
        <time>2014-10-30T14:06:13Z</time>
      </trkpt>
      <trkpt lat="49.4688" lon="0.99309">
        <ele>115</ele>
        <time>2014-10-30T14:06:16Z</time>
      </trkpt>
      <trkpt lat="49.4689" lon="0.99311">
        <ele>115</ele>
        <time>2014-10-30T14:06:19Z</time>
      </trkpt>
      <trkpt lat="49.46899" lon="0.9932">
        <ele>115</ele>
        <time>2014-10-30T14:06:22Z</time>
      </trkpt>
      <trkpt lat="49.46906" lon="0.99329">
        <ele>115</ele>
        <time>2014-10-30T14:06:25Z</time>
      </trkpt>
      <trkpt lat="49.46914" lon="0.99337">
        <ele>120</ele>
        <time>2014-10-30T14:06:28Z</time>
      </trkpt>
      <trkpt lat="49.46923" lon="0.99345">
        <ele>120</ele>
        <time>2014-10-30T14:06:31Z</time>
      </trkpt>
      <trkpt lat="49.46931" lon="0.99352">
        <ele>120</ele>
        <time>2014-10-30T14:06:34Z</time>
      </trkpt>
      <trkpt lat="49.46941" lon="0.99358">
        <ele>120</ele>
        <time>2014-10-30T14:06:37Z</time>
      </trkpt>
      <trkpt lat="49.46951" lon="0.99365">
        <ele>120</ele>
        <time>2014-10-30T14:06:40Z</time>
      </trkpt>
      <trkpt lat="49.4696" lon="0.99373">
        <ele>120</ele>
        <time>2014-10-30T14:06:43Z</time>
      </trkpt>
      <trkpt lat="49.46968" lon="0.99382">
        <ele>120</ele>
        <time>2014-10-30T14:06:46Z</time>
      </trkpt>
      <trkpt lat="49.46979" lon="0.99385">
        <ele>120</ele>
        <time>2014-10-30T14:06:49Z</time>
      </trkpt>
      <trkpt lat="49.46991" lon="0.99385">
        <ele>120</ele>
        <time>2014-10-30T14:06:52Z</time>
      </trkpt>
      <trkpt lat="49.47001" lon="0.99391">
        <ele>120</ele>
        <time>2014-10-30T14:06:55Z</time>
      </trkpt>
      <trkpt lat="49.4701" lon="0.994">
        <ele>120</ele>
        <time>2014-10-30T14:06:58Z</time>
      </trkpt>
      <trkpt lat="49.47019" lon="0.99409">
        <ele>120</ele>
        <time>2014-10-30T14:07:01Z</time>
      </trkpt>
      <trkpt lat="49.47027" lon="0.99418">
        <ele>120</ele>
        <time>2014-10-30T14:07:04Z</time>
      </trkpt>
      <trkpt lat="49.47037" lon="0.99421">
        <ele>120</ele>
        <time>2014-10-30T14:07:07Z</time>
      </trkpt>
      <trkpt lat="49.47047" lon="0.99426">
        <ele>120</ele>
        <time>2014-10-30T14:07:10Z</time>
      </trkpt>
      <trkpt lat="49.47058" lon="0.99431">
        <ele>114</ele>
        <time>2014-10-30T14:07:14Z</time>
      </trkpt>
      <trkpt lat="49.4707" lon="0.99432">
        <ele>114</ele>
        <time>2014-10-30T14:07:18Z</time>
      </trkpt>
      <trkpt lat="49.4708" lon="0.99429">
        <ele>114</ele>
        <time>2014-10-30T14:07:21Z</time>
      </trkpt>
      <trkpt lat="49.47092" lon="0.99428">
        <ele>114</ele>
        <time>2014-10-30T14:07:24Z</time>
      </trkpt>
      <trkpt lat="49.47104" lon="0.99434">
        <ele>114</ele>
        <time>2014-10-30T14:07:27Z</time>
      </trkpt>
      <trkpt lat="49.47114" lon="0.99444">
        <ele>114</ele>
        <time>2014-10-30T14:07:30Z</time>
      </trkpt>
      <trkpt lat="49.47121" lon="0.99452">
        <ele>114</ele>
        <time>2014-10-30T14:07:32Z</time>
      </trkpt>
      <trkpt lat="49.47129" lon="0.99465">
        <ele>114</ele>
        <time>2014-10-30T14:07:35Z</time>
      </trkpt>
      <trkpt lat="49.47134" lon="0.99478">
        <ele>114</ele>
        <time>2014-10-30T14:07:38Z</time>
      </trkpt>
      <trkpt lat="49.4713" lon="0.99493">
        <ele>114</ele>
        <time>2014-10-30T14:07:43Z</time>
      </trkpt>
      <trkpt lat="49.47125" lon="0.99507">
        <ele>114</ele>
        <time>2014-10-30T14:07:48Z</time>
      </trkpt>
      <trkpt lat="49.4712" lon="0.99522">
        <ele>114</ele>
        <time>2014-10-30T14:07:52Z</time>
      </trkpt>
      <trkpt lat="49.47118" lon="0.99537">
        <ele>114</ele>
        <time>2014-10-30T14:07:56Z</time>
      </trkpt>
      <trkpt lat="49.47114" lon="0.99553">
        <ele>114</ele>
        <time>2014-10-30T14:08:00Z</time>
      </trkpt>
      <trkpt lat="49.47111" lon="0.9957">
        <ele>114</ele>
        <time>2014-10-30T14:08:04Z</time>
      </trkpt>
      <trkpt lat="49.47108" lon="0.99585">
        <ele>114</ele>
        <time>2014-10-30T14:08:07Z</time>
      </trkpt>
      <trkpt lat="49.47107" lon="0.99599">
        <ele>114</ele>
        <time>2014-10-30T14:08:10Z</time>
      </trkpt>
      <trkpt lat="49.47105" lon="0.99615">
        <ele>114</ele>
        <time>2014-10-30T14:08:13Z</time>
      </trkpt>
      <trkpt lat="49.47102" lon="0.9963">
        <ele>114</ele>
        <time>2014-10-30T14:08:16Z</time>
      </trkpt>
      <trkpt lat="49.471" lon="0.99645">
        <ele>114</ele>
        <time>2014-10-30T14:08:19Z</time>
      </trkpt>
      <trkpt lat="49.47098" lon="0.99661">
        <ele>114</ele>
        <time>2014-10-30T14:08:22Z</time>
      </trkpt>
      <trkpt lat="49.47096" lon="0.99675">
        <ele>114</ele>
        <time>2014-10-30T14:08:25Z</time>
      </trkpt>
      <trkpt lat="49.47094" lon="0.99691">
        <ele>114</ele>
        <time>2014-10-30T14:08:28Z</time>
      </trkpt>
      <trkpt lat="49.47092" lon="0.99706">
        <ele>114</ele>
        <time>2014-10-30T14:08:31Z</time>
      </trkpt>
      <trkpt lat="49.47089" lon="0.99721">
        <ele>114</ele>
        <time>2014-10-30T14:08:34Z</time>
      </trkpt>
      <trkpt lat="49.47086" lon="0.99736">
        <ele>114</ele>
        <time>2014-10-30T14:08:37Z</time>
      </trkpt>
      <trkpt lat="49.47084" lon="0.99752">
        <ele>114</ele>
        <time>2014-10-30T14:08:40Z</time>
      </trkpt>
      <trkpt lat="49.47083" lon="0.99766">
        <ele>119</ele>
        <time>2014-10-30T14:08:43Z</time>
      </trkpt>
      <trkpt lat="49.4708" lon="0.99781">
        <ele>119</ele>
        <time>2014-10-30T14:08:46Z</time>
      </trkpt>
      <trkpt lat="49.47077" lon="0.99796">
        <ele>119</ele>
        <time>2014-10-30T14:08:49Z</time>
      </trkpt>
      <trkpt lat="49.47075" lon="0.99811">
        <ele>119</ele>
        <time>2014-10-30T14:08:52Z</time>
      </trkpt>
      <trkpt lat="49.47072" lon="0.99825">
        <ele>119</ele>
        <time>2014-10-30T14:08:55Z</time>
      </trkpt>
      <trkpt lat="49.4707" lon="0.99842">
        <ele>119</ele>
        <time>2014-10-30T14:08:58Z</time>
      </trkpt>
      <trkpt lat="49.47067" lon="0.99857">
        <ele>119</ele>
        <time>2014-10-30T14:09:01Z</time>
      </trkpt>
      <trkpt lat="49.47064" lon="0.99872">
        <ele>119</ele>
        <time>2014-10-30T14:09:04Z</time>
      </trkpt>
      <trkpt lat="49.47061" lon="0.99887">
        <ele>119</ele>
        <time>2014-10-30T14:09:07Z</time>
      </trkpt>
      <trkpt lat="49.47059" lon="0.99903">
        <ele>119</ele>
        <time>2014-10-30T14:09:10Z</time>
      </trkpt>
      <trkpt lat="49.47057" lon="0.99918">
        <ele>119</ele>
        <time>2014-10-30T14:09:13Z</time>
      </trkpt>
      <trkpt lat="49.47054" lon="0.99933">
        <ele>119</ele>
        <time>2014-10-30T14:09:16Z</time>
      </trkpt>
      <trkpt lat="49.47051" lon="0.99948">
        <ele>119</ele>
        <time>2014-10-30T14:09:19Z</time>
      </trkpt>
      <trkpt lat="49.47049" lon="0.99963">
        <ele>119</ele>
        <time>2014-10-30T14:09:22Z</time>
      </trkpt>
      <trkpt lat="49.47046" lon="0.99977">
        <ele>119</ele>
        <time>2014-10-30T14:09:25Z</time>
      </trkpt>
      <trkpt lat="49.47043" lon="0.99992">
        <ele>119</ele>
        <time>2014-10-30T14:09:29Z</time>
      </trkpt>
      <trkpt lat="49.47042" lon="1.00009">
        <ele>119</ele>
        <time>2014-10-30T14:09:35Z</time>
      </trkpt>
      <trkpt lat="49.47039" lon="1.00022">
        <ele>119</ele>
        <time>2014-10-30T14:09:38Z</time>
      </trkpt>
      <trkpt lat="49.47036" lon="1.00036">
        <ele>119</ele>
        <time>2014-10-30T14:09:41Z</time>
      </trkpt>
      <trkpt lat="49.47033" lon="1.00051">
        <ele>119</ele>
        <time>2014-10-30T14:09:44Z</time>
      </trkpt>
      <trkpt lat="49.4703" lon="1.00066">
        <ele>119</ele>
        <time>2014-10-30T14:09:47Z</time>
      </trkpt>
      <trkpt lat="49.47029" lon="1.00081">
        <ele>119</ele>
        <time>2014-10-30T14:09:50Z</time>
      </trkpt>
      <trkpt lat="49.47026" lon="1.00098">
        <ele>125</ele>
        <time>2014-10-30T14:09:53Z</time>
      </trkpt>
      <trkpt lat="49.47023" lon="1.00115">
        <ele>125</ele>
        <time>2014-10-30T14:09:56Z</time>
      </trkpt>
      <trkpt lat="49.47022" lon="1.00133">
        <ele>125</ele>
        <time>2014-10-30T14:09:59Z</time>
      </trkpt>
      <trkpt lat="49.47018" lon="1.00151">
        <ele>125</ele>
        <time>2014-10-30T14:10:02Z</time>
      </trkpt>
      <trkpt lat="49.47016" lon="1.00168">
        <ele>125</ele>
        <time>2014-10-30T14:10:05Z</time>
      </trkpt>
      <trkpt lat="49.47013" lon="1.00186">
        <ele>125</ele>
        <time>2014-10-30T14:10:08Z</time>
      </trkpt>
      <trkpt lat="49.4701" lon="1.00205">
        <ele>125</ele>
        <time>2014-10-30T14:10:11Z</time>
      </trkpt>
      <trkpt lat="49.47008" lon="1.00223">
        <ele>125</ele>
        <time>2014-10-30T14:10:14Z</time>
      </trkpt>
      <trkpt lat="49.47005" lon="1.00241">
        <ele>125</ele>
        <time>2014-10-30T14:10:17Z</time>
      </trkpt>
      <trkpt lat="49.47002" lon="1.00258">
        <ele>125</ele>
        <time>2014-10-30T14:10:20Z</time>
      </trkpt>
      <trkpt lat="49.47" lon="1.00276">
        <ele>125</ele>
        <time>2014-10-30T14:10:23Z</time>
      </trkpt>
      <trkpt lat="49.46998" lon="1.00292">
        <ele>125</ele>
        <time>2014-10-30T14:10:26Z</time>
      </trkpt>
      <trkpt lat="49.46995" lon="1.0031">
        <ele>125</ele>
        <time>2014-10-30T14:10:29Z</time>
      </trkpt>
      <trkpt lat="49.46993" lon="1.00327">
        <ele>125</ele>
        <time>2014-10-30T14:10:32Z</time>
      </trkpt>
      <trkpt lat="49.4699" lon="1.00344">
        <ele>125</ele>
        <time>2014-10-30T14:10:35Z</time>
      </trkpt>
      <trkpt lat="49.46988" lon="1.00362">
        <ele>130</ele>
        <time>2014-10-30T14:10:38Z</time>
      </trkpt>
      <trkpt lat="49.46986" lon="1.00378">
        <ele>130</ele>
        <time>2014-10-30T14:10:41Z</time>
      </trkpt>
      <trkpt lat="49.46984" lon="1.00394">
        <ele>130</ele>
        <time>2014-10-30T14:10:44Z</time>
      </trkpt>
      <trkpt lat="49.46982" lon="1.0041">
        <ele>130</ele>
        <time>2014-10-30T14:10:47Z</time>
      </trkpt>
      <trkpt lat="49.46979" lon="1.00426">
        <ele>130</ele>
        <time>2014-10-30T14:10:50Z</time>
      </trkpt>
      <trkpt lat="49.46977" lon="1.00443">
        <ele>130</ele>
        <time>2014-10-30T14:10:53Z</time>
      </trkpt>
      <trkpt lat="49.46975" lon="1.0046">
        <ele>130</ele>
        <time>2014-10-30T14:10:56Z</time>
      </trkpt>
      <trkpt lat="49.46972" lon="1.00477">
        <ele>130</ele>
        <time>2014-10-30T14:10:59Z</time>
      </trkpt>
      <trkpt lat="49.46971" lon="1.00493">
        <ele>130</ele>
        <time>2014-10-30T14:11:02Z</time>
      </trkpt>
      <trkpt lat="49.46969" lon="1.0051">
        <ele>130</ele>
        <time>2014-10-30T14:11:05Z</time>
      </trkpt>
      <trkpt lat="49.46967" lon="1.00526">
        <ele>130</ele>
        <time>2014-10-30T14:11:08Z</time>
      </trkpt>
      <trkpt lat="49.46965" lon="1.00543">
        <ele>130</ele>
        <time>2014-10-30T14:11:11Z</time>
      </trkpt>
      <trkpt lat="49.46963" lon="1.0056">
        <ele>130</ele>
        <time>2014-10-30T14:11:14Z</time>
      </trkpt>
      <trkpt lat="49.46961" lon="1.00578">
        <ele>130</ele>
        <time>2014-10-30T14:11:17Z</time>
      </trkpt>
      <trkpt lat="49.4696" lon="1.00594">
        <ele>130</ele>
        <time>2014-10-30T14:11:20Z</time>
      </trkpt>
      <trkpt lat="49.46957" lon="1.00611">
        <ele>130</ele>
        <time>2014-10-30T14:11:23Z</time>
      </trkpt>
      <trkpt lat="49.46955" lon="1.00629">
        <ele>130</ele>
        <time>2014-10-30T14:11:26Z</time>
      </trkpt>
      <trkpt lat="49.46953" lon="1.00647">
        <ele>130</ele>
        <time>2014-10-30T14:11:29Z</time>
      </trkpt>
      <trkpt lat="49.46951" lon="1.00665">
        <ele>130</ele>
        <time>2014-10-30T14:11:32Z</time>
      </trkpt>
      <trkpt lat="49.46949" lon="1.00683">
        <ele>130</ele>
        <time>2014-10-30T14:11:35Z</time>
      </trkpt>
      <trkpt lat="49.46947" lon="1.00701">
        <ele>130</ele>
        <time>2014-10-30T14:11:38Z</time>
      </trkpt>
      <trkpt lat="49.46945" lon="1.0072">
        <ele>130</ele>
        <time>2014-10-30T14:11:41Z</time>
      </trkpt>
      <trkpt lat="49.46942" lon="1.0074">
        <ele>130</ele>
        <time>2014-10-30T14:11:44Z</time>
      </trkpt>
      <trkpt lat="49.4694" lon="1.0076">
        <ele>130</ele>
        <time>2014-10-30T14:11:47Z</time>
      </trkpt>
      <trkpt lat="49.46938" lon="1.0078">
        <ele>130</ele>
        <time>2014-10-30T14:11:50Z</time>
      </trkpt>
      <trkpt lat="49.46936" lon="1.008">
        <ele>130</ele>
        <time>2014-10-30T14:11:53Z</time>
      </trkpt>
      <trkpt lat="49.46934" lon="1.0082">
        <ele>130</ele>
        <time>2014-10-30T14:11:56Z</time>
      </trkpt>
      <trkpt lat="49.46931" lon="1.0084">
        <ele>135</ele>
        <time>2014-10-30T14:11:59Z</time>
      </trkpt>
      <trkpt lat="49.46929" lon="1.00854">
        <ele>135</ele>
        <time>2014-10-30T14:12:01Z</time>
      </trkpt>
      <trkpt lat="49.46926" lon="1.00867">
        <ele>135</ele>
        <time>2014-10-30T14:12:03Z</time>
      </trkpt>
      <trkpt lat="49.46919" lon="1.00886">
        <ele>135</ele>
        <time>2014-10-30T14:12:06Z</time>
      </trkpt>
      <trkpt lat="49.46913" lon="1.00897">
        <ele>135</ele>
        <time>2014-10-30T14:12:08Z</time>
      </trkpt>
      <trkpt lat="49.46906" lon="1.00908">
        <ele>135</ele>
        <time>2014-10-30T14:12:10Z</time>
      </trkpt>
      <trkpt lat="49.46899" lon="1.00918">
        <ele>135</ele>
        <time>2014-10-30T14:12:12Z</time>
      </trkpt>
      <trkpt lat="49.46889" lon="1.00932">
        <ele>135</ele>
        <time>2014-10-30T14:12:15Z</time>
      </trkpt>
      <trkpt lat="49.46882" lon="1.00943">
        <ele>135</ele>
        <time>2014-10-30T14:12:17Z</time>
      </trkpt>
      <trkpt lat="49.46875" lon="1.00953">
        <ele>135</ele>
        <time>2014-10-30T14:12:19Z</time>
      </trkpt>
      <trkpt lat="49.46868" lon="1.00964">
        <ele>135</ele>
        <time>2014-10-30T14:12:21Z</time>
      </trkpt>
      <trkpt lat="49.4686" lon="1.00975">
        <ele>130</ele>
        <time>2014-10-30T14:12:23Z</time>
      </trkpt>
      <trkpt lat="49.46852" lon="1.00986">
        <ele>130</ele>
        <time>2014-10-30T14:12:25Z</time>
      </trkpt>
      <trkpt lat="49.46845" lon="1.00997">
        <ele>130</ele>
        <time>2014-10-30T14:12:27Z</time>
      </trkpt>
      <trkpt lat="49.46837" lon="1.01008">
        <ele>130</ele>
        <time>2014-10-30T14:12:29Z</time>
      </trkpt>
      <trkpt lat="49.46829" lon="1.0102">
        <ele>130</ele>
        <time>2014-10-30T14:12:31Z</time>
      </trkpt>
      <trkpt lat="49.46821" lon="1.01032">
        <ele>130</ele>
        <time>2014-10-30T14:12:33Z</time>
      </trkpt>
      <trkpt lat="49.46811" lon="1.01046">
        <ele>130</ele>
        <time>2014-10-30T14:12:35Z</time>
      </trkpt>
      <trkpt lat="49.46801" lon="1.01061">
        <ele>124</ele>
        <time>2014-10-30T14:12:37Z</time>
      </trkpt>
      <trkpt lat="49.46792" lon="1.01076">
        <ele>124</ele>
        <time>2014-10-30T14:12:39Z</time>
      </trkpt>
      <trkpt lat="49.46782" lon="1.01089">
        <ele>124</ele>
        <time>2014-10-30T14:12:41Z</time>
      </trkpt>
      <trkpt lat="49.46772" lon="1.01103">
        <ele>124</ele>
        <time>2014-10-30T14:12:43Z</time>
      </trkpt>
      <trkpt lat="49.46762" lon="1.01116">
        <ele>124</ele>
        <time>2014-10-30T14:12:45Z</time>
      </trkpt>
      <trkpt lat="49.46751" lon="1.01127">
        <ele>124</ele>
        <time>2014-10-30T14:12:47Z</time>
      </trkpt>
      <trkpt lat="49.46742" lon="1.01134">
        <ele>124</ele>
        <time>2014-10-30T14:12:49Z</time>
      </trkpt>
      <trkpt lat="49.46731" lon="1.01147">
        <ele>124</ele>
        <time>2014-10-30T14:12:52Z</time>
      </trkpt>
      <trkpt lat="49.46725" lon="1.01157">
        <ele>124</ele>
        <time>2014-10-30T14:12:54Z</time>
      </trkpt>
      <trkpt lat="49.46717" lon="1.01169">
        <ele>124</ele>
        <time>2014-10-30T14:12:57Z</time>
      </trkpt>
      <trkpt lat="49.46708" lon="1.01185">
        <ele>124</ele>
        <time>2014-10-30T14:13:00Z</time>
      </trkpt>
      <trkpt lat="49.467" lon="1.01202">
        <ele>124</ele>
        <time>2014-10-30T14:13:03Z</time>
      </trkpt>
      <trkpt lat="49.46694" lon="1.01213">
        <ele>124</ele>
        <time>2014-10-30T14:13:05Z</time>
      </trkpt>
      <trkpt lat="49.46687" lon="1.01223">
        <ele>124</ele>
        <time>2014-10-30T14:13:07Z</time>
      </trkpt>
      <trkpt lat="49.46681" lon="1.01234">
        <ele>124</ele>
        <time>2014-10-30T14:13:09Z</time>
      </trkpt>
      <trkpt lat="49.46672" lon="1.01247">
        <ele>124</ele>
        <time>2014-10-30T14:13:12Z</time>
      </trkpt>
      <trkpt lat="49.46663" lon="1.01259">
        <ele>124</ele>
        <time>2014-10-30T14:13:15Z</time>
      </trkpt>
      <trkpt lat="49.46654" lon="1.01268">
        <ele>124</ele>
        <time>2014-10-30T14:13:18Z</time>
      </trkpt>
      <trkpt lat="49.46645" lon="1.01279">
        <ele>124</ele>
        <time>2014-10-30T14:13:21Z</time>
      </trkpt>
      <trkpt lat="49.46636" lon="1.0129">
        <ele>124</ele>
        <time>2014-10-30T14:13:24Z</time>
      </trkpt>
      <trkpt lat="49.46628" lon="1.01302">
        <ele>124</ele>
        <time>2014-10-30T14:13:27Z</time>
      </trkpt>
      <trkpt lat="49.46619" lon="1.01316">
        <ele>124</ele>
        <time>2014-10-30T14:13:30Z</time>
      </trkpt>
      <trkpt lat="49.46609" lon="1.01328">
        <ele>124</ele>
        <time>2014-10-30T14:13:33Z</time>
      </trkpt>
      <trkpt lat="49.466" lon="1.01341">
        <ele>124</ele>
        <time>2014-10-30T14:13:36Z</time>
      </trkpt>
      <trkpt lat="49.4659" lon="1.01353">
        <ele>124</ele>
        <time>2014-10-30T14:13:39Z</time>
      </trkpt>
      <trkpt lat="49.4658" lon="1.01366">
        <ele>124</ele>
        <time>2014-10-30T14:13:42Z</time>
      </trkpt>
      <trkpt lat="49.46567" lon="1.01384">
        <ele>124</ele>
        <time>2014-10-30T14:13:46Z</time>
      </trkpt>
      <trkpt lat="49.46558" lon="1.01398">
        <ele>124</ele>
        <time>2014-10-30T14:13:49Z</time>
      </trkpt>
      <trkpt lat="49.4655" lon="1.01406">
        <ele>124</ele>
        <time>2014-10-30T14:13:51Z</time>
      </trkpt>
      <trkpt lat="49.46543" lon="1.01415">
        <ele>124</ele>
        <time>2014-10-30T14:13:53Z</time>
      </trkpt>
      <trkpt lat="49.46535" lon="1.01426">
        <ele>124</ele>
        <time>2014-10-30T14:13:55Z</time>
      </trkpt>
      <trkpt lat="49.46527" lon="1.01437">
        <ele>119</ele>
        <time>2014-10-30T14:13:57Z</time>
      </trkpt>
      <trkpt lat="49.46519" lon="1.01447">
        <ele>119</ele>
        <time>2014-10-30T14:13:59Z</time>
      </trkpt>
      <trkpt lat="49.4651" lon="1.01457">
        <ele>119</ele>
        <time>2014-10-30T14:14:01Z</time>
      </trkpt>
      <trkpt lat="49.46502" lon="1.01468">
        <ele>119</ele>
        <time>2014-10-30T14:14:03Z</time>
      </trkpt>
      <trkpt lat="49.46494" lon="1.01482">
        <ele>119</ele>
        <time>2014-10-30T14:14:05Z</time>
      </trkpt>
      <trkpt lat="49.46485" lon="1.01494">
        <ele>119</ele>
        <time>2014-10-30T14:14:07Z</time>
      </trkpt>
      <trkpt lat="49.46476" lon="1.01507">
        <ele>119</ele>
        <time>2014-10-30T14:14:09Z</time>
      </trkpt>
      <trkpt lat="49.46467" lon="1.0152">
        <ele>113</ele>
        <time>2014-10-30T14:14:11Z</time>
      </trkpt>
      <trkpt lat="49.46458" lon="1.01533">
        <ele>113</ele>
        <time>2014-10-30T14:14:13Z</time>
      </trkpt>
      <trkpt lat="49.4645" lon="1.01546">
        <ele>113</ele>
        <time>2014-10-30T14:14:15Z</time>
      </trkpt>
      <trkpt lat="49.46441" lon="1.01558">
        <ele>113</ele>
        <time>2014-10-30T14:14:17Z</time>
      </trkpt>
      <trkpt lat="49.46431" lon="1.01569">
        <ele>113</ele>
        <time>2014-10-30T14:14:19Z</time>
      </trkpt>
      <trkpt lat="49.46423" lon="1.01582">
        <ele>113</ele>
        <time>2014-10-30T14:14:21Z</time>
      </trkpt>
      <trkpt lat="49.46416" lon="1.01594">
        <ele>113</ele>
        <time>2014-10-30T14:14:23Z</time>
      </trkpt>
      <trkpt lat="49.46406" lon="1.01604">
        <ele>113</ele>
        <time>2014-10-30T14:14:25Z</time>
      </trkpt>
      <trkpt lat="49.46397" lon="1.01615">
        <ele>113</ele>
        <time>2014-10-30T14:14:27Z</time>
      </trkpt>
      <trkpt lat="49.46389" lon="1.01627">
        <ele>113</ele>
        <time>2014-10-30T14:14:29Z</time>
      </trkpt>
      <trkpt lat="49.46382" lon="1.01641">
        <ele>113</ele>
        <time>2014-10-30T14:14:31Z</time>
      </trkpt>
      <trkpt lat="49.46373" lon="1.01653">
        <ele>113</ele>
        <time>2014-10-30T14:14:33Z</time>
      </trkpt>
      <trkpt lat="49.46364" lon="1.01663">
        <ele>113</ele>
        <time>2014-10-30T14:14:35Z</time>
      </trkpt>
      <trkpt lat="49.46354" lon="1.01675">
        <ele>113</ele>
        <time>2014-10-30T14:14:37Z</time>
      </trkpt>
      <trkpt lat="49.46347" lon="1.01686">
        <ele>113</ele>
        <time>2014-10-30T14:14:39Z</time>
      </trkpt>
      <trkpt lat="49.46339" lon="1.01697">
        <ele>113</ele>
        <time>2014-10-30T14:14:41Z</time>
      </trkpt>
      <trkpt lat="49.46332" lon="1.01709">
        <ele>113</ele>
        <time>2014-10-30T14:14:43Z</time>
      </trkpt>
      <trkpt lat="49.46324" lon="1.0172">
        <ele>113</ele>
        <time>2014-10-30T14:14:45Z</time>
      </trkpt>
      <trkpt lat="49.46316" lon="1.01734">
        <ele>113</ele>
        <time>2014-10-30T14:14:48Z</time>
      </trkpt>
      <trkpt lat="49.46307" lon="1.0175">
        <ele>113</ele>
        <time>2014-10-30T14:14:51Z</time>
      </trkpt>
      <trkpt lat="49.46301" lon="1.01762">
        <ele>120</ele>
        <time>2014-10-30T14:14:54Z</time>
      </trkpt>
      <trkpt lat="49.46293" lon="1.01776">
        <ele>120</ele>
        <time>2014-10-30T14:14:57Z</time>
      </trkpt>
      <trkpt lat="49.46286" lon="1.01786">
        <ele>120</ele>
        <time>2014-10-30T14:15:00Z</time>
      </trkpt>
      <trkpt lat="49.46277" lon="1.01797">
        <ele>127</ele>
        <time>2014-10-30T14:15:04Z</time>
      </trkpt>
      <trkpt lat="49.46275" lon="1.01812">
        <ele>127</ele>
        <time>2014-10-30T14:15:09Z</time>
      </trkpt>
      <trkpt lat="49.46276" lon="1.01829">
        <ele>135</ele>
        <time>2014-10-30T14:15:13Z</time>
      </trkpt>
      <trkpt lat="49.46282" lon="1.01842">
        <ele>135</ele>
        <time>2014-10-30T14:15:16Z</time>
      </trkpt>
      <trkpt lat="49.46287" lon="1.01856">
        <ele>141</ele>
        <time>2014-10-30T14:15:19Z</time>
      </trkpt>
      <trkpt lat="49.46292" lon="1.0187">
        <ele>141</ele>
        <time>2014-10-30T14:15:22Z</time>
      </trkpt>
      <trkpt lat="49.46297" lon="1.01883">
        <ele>141</ele>
        <time>2014-10-30T14:15:25Z</time>
      </trkpt>
      <trkpt lat="49.46302" lon="1.01898">
        <ele>149</ele>
        <time>2014-10-30T14:15:28Z</time>
      </trkpt>
      <trkpt lat="49.46307" lon="1.01912">
        <ele>149</ele>
        <time>2014-10-30T14:15:31Z</time>
      </trkpt>
      <trkpt lat="49.46312" lon="1.01926">
        <ele>149</ele>
        <time>2014-10-30T14:15:34Z</time>
      </trkpt>
      <trkpt lat="49.46318" lon="1.0194">
        <ele>149</ele>
        <time>2014-10-30T14:15:38Z</time>
      </trkpt>
      <trkpt lat="49.46327" lon="1.01946">
        <ele>149</ele>
        <time>2014-10-30T14:15:44Z</time>
      </trkpt>
      <trkpt lat="49.46336" lon="1.01953">
        <ele>149</ele>
        <time>2014-10-30T14:15:48Z</time>
      </trkpt>
      <trkpt lat="49.46348" lon="1.01953">
        <ele>137</ele>
        <time>2014-10-30T14:15:53Z</time>
      </trkpt>
      <trkpt lat="49.46357" lon="1.01951">
        <ele>137</ele>
        <time>2014-10-30T14:15:57Z</time>
      </trkpt>
      <trkpt lat="49.46368" lon="1.01945">
        <ele>137</ele>
        <time>2014-10-30T14:16:01Z</time>
      </trkpt>
      <trkpt lat="49.46381" lon="1.01948">
        <ele>137</ele>
        <time>2014-10-30T14:16:05Z</time>
      </trkpt>
      <trkpt lat="49.4639" lon="1.01945">
        <ele>131</ele>
        <time>2014-10-30T14:16:08Z</time>
      </trkpt>
      <trkpt lat="49.464" lon="1.01944">
        <ele>131</ele>
        <time>2014-10-30T14:16:11Z</time>
      </trkpt>
      <trkpt lat="49.46412" lon="1.01944">
        <ele>131</ele>
        <time>2014-10-30T14:16:15Z</time>
      </trkpt>
      <trkpt lat="49.46422" lon="1.01946">
        <ele>131</ele>
        <time>2014-10-30T14:16:18Z</time>
      </trkpt>
      <trkpt lat="49.46433" lon="1.01946">
        <ele>126</ele>
        <time>2014-10-30T14:16:21Z</time>
      </trkpt>
      <trkpt lat="49.46444" lon="1.01947">
        <ele>126</ele>
        <time>2014-10-30T14:16:24Z</time>
      </trkpt>
      <trkpt lat="49.46455" lon="1.01945">
        <ele>126</ele>
        <time>2014-10-30T14:16:27Z</time>
      </trkpt>
      <trkpt lat="49.46467" lon="1.01944">
        <ele>119</ele>
        <time>2014-10-30T14:16:30Z</time>
      </trkpt>
      <trkpt lat="49.46478" lon="1.01944">
        <ele>119</ele>
        <time>2014-10-30T14:16:33Z</time>
      </trkpt>
      <trkpt lat="49.46489" lon="1.01944">
        <ele>119</ele>
        <time>2014-10-30T14:16:36Z</time>
      </trkpt>
      <trkpt lat="49.465" lon="1.01944">
        <ele>119</ele>
        <time>2014-10-30T14:16:39Z</time>
      </trkpt>
      <trkpt lat="49.46511" lon="1.01943">
        <ele>119</ele>
        <time>2014-10-30T14:16:42Z</time>
      </trkpt>
      <trkpt lat="49.46516" lon="1.01958">
        <ele>124</ele>
        <time>2014-10-30T14:16:49Z</time>
      </trkpt>
      <trkpt lat="49.46515" lon="1.01975">
        <ele>124</ele>
        <time>2014-10-30T14:16:53Z</time>
      </trkpt>
      <trkpt lat="49.46514" lon="1.0199">
        <ele>124</ele>
        <time>2014-10-30T14:16:56Z</time>
      </trkpt>
      <trkpt lat="49.46516" lon="1.02008">
        <ele>131</ele>
        <time>2014-10-30T14:17:00Z</time>
      </trkpt>
      <trkpt lat="49.46517" lon="1.02023">
        <ele>131</ele>
        <time>2014-10-30T14:17:03Z</time>
      </trkpt>
      <trkpt lat="49.46517" lon="1.02041">
        <ele>131</ele>
        <time>2014-10-30T14:17:07Z</time>
      </trkpt>
      <trkpt lat="49.46516" lon="1.02057">
        <ele>136</ele>
        <time>2014-10-30T14:17:10Z</time>
      </trkpt>
      <trkpt lat="49.46517" lon="1.02071">
        <ele>136</ele>
        <time>2014-10-30T14:17:15Z</time>
      </trkpt>
      <trkpt lat="49.46519" lon="1.02086">
        <ele>136</ele>
        <time>2014-10-30T14:17:24Z</time>
      </trkpt>
      <trkpt lat="49.4652" lon="1.02103">
        <ele>136</ele>
        <time>2014-10-30T14:17:28Z</time>
      </trkpt>
      <trkpt lat="49.46519" lon="1.02121">
        <ele>136</ele>
        <time>2014-10-30T14:17:32Z</time>
      </trkpt>
      <trkpt lat="49.46518" lon="1.02139">
        <ele>141</ele>
        <time>2014-10-30T14:17:36Z</time>
      </trkpt>
      <trkpt lat="49.4652" lon="1.02156">
        <ele>141</ele>
        <time>2014-10-30T14:17:39Z</time>
      </trkpt>
      <trkpt lat="49.46518" lon="1.02171">
        <ele>141</ele>
        <time>2014-10-30T14:17:42Z</time>
      </trkpt>
      <trkpt lat="49.46518" lon="1.0219">
        <ele>141</ele>
        <time>2014-10-30T14:17:46Z</time>
      </trkpt>
      <trkpt lat="49.46519" lon="1.02205">
        <ele>141</ele>
        <time>2014-10-30T14:17:49Z</time>
      </trkpt>
      <trkpt lat="49.46519" lon="1.02221">
        <ele>141</ele>
        <time>2014-10-30T14:17:52Z</time>
      </trkpt>
      <trkpt lat="49.46518" lon="1.02236">
        <ele>141</ele>
        <time>2014-10-30T14:17:55Z</time>
      </trkpt>
      <trkpt lat="49.46518" lon="1.02252">
        <ele>141</ele>
        <time>2014-10-30T14:17:58Z</time>
      </trkpt>
      <trkpt lat="49.46517" lon="1.0227">
        <ele>141</ele>
        <time>2014-10-30T14:18:01Z</time>
      </trkpt>
      <trkpt lat="49.4652" lon="1.02288">
        <ele>141</ele>
        <time>2014-10-30T14:18:04Z</time>
      </trkpt>
      <trkpt lat="49.46522" lon="1.02305">
        <ele>141</ele>
        <time>2014-10-30T14:18:07Z</time>
      </trkpt>
      <trkpt lat="49.46519" lon="1.02322">
        <ele>141</ele>
        <time>2014-10-30T14:18:10Z</time>
      </trkpt>
      <trkpt lat="49.46522" lon="1.02338">
        <ele>141</ele>
        <time>2014-10-30T14:18:13Z</time>
      </trkpt>
      <trkpt lat="49.46523" lon="1.02354">
        <ele>147</ele>
        <time>2014-10-30T14:18:16Z</time>
      </trkpt>
      <trkpt lat="49.46524" lon="1.02368">
        <ele>147</ele>
        <time>2014-10-30T14:18:19Z</time>
      </trkpt>
      <trkpt lat="49.46525" lon="1.02383">
        <ele>147</ele>
        <time>2014-10-30T14:18:22Z</time>
      </trkpt>
      <trkpt lat="49.46525" lon="1.02399">
        <ele>147</ele>
        <time>2014-10-30T14:18:25Z</time>
      </trkpt>
      <trkpt lat="49.46525" lon="1.02414">
        <ele>142</ele>
        <time>2014-10-30T14:18:28Z</time>
      </trkpt>
      <trkpt lat="49.46526" lon="1.02432">
        <ele>142</ele>
        <time>2014-10-30T14:18:32Z</time>
      </trkpt>
      <trkpt lat="49.4653" lon="1.02448">
        <ele>142</ele>
        <time>2014-10-30T14:18:36Z</time>
      </trkpt>
      <trkpt lat="49.46535" lon="1.0246">
        <ele>142</ele>
        <time>2014-10-30T14:18:42Z</time>
      </trkpt>
      <trkpt lat="49.46531" lon="1.02473">
        <ele>142</ele>
        <time>2014-10-30T14:18:48Z</time>
      </trkpt>
      <trkpt lat="49.46533" lon="1.02487">
        <ele>142</ele>
        <time>2014-10-30T14:19:02Z</time>
      </trkpt>
      <trkpt lat="49.46535" lon="1.02501">
        <ele>142</ele>
        <time>2014-10-30T14:19:06Z</time>
      </trkpt>
      <trkpt lat="49.46542" lon="1.02514">
        <ele>142</ele>
        <time>2014-10-30T14:19:10Z</time>
      </trkpt>
      <trkpt lat="49.46547" lon="1.02527">
        <ele>142</ele>
        <time>2014-10-30T14:19:13Z</time>
      </trkpt>
      <trkpt lat="49.46553" lon="1.02541">
        <ele>142</ele>
        <time>2014-10-30T14:19:16Z</time>
      </trkpt>
      <trkpt lat="49.4656" lon="1.02554">
        <ele>137</ele>
        <time>2014-10-30T14:19:19Z</time>
      </trkpt>
      <trkpt lat="49.46565" lon="1.02566">
        <ele>137</ele>
        <time>2014-10-30T14:19:22Z</time>
      </trkpt>
      <trkpt lat="49.46571" lon="1.02581">
        <ele>137</ele>
        <time>2014-10-30T14:19:25Z</time>
      </trkpt>
      <trkpt lat="49.46573" lon="1.02598">
        <ele>137</ele>
        <time>2014-10-30T14:19:28Z</time>
      </trkpt>
      <trkpt lat="49.46577" lon="1.02614">
        <ele>137</ele>
        <time>2014-10-30T14:19:31Z</time>
      </trkpt>
      <trkpt lat="49.46584" lon="1.0263">
        <ele>137</ele>
        <time>2014-10-30T14:19:34Z</time>
      </trkpt>
      <trkpt lat="49.4659" lon="1.02642">
        <ele>137</ele>
        <time>2014-10-30T14:19:36Z</time>
      </trkpt>
      <trkpt lat="49.46594" lon="1.02661">
        <ele>144</ele>
        <time>2014-10-30T14:19:39Z</time>
      </trkpt>
      <trkpt lat="49.466" lon="1.02678">
        <ele>144</ele>
        <time>2014-10-30T14:19:42Z</time>
      </trkpt>
      <trkpt lat="49.46605" lon="1.02696">
        <ele>153</ele>
        <time>2014-10-30T14:19:45Z</time>
      </trkpt>
      <trkpt lat="49.46609" lon="1.02714">
        <ele>153</ele>
        <time>2014-10-30T14:19:48Z</time>
      </trkpt>
      <trkpt lat="49.46614" lon="1.0273">
        <ele>161</ele>
        <time>2014-10-30T14:19:51Z</time>
      </trkpt>
      <trkpt lat="49.46621" lon="1.02747">
        <ele>161</ele>
        <time>2014-10-30T14:19:54Z</time>
      </trkpt>
      <trkpt lat="49.46628" lon="1.02764">
        <ele>161</ele>
        <time>2014-10-30T14:19:57Z</time>
      </trkpt>
      <trkpt lat="49.46635" lon="1.02781">
        <ele>161</ele>
        <time>2014-10-30T14:20:00Z</time>
      </trkpt>
      <trkpt lat="49.46642" lon="1.02796">
        <ele>161</ele>
        <time>2014-10-30T14:20:03Z</time>
      </trkpt>
      <trkpt lat="49.46649" lon="1.02812">
        <ele>161</ele>
        <time>2014-10-30T14:20:06Z</time>
      </trkpt>
      <trkpt lat="49.46656" lon="1.02828">
        <ele>155</ele>
        <time>2014-10-30T14:20:09Z</time>
      </trkpt>
      <trkpt lat="49.46661" lon="1.02841">
        <ele>155</ele>
        <time>2014-10-30T14:20:11Z</time>
      </trkpt>
      <trkpt lat="49.46666" lon="1.02859">
        <ele>155</ele>
        <time>2014-10-30T14:20:14Z</time>
      </trkpt>
      <trkpt lat="49.46673" lon="1.02877">
        <ele>155</ele>
        <time>2014-10-30T14:20:17Z</time>
      </trkpt>
      <trkpt lat="49.46681" lon="1.02893">
        <ele>155</ele>
        <time>2014-10-30T14:20:20Z</time>
      </trkpt>
      <trkpt lat="49.46687" lon="1.02911">
        <ele>155</ele>
        <time>2014-10-30T14:20:23Z</time>
      </trkpt>
      <trkpt lat="49.46693" lon="1.02923">
        <ele>155</ele>
        <time>2014-10-30T14:20:25Z</time>
      </trkpt>
      <trkpt lat="49.46698" lon="1.02935">
        <ele>155</ele>
        <time>2014-10-30T14:20:27Z</time>
      </trkpt>
      <trkpt lat="49.46704" lon="1.02953">
        <ele>155</ele>
        <time>2014-10-30T14:20:30Z</time>
      </trkpt>
      <trkpt lat="49.46709" lon="1.02966">
        <ele>155</ele>
        <time>2014-10-30T14:20:32Z</time>
      </trkpt>
      <trkpt lat="49.46714" lon="1.02978">
        <ele>155</ele>
        <time>2014-10-30T14:20:34Z</time>
      </trkpt>
      <trkpt lat="49.46718" lon="1.02991">
        <ele>155</ele>
        <time>2014-10-30T14:20:36Z</time>
      </trkpt>
      <trkpt lat="49.46721" lon="1.03004">
        <ele>155</ele>
        <time>2014-10-30T14:20:38Z</time>
      </trkpt>
      <trkpt lat="49.46726" lon="1.03022">
        <ele>155</ele>
        <time>2014-10-30T14:20:41Z</time>
      </trkpt>
      <trkpt lat="49.46733" lon="1.03041">
        <ele>155</ele>
        <time>2014-10-30T14:20:44Z</time>
      </trkpt>
      <trkpt lat="49.46741" lon="1.03058">
        <ele>155</ele>
        <time>2014-10-30T14:20:47Z</time>
      </trkpt>
      <trkpt lat="49.46747" lon="1.03075">
        <ele>155</ele>
        <time>2014-10-30T14:20:50Z</time>
      </trkpt>
      <trkpt lat="49.46751" lon="1.03089">
        <ele>155</ele>
        <time>2014-10-30T14:20:52Z</time>
      </trkpt>
      <trkpt lat="49.46753" lon="1.03104">
        <ele>145</ele>
        <time>2014-10-30T14:20:56Z</time>
      </trkpt>
      <trkpt lat="49.4676" lon="1.03119">
        <ele>145</ele>
        <time>2014-10-30T14:21:02Z</time>
      </trkpt>
      <trkpt lat="49.46773" lon="1.03126">
        <ele>139</ele>
        <time>2014-10-30T14:21:05Z</time>
      </trkpt>
      <trkpt lat="49.46783" lon="1.03128">
        <ele>139</ele>
        <time>2014-10-30T14:21:07Z</time>
      </trkpt>
      <trkpt lat="49.46794" lon="1.03132">
        <ele>139</ele>
        <time>2014-10-30T14:21:09Z</time>
      </trkpt>
      <trkpt lat="49.46805" lon="1.03137">
        <ele>133</ele>
        <time>2014-10-30T14:21:11Z</time>
      </trkpt>
      <trkpt lat="49.46816" lon="1.03142">
        <ele>133</ele>
        <time>2014-10-30T14:21:13Z</time>
      </trkpt>
      <trkpt lat="49.46828" lon="1.03148">
        <ele>133</ele>
        <time>2014-10-30T14:21:15Z</time>
      </trkpt>
      <trkpt lat="49.46841" lon="1.03154">
        <ele>133</ele>
        <time>2014-10-30T14:21:17Z</time>
      </trkpt>
      <trkpt lat="49.46855" lon="1.03158">
        <ele>133</ele>
        <time>2014-10-30T14:21:19Z</time>
      </trkpt>
      <trkpt lat="49.4687" lon="1.03161">
        <ele>133</ele>
        <time>2014-10-30T14:21:21Z</time>
      </trkpt>
      <trkpt lat="49.46885" lon="1.03162">
        <ele>133</ele>
        <time>2014-10-30T14:21:23Z</time>
      </trkpt>
      <trkpt lat="49.46902" lon="1.03161">
        <ele>127</ele>
        <time>2014-10-30T14:21:25Z</time>
      </trkpt>
      <trkpt lat="49.46919" lon="1.03157">
        <ele>127</ele>
        <time>2014-10-30T14:21:27Z</time>
      </trkpt>
      <trkpt lat="49.46936" lon="1.03151">
        <ele>127</ele>
        <time>2014-10-30T14:21:29Z</time>
      </trkpt>
      <trkpt lat="49.46945" lon="1.03147">
        <ele>127</ele>
        <time>2014-10-30T14:21:30Z</time>
      </trkpt>
      <trkpt lat="49.46962" lon="1.0314">
        <ele>121</ele>
        <time>2014-10-30T14:21:32Z</time>
      </trkpt>
      <trkpt lat="49.46971" lon="1.03135">
        <ele>121</ele>
        <time>2014-10-30T14:21:33Z</time>
      </trkpt>
      <trkpt lat="49.46989" lon="1.03125">
        <ele>121</ele>
        <time>2014-10-30T14:21:35Z</time>
      </trkpt>
      <trkpt lat="49.46998" lon="1.03121">
        <ele>115</ele>
        <time>2014-10-30T14:21:36Z</time>
      </trkpt>
      <trkpt lat="49.47008" lon="1.03117">
        <ele>115</ele>
        <time>2014-10-30T14:21:37Z</time>
      </trkpt>
      <trkpt lat="49.47017" lon="1.03112">
        <ele>115</ele>
        <time>2014-10-30T14:21:38Z</time>
      </trkpt>
      <trkpt lat="49.47026" lon="1.03106">
        <ele>115</ele>
        <time>2014-10-30T14:21:39Z</time>
      </trkpt>
      <trkpt lat="49.47035" lon="1.031">
        <ele>115</ele>
        <time>2014-10-30T14:21:40Z</time>
      </trkpt>
      <trkpt lat="49.47044" lon="1.03093">
        <ele>115</ele>
        <time>2014-10-30T14:21:41Z</time>
      </trkpt>
      <trkpt lat="49.47053" lon="1.03085">
        <ele>110</ele>
        <time>2014-10-30T14:21:42Z</time>
      </trkpt>
      <trkpt lat="49.47061" lon="1.03077">
        <ele>110</ele>
        <time>2014-10-30T14:21:43Z</time>
      </trkpt>
      <trkpt lat="49.4707" lon="1.0307">
        <ele>110</ele>
        <time>2014-10-30T14:21:44Z</time>
      </trkpt>
      <trkpt lat="49.47079" lon="1.03063">
        <ele>110</ele>
        <time>2014-10-30T14:21:45Z</time>
      </trkpt>
      <trkpt lat="49.47087" lon="1.03055">
        <ele>110</ele>
        <time>2014-10-30T14:21:46Z</time>
      </trkpt>
      <trkpt lat="49.47096" lon="1.03048">
        <ele>110</ele>
        <time>2014-10-30T14:21:47Z</time>
      </trkpt>
      <trkpt lat="49.47111" lon="1.03032">
        <ele>110</ele>
        <time>2014-10-30T14:21:49Z</time>
      </trkpt>
      <trkpt lat="49.4712" lon="1.03014">
        <ele>110</ele>
        <time>2014-10-30T14:21:51Z</time>
      </trkpt>
      <trkpt lat="49.47126" lon="1.02996">
        <ele>105</ele>
        <time>2014-10-30T14:21:53Z</time>
      </trkpt>
      <trkpt lat="49.47135" lon="1.02983">
        <ele>105</ele>
        <time>2014-10-30T14:21:55Z</time>
      </trkpt>
      <trkpt lat="49.47141" lon="1.02966">
        <ele>105</ele>
        <time>2014-10-30T14:21:57Z</time>
      </trkpt>
      <trkpt lat="49.47143" lon="1.02943">
        <ele>105</ele>
        <time>2014-10-30T14:21:59Z</time>
      </trkpt>
      <trkpt lat="49.47142" lon="1.0292">
        <ele>105</ele>
        <time>2014-10-30T14:22:01Z</time>
      </trkpt>
      <trkpt lat="49.47142" lon="1.02896">
        <ele>105</ele>
        <time>2014-10-30T14:22:03Z</time>
      </trkpt>
      <trkpt lat="49.47145" lon="1.02872">
        <ele>105</ele>
        <time>2014-10-30T14:22:05Z</time>
      </trkpt>
      <trkpt lat="49.47147" lon="1.02847">
        <ele>105</ele>
        <time>2014-10-30T14:22:07Z</time>
      </trkpt>
      <trkpt lat="49.47152" lon="1.02822">
        <ele>105</ele>
        <time>2014-10-30T14:22:09Z</time>
      </trkpt>
      <trkpt lat="49.47156" lon="1.02797">
        <ele>105</ele>
        <time>2014-10-30T14:22:11Z</time>
      </trkpt>
      <trkpt lat="49.47162" lon="1.02774">
        <ele>105</ele>
        <time>2014-10-30T14:22:13Z</time>
      </trkpt>
      <trkpt lat="49.47174" lon="1.02756">
        <ele>105</ele>
        <time>2014-10-30T14:22:15Z</time>
      </trkpt>
      <trkpt lat="49.47189" lon="1.02747">
        <ele>105</ele>
        <time>2014-10-30T14:22:17Z</time>
      </trkpt>
      <trkpt lat="49.47208" lon="1.02754">
        <ele>105</ele>
        <time>2014-10-30T14:22:19Z</time>
      </trkpt>
      <trkpt lat="49.47221" lon="1.0277">
        <ele>105</ele>
        <time>2014-10-30T14:22:21Z</time>
      </trkpt>
      <trkpt lat="49.47232" lon="1.0279">
        <ele>105</ele>
        <time>2014-10-30T14:22:23Z</time>
      </trkpt>
      <trkpt lat="49.47238" lon="1.02801">
        <ele>105</ele>
        <time>2014-10-30T14:22:24Z</time>
      </trkpt>
      <trkpt lat="49.4725" lon="1.02822">
        <ele>105</ele>
        <time>2014-10-30T14:22:26Z</time>
      </trkpt>
      <trkpt lat="49.47262" lon="1.02838">
        <ele>105</ele>
        <time>2014-10-30T14:22:28Z</time>
      </trkpt>
      <trkpt lat="49.47273" lon="1.02861">
        <ele>105</ele>
        <time>2014-10-30T14:22:30Z</time>
      </trkpt>
      <trkpt lat="49.47283" lon="1.02873">
        <ele>97</ele>
        <time>2014-10-30T14:22:31Z</time>
      </trkpt>
      <trkpt lat="49.47297" lon="1.02889">
        <ele>97</ele>
        <time>2014-10-30T14:22:33Z</time>
      </trkpt>
      <trkpt lat="49.47313" lon="1.02899">
        <ele>97</ele>
        <time>2014-10-30T14:22:35Z</time>
      </trkpt>
      <trkpt lat="49.4733" lon="1.02909">
        <ele>97</ele>
        <time>2014-10-30T14:22:37Z</time>
      </trkpt>
      <trkpt lat="49.47344" lon="1.02918">
        <ele>97</ele>
        <time>2014-10-30T14:22:39Z</time>
      </trkpt>
      <trkpt lat="49.47356" lon="1.02929">
        <ele>92</ele>
        <time>2014-10-30T14:22:41Z</time>
      </trkpt>
      <trkpt lat="49.47363" lon="1.02948">
        <ele>92</ele>
        <time>2014-10-30T14:22:43Z</time>
      </trkpt>
      <trkpt lat="49.47375" lon="1.02966">
        <ele>92</ele>
        <time>2014-10-30T14:22:45Z</time>
      </trkpt>
      <trkpt lat="49.47384" lon="1.02986">
        <ele>92</ele>
        <time>2014-10-30T14:22:47Z</time>
      </trkpt>
      <trkpt lat="49.47386" lon="1.03006">
        <ele>92</ele>
        <time>2014-10-30T14:22:49Z</time>
      </trkpt>
      <trkpt lat="49.47383" lon="1.03029">
        <ele>92</ele>
        <time>2014-10-30T14:22:51Z</time>
      </trkpt>
      <trkpt lat="49.4738" lon="1.0305">
        <ele>92</ele>
        <time>2014-10-30T14:22:53Z</time>
      </trkpt>
      <trkpt lat="49.47377" lon="1.03071">
        <ele>86</ele>
        <time>2014-10-30T14:22:55Z</time>
      </trkpt>
      <trkpt lat="49.47373" lon="1.03092">
        <ele>86</ele>
        <time>2014-10-30T14:22:57Z</time>
      </trkpt>
      <trkpt lat="49.47368" lon="1.03113">
        <ele>86</ele>
        <time>2014-10-30T14:22:59Z</time>
      </trkpt>
      <trkpt lat="49.47364" lon="1.03136">
        <ele>86</ele>
        <time>2014-10-30T14:23:01Z</time>
      </trkpt>
      <trkpt lat="49.47359" lon="1.03157">
        <ele>86</ele>
        <time>2014-10-30T14:23:03Z</time>
      </trkpt>
      <trkpt lat="49.47356" lon="1.03181">
        <ele>86</ele>
        <time>2014-10-30T14:23:05Z</time>
      </trkpt>
      <trkpt lat="49.47352" lon="1.03204">
        <ele>86</ele>
        <time>2014-10-30T14:23:07Z</time>
      </trkpt>
      <trkpt lat="49.4735" lon="1.03228">
        <ele>86</ele>
        <time>2014-10-30T14:23:09Z</time>
      </trkpt>
      <trkpt lat="49.47348" lon="1.03252">
        <ele>86</ele>
        <time>2014-10-30T14:23:11Z</time>
      </trkpt>
      <trkpt lat="49.47345" lon="1.03277">
        <ele>86</ele>
        <time>2014-10-30T14:23:13Z</time>
      </trkpt>
      <trkpt lat="49.47342" lon="1.03302">
        <ele>86</ele>
        <time>2014-10-30T14:23:15Z</time>
      </trkpt>
      <trkpt lat="49.47339" lon="1.03327">
        <ele>86</ele>
        <time>2014-10-30T14:23:17Z</time>
      </trkpt>
      <trkpt lat="49.47337" lon="1.03352">
        <ele>86</ele>
        <time>2014-10-30T14:23:19Z</time>
      </trkpt>
      <trkpt lat="49.47334" lon="1.03378">
        <ele>86</ele>
        <time>2014-10-30T14:23:21Z</time>
      </trkpt>
      <trkpt lat="49.47332" lon="1.03404">
        <ele>81</ele>
        <time>2014-10-30T14:23:23Z</time>
      </trkpt>
      <trkpt lat="49.4733" lon="1.03429">
        <ele>81</ele>
        <time>2014-10-30T14:23:25Z</time>
      </trkpt>
      <trkpt lat="49.47331" lon="1.03456">
        <ele>81</ele>
        <time>2014-10-30T14:23:27Z</time>
      </trkpt>
      <trkpt lat="49.47336" lon="1.03481">
        <ele>81</ele>
        <time>2014-10-30T14:23:29Z</time>
      </trkpt>
      <trkpt lat="49.47345" lon="1.03503">
        <ele>81</ele>
        <time>2014-10-30T14:23:31Z</time>
      </trkpt>
      <trkpt lat="49.47359" lon="1.0352">
        <ele>81</ele>
        <time>2014-10-30T14:23:33Z</time>
      </trkpt>
      <trkpt lat="49.47375" lon="1.03531">
        <ele>76</ele>
        <time>2014-10-30T14:23:35Z</time>
      </trkpt>
      <trkpt lat="49.47392" lon="1.03538">
        <ele>76</ele>
        <time>2014-10-30T14:23:37Z</time>
      </trkpt>
      <trkpt lat="49.47401" lon="1.03542">
        <ele>76</ele>
        <time>2014-10-30T14:23:38Z</time>
      </trkpt>
      <trkpt lat="49.47418" lon="1.03547">
        <ele>76</ele>
        <time>2014-10-30T14:23:40Z</time>
      </trkpt>
      <trkpt lat="49.47436" lon="1.0355">
        <ele>76</ele>
        <time>2014-10-30T14:23:42Z</time>
      </trkpt>
      <trkpt lat="49.47445" lon="1.03551">
        <ele>76</ele>
        <time>2014-10-30T14:23:43Z</time>
      </trkpt>
      <trkpt lat="49.47474" lon="1.03548">
        <ele>70</ele>
        <time>2014-10-30T14:23:46Z</time>
      </trkpt>
      <trkpt lat="49.47483" lon="1.03545">
        <ele>70</ele>
        <time>2014-10-30T14:23:47Z</time>
      </trkpt>
      <trkpt lat="49.47493" lon="1.03541">
        <ele>70</ele>
        <time>2014-10-30T14:23:48Z</time>
      </trkpt>
      <trkpt lat="49.47503" lon="1.03534">
        <ele>70</ele>
        <time>2014-10-30T14:23:49Z</time>
      </trkpt>
      <trkpt lat="49.47512" lon="1.03531">
        <ele>70</ele>
        <time>2014-10-30T14:23:50Z</time>
      </trkpt>
      <trkpt lat="49.47521" lon="1.03527">
        <ele>70</ele>
        <time>2014-10-30T14:23:51Z</time>
      </trkpt>
      <trkpt lat="49.4753" lon="1.03523">
        <ele>70</ele>
        <time>2014-10-30T14:23:52Z</time>
      </trkpt>
      <trkpt lat="49.47539" lon="1.03519">
        <ele>70</ele>
        <time>2014-10-30T14:23:53Z</time>
      </trkpt>
      <trkpt lat="49.47547" lon="1.03515">
        <ele>65</ele>
        <time>2014-10-30T14:23:54Z</time>
      </trkpt>
      <trkpt lat="49.47557" lon="1.03511">
        <ele>65</ele>
        <time>2014-10-30T14:23:55Z</time>
      </trkpt>
      <trkpt lat="49.47565" lon="1.03507">
        <ele>65</ele>
        <time>2014-10-30T14:23:56Z</time>
      </trkpt>
      <trkpt lat="49.47575" lon="1.03503">
        <ele>65</ele>
        <time>2014-10-30T14:23:57Z</time>
      </trkpt>
      <trkpt lat="49.47584" lon="1.03499">
        <ele>65</ele>
        <time>2014-10-30T14:23:58Z</time>
      </trkpt>
      <trkpt lat="49.47593" lon="1.03496">
        <ele>65</ele>
        <time>2014-10-30T14:23:59Z</time>
      </trkpt>
      <trkpt lat="49.47602" lon="1.03492">
        <ele>65</ele>
        <time>2014-10-30T14:24:00Z</time>
      </trkpt>
      <trkpt lat="49.47611" lon="1.03489">
        <ele>59</ele>
        <time>2014-10-30T14:24:01Z</time>
      </trkpt>
      <trkpt lat="49.4762" lon="1.03485">
        <ele>59</ele>
        <time>2014-10-30T14:24:02Z</time>
      </trkpt>
      <trkpt lat="49.47637" lon="1.03479">
        <ele>59</ele>
        <time>2014-10-30T14:24:04Z</time>
      </trkpt>
      <trkpt lat="49.47654" lon="1.03478">
        <ele>59</ele>
        <time>2014-10-30T14:24:06Z</time>
      </trkpt>
      <trkpt lat="49.4767" lon="1.03482">
        <ele>54</ele>
        <time>2014-10-30T14:24:08Z</time>
      </trkpt>
      <trkpt lat="49.47684" lon="1.0349">
        <ele>54</ele>
        <time>2014-10-30T14:24:10Z</time>
      </trkpt>
      <trkpt lat="49.47697" lon="1.03502">
        <ele>54</ele>
        <time>2014-10-30T14:24:12Z</time>
      </trkpt>
      <trkpt lat="49.47712" lon="1.03513">
        <ele>54</ele>
        <time>2014-10-30T14:24:14Z</time>
      </trkpt>
      <trkpt lat="49.47728" lon="1.03523">
        <ele>54</ele>
        <time>2014-10-30T14:24:16Z</time>
      </trkpt>
      <trkpt lat="49.47744" lon="1.03534">
        <ele>48</ele>
        <time>2014-10-30T14:24:18Z</time>
      </trkpt>
      <trkpt lat="49.47752" lon="1.0354">
        <ele>48</ele>
        <time>2014-10-30T14:24:19Z</time>
      </trkpt>
      <trkpt lat="49.4776" lon="1.03546">
        <ele>48</ele>
        <time>2014-10-30T14:24:20Z</time>
      </trkpt>
      <trkpt lat="49.47769" lon="1.03552">
        <ele>48</ele>
        <time>2014-10-30T14:24:21Z</time>
      </trkpt>
      <trkpt lat="49.47779" lon="1.03556">
        <ele>48</ele>
        <time>2014-10-30T14:24:22Z</time>
      </trkpt>
      <trkpt lat="49.47788" lon="1.03559">
        <ele>48</ele>
        <time>2014-10-30T14:24:23Z</time>
      </trkpt>
      <trkpt lat="49.47798" lon="1.0356">
        <ele>48</ele>
        <time>2014-10-30T14:24:24Z</time>
      </trkpt>
      <trkpt lat="49.47807" lon="1.0356">
        <ele>48</ele>
        <time>2014-10-30T14:24:25Z</time>
      </trkpt>
      <trkpt lat="49.47817" lon="1.03557">
        <ele>43</ele>
        <time>2014-10-30T14:24:26Z</time>
      </trkpt>
      <trkpt lat="49.47827" lon="1.03554">
        <ele>43</ele>
        <time>2014-10-30T14:24:27Z</time>
      </trkpt>
      <trkpt lat="49.47836" lon="1.03551">
        <ele>43</ele>
        <time>2014-10-30T14:24:28Z</time>
      </trkpt>
      <trkpt lat="49.47846" lon="1.03547">
        <ele>43</ele>
        <time>2014-10-30T14:24:29Z</time>
      </trkpt>
      <trkpt lat="49.47856" lon="1.03543">
        <ele>43</ele>
        <time>2014-10-30T14:24:30Z</time>
      </trkpt>
      <trkpt lat="49.47865" lon="1.03539">
        <ele>43</ele>
        <time>2014-10-30T14:24:31Z</time>
      </trkpt>
      <trkpt lat="49.47875" lon="1.03535">
        <ele>43</ele>
        <time>2014-10-30T14:24:32Z</time>
      </trkpt>
      <trkpt lat="49.47886" lon="1.03534">
        <ele>43</ele>
        <time>2014-10-30T14:24:33Z</time>
      </trkpt>
      <trkpt lat="49.47896" lon="1.03534">
        <ele>43</ele>
        <time>2014-10-30T14:24:34Z</time>
      </trkpt>
      <trkpt lat="49.47906" lon="1.03537">
        <ele>43</ele>
        <time>2014-10-30T14:24:35Z</time>
      </trkpt>
      <trkpt lat="49.47915" lon="1.03541">
        <ele>43</ele>
        <time>2014-10-30T14:24:36Z</time>
      </trkpt>
      <trkpt lat="49.47925" lon="1.03546">
        <ele>38</ele>
        <time>2014-10-30T14:24:37Z</time>
      </trkpt>
      <trkpt lat="49.47935" lon="1.03551">
        <ele>38</ele>
        <time>2014-10-30T14:24:38Z</time>
      </trkpt>
      <trkpt lat="49.47945" lon="1.03556">
        <ele>38</ele>
        <time>2014-10-30T14:24:39Z</time>
      </trkpt>
      <trkpt lat="49.47954" lon="1.03561">
        <ele>38</ele>
        <time>2014-10-30T14:24:40Z</time>
      </trkpt>
      <trkpt lat="49.47963" lon="1.03566">
        <ele>38</ele>
        <time>2014-10-30T14:24:41Z</time>
      </trkpt>
      <trkpt lat="49.47973" lon="1.0357">
        <ele>38</ele>
        <time>2014-10-30T14:24:42Z</time>
      </trkpt>
      <trkpt lat="49.47982" lon="1.03576">
        <ele>38</ele>
        <time>2014-10-30T14:24:43Z</time>
      </trkpt>
      <trkpt lat="49.47992" lon="1.0358">
        <ele>38</ele>
        <time>2014-10-30T14:24:44Z</time>
      </trkpt>
      <trkpt lat="49.48001" lon="1.03585">
        <ele>38</ele>
        <time>2014-10-30T14:24:45Z</time>
      </trkpt>
      <trkpt lat="49.48011" lon="1.03589">
        <ele>38</ele>
        <time>2014-10-30T14:24:46Z</time>
      </trkpt>
      <trkpt lat="49.48021" lon="1.03595">
        <ele>38</ele>
        <time>2014-10-30T14:24:47Z</time>
      </trkpt>
      <trkpt lat="49.4803" lon="1.036">
        <ele>32</ele>
        <time>2014-10-30T14:24:48Z</time>
      </trkpt>
      <trkpt lat="49.4804" lon="1.03605">
        <ele>32</ele>
        <time>2014-10-30T14:24:49Z</time>
      </trkpt>
      <trkpt lat="49.48049" lon="1.03611">
        <ele>32</ele>
        <time>2014-10-30T14:24:50Z</time>
      </trkpt>
      <trkpt lat="49.48059" lon="1.03617">
        <ele>32</ele>
        <time>2014-10-30T14:24:51Z</time>
      </trkpt>
      <trkpt lat="49.48068" lon="1.03623">
        <ele>32</ele>
        <time>2014-10-30T14:24:52Z</time>
      </trkpt>
      <trkpt lat="49.48078" lon="1.03628">
        <ele>32</ele>
        <time>2014-10-30T14:24:53Z</time>
      </trkpt>
      <trkpt lat="49.48088" lon="1.03633">
        <ele>32</ele>
        <time>2014-10-30T14:24:54Z</time>
      </trkpt>
      <trkpt lat="49.48097" lon="1.0364">
        <ele>32</ele>
        <time>2014-10-30T14:24:55Z</time>
      </trkpt>
      <trkpt lat="49.48106" lon="1.03646">
        <ele>32</ele>
        <time>2014-10-30T14:24:56Z</time>
      </trkpt>
      <trkpt lat="49.48123" lon="1.03657">
        <ele>27</ele>
        <time>2014-10-30T14:24:58Z</time>
      </trkpt>
      <trkpt lat="49.48131" lon="1.03661">
        <ele>27</ele>
        <time>2014-10-30T14:24:59Z</time>
      </trkpt>
      <trkpt lat="49.48146" lon="1.03668">
        <ele>27</ele>
        <time>2014-10-30T14:25:01Z</time>
      </trkpt>
      <trkpt lat="49.48154" lon="1.03675">
        <ele>27</ele>
        <time>2014-10-30T14:25:03Z</time>
      </trkpt>
      <trkpt lat="49.48147" lon="1.03686">
        <ele>22</ele>
        <time>2014-10-30T14:25:07Z</time>
      </trkpt>
      <trkpt lat="49.48136" lon="1.03681">
        <ele>22</ele>
        <time>2014-10-30T14:25:09Z</time>
      </trkpt>
      <trkpt lat="49.48123" lon="1.03677">
        <ele>22</ele>
        <time>2014-10-30T14:25:11Z</time>
      </trkpt>
      <trkpt lat="49.4811" lon="1.03673">
        <ele>22</ele>
        <time>2014-10-30T14:25:13Z</time>
      </trkpt>
      <trkpt lat="49.48095" lon="1.03669">
        <ele>22</ele>
        <time>2014-10-30T14:25:15Z</time>
      </trkpt>
      <trkpt lat="49.48081" lon="1.03665">
        <ele>22</ele>
        <time>2014-10-30T14:25:17Z</time>
      </trkpt>
      <trkpt lat="49.48067" lon="1.03659">
        <ele>22</ele>
        <time>2014-10-30T14:25:19Z</time>
      </trkpt>
      <trkpt lat="49.48054" lon="1.03655">
        <ele>22</ele>
        <time>2014-10-30T14:25:21Z</time>
      </trkpt>
      <trkpt lat="49.48042" lon="1.0365">
        <ele>22</ele>
        <time>2014-10-30T14:25:23Z</time>
      </trkpt>
      <trkpt lat="49.48031" lon="1.03648">
        <ele>22</ele>
        <time>2014-10-30T14:25:25Z</time>
      </trkpt>
      <trkpt lat="49.4802" lon="1.03645">
        <ele>22</ele>
        <time>2014-10-30T14:25:27Z</time>
      </trkpt>
      <trkpt lat="49.48009" lon="1.03642">
        <ele>22</ele>
        <time>2014-10-30T14:25:29Z</time>
      </trkpt>
      <trkpt lat="49.47999" lon="1.0364">
        <ele>22</ele>
        <time>2014-10-30T14:25:31Z</time>
      </trkpt>
      <trkpt lat="49.47989" lon="1.0364">
        <ele>22</ele>
        <time>2014-10-30T14:25:33Z</time>
      </trkpt>
      <trkpt lat="49.47979" lon="1.03639">
        <ele>22</ele>
        <time>2014-10-30T14:25:35Z</time>
      </trkpt>
      <trkpt lat="49.47969" lon="1.03641">
        <ele>22</ele>
        <time>2014-10-30T14:25:37Z</time>
      </trkpt>
      <trkpt lat="49.47957" lon="1.03646">
        <ele>22</ele>
        <time>2014-10-30T14:25:39Z</time>
      </trkpt>
      <trkpt lat="49.47944" lon="1.03647">
        <ele>22</ele>
        <time>2014-10-30T14:25:42Z</time>
      </trkpt>
      <trkpt lat="49.47934" lon="1.03647">
        <ele>22</ele>
        <time>2014-10-30T14:25:44Z</time>
      </trkpt>
      <trkpt lat="49.47921" lon="1.03647">
        <ele>22</ele>
        <time>2014-10-30T14:25:47Z</time>
      </trkpt>
      <trkpt lat="49.4791" lon="1.0365">
        <ele>22</ele>
        <time>2014-10-30T14:25:50Z</time>
      </trkpt>
      <trkpt lat="49.47897" lon="1.03654">
        <ele>22</ele>
        <time>2014-10-30T14:25:53Z</time>
      </trkpt>
      <trkpt lat="49.47885" lon="1.03654">
        <ele>22</ele>
        <time>2014-10-30T14:25:56Z</time>
      </trkpt>
      <trkpt lat="49.47872" lon="1.03652">
        <ele>22</ele>
        <time>2014-10-30T14:25:59Z</time>
      </trkpt>
      <trkpt lat="49.47859" lon="1.03652">
        <ele>22</ele>
        <time>2014-10-30T14:26:02Z</time>
      </trkpt>
      <trkpt lat="49.47846" lon="1.03654">
        <ele>22</ele>
        <time>2014-10-30T14:26:05Z</time>
      </trkpt>
      <trkpt lat="49.47836" lon="1.03654">
        <ele>22</ele>
        <time>2014-10-30T14:26:07Z</time>
      </trkpt>
      <trkpt lat="49.47827" lon="1.03655">
        <ele>22</ele>
        <time>2014-10-30T14:26:09Z</time>
      </trkpt>
      <trkpt lat="49.47818" lon="1.03657">
        <ele>22</ele>
        <time>2014-10-30T14:26:11Z</time>
      </trkpt>
      <trkpt lat="49.47808" lon="1.03658">
        <ele>22</ele>
        <time>2014-10-30T14:26:13Z</time>
      </trkpt>
      <trkpt lat="49.47795" lon="1.03659">
        <ele>22</ele>
        <time>2014-10-30T14:26:16Z</time>
      </trkpt>
      <trkpt lat="49.47786" lon="1.0366">
        <ele>22</ele>
        <time>2014-10-30T14:26:18Z</time>
      </trkpt>
      <trkpt lat="49.47773" lon="1.03661">
        <ele>22</ele>
        <time>2014-10-30T14:26:21Z</time>
      </trkpt>
      <trkpt lat="49.47763" lon="1.03661">
        <ele>22</ele>
        <time>2014-10-30T14:26:23Z</time>
      </trkpt>
      <trkpt lat="49.47754" lon="1.03662">
        <ele>22</ele>
        <time>2014-10-30T14:26:25Z</time>
      </trkpt>
      <trkpt lat="49.47741" lon="1.03663">
        <ele>22</ele>
        <time>2014-10-30T14:26:28Z</time>
      </trkpt>
      <trkpt lat="49.47728" lon="1.03663">
        <ele>22</ele>
        <time>2014-10-30T14:26:31Z</time>
      </trkpt>
      <trkpt lat="49.47715" lon="1.03664">
        <ele>22</ele>
        <time>2014-10-30T14:26:34Z</time>
      </trkpt>
      <trkpt lat="49.47701" lon="1.03665">
        <ele>22</ele>
        <time>2014-10-30T14:26:37Z</time>
      </trkpt>
      <trkpt lat="49.47688" lon="1.03666">
        <ele>22</ele>
        <time>2014-10-30T14:26:40Z</time>
      </trkpt>
      <trkpt lat="49.47679" lon="1.03667">
        <ele>22</ele>
        <time>2014-10-30T14:26:42Z</time>
      </trkpt>
      <trkpt lat="49.4767" lon="1.03667">
        <ele>22</ele>
        <time>2014-10-30T14:26:44Z</time>
      </trkpt>
      <trkpt lat="49.47657" lon="1.03669">
        <ele>22</ele>
        <time>2014-10-30T14:26:47Z</time>
      </trkpt>
      <trkpt lat="49.47647" lon="1.0367">
        <ele>22</ele>
        <time>2014-10-30T14:26:49Z</time>
      </trkpt>
      <trkpt lat="49.47638" lon="1.03671">
        <ele>22</ele>
        <time>2014-10-30T14:26:51Z</time>
      </trkpt>
      <trkpt lat="49.47629" lon="1.03672">
        <ele>22</ele>
        <time>2014-10-30T14:26:53Z</time>
      </trkpt>
      <trkpt lat="49.47619" lon="1.03673">
        <ele>22</ele>
        <time>2014-10-30T14:26:55Z</time>
      </trkpt>
      <trkpt lat="49.4761" lon="1.03674">
        <ele>22</ele>
        <time>2014-10-30T14:26:57Z</time>
      </trkpt>
      <trkpt lat="49.47601" lon="1.03676">
        <ele>22</ele>
        <time>2014-10-30T14:26:59Z</time>
      </trkpt>
      <trkpt lat="49.47591" lon="1.03676">
        <ele>22</ele>
        <time>2014-10-30T14:27:01Z</time>
      </trkpt>
      <trkpt lat="49.47577" lon="1.03677">
        <ele>22</ele>
        <time>2014-10-30T14:27:04Z</time>
      </trkpt>
      <trkpt lat="49.47568" lon="1.03678">
        <ele>22</ele>
        <time>2014-10-30T14:27:06Z</time>
      </trkpt>
      <trkpt lat="49.47558" lon="1.0368">
        <ele>22</ele>
        <time>2014-10-30T14:27:08Z</time>
      </trkpt>
      <trkpt lat="49.47548" lon="1.03681">
        <ele>22</ele>
        <time>2014-10-30T14:27:10Z</time>
      </trkpt>
      <trkpt lat="49.47537" lon="1.03682">
        <ele>22</ele>
        <time>2014-10-30T14:27:12Z</time>
      </trkpt>
      <trkpt lat="49.47527" lon="1.03684">
        <ele>22</ele>
        <time>2014-10-30T14:27:14Z</time>
      </trkpt>
      <trkpt lat="49.47517" lon="1.03684">
        <ele>22</ele>
        <time>2014-10-30T14:27:16Z</time>
      </trkpt>
      <trkpt lat="49.47506" lon="1.03687">
        <ele>22</ele>
        <time>2014-10-30T14:27:18Z</time>
      </trkpt>
      <trkpt lat="49.47495" lon="1.03689">
        <ele>22</ele>
        <time>2014-10-30T14:27:20Z</time>
      </trkpt>
      <trkpt lat="49.47484" lon="1.03693">
        <ele>22</ele>
        <time>2014-10-30T14:27:22Z</time>
      </trkpt>
      <trkpt lat="49.47473" lon="1.03694">
        <ele>22</ele>
        <time>2014-10-30T14:27:24Z</time>
      </trkpt>
      <trkpt lat="49.47463" lon="1.03696">
        <ele>22</ele>
        <time>2014-10-30T14:27:26Z</time>
      </trkpt>
      <trkpt lat="49.47451" lon="1.03698">
        <ele>22</ele>
        <time>2014-10-30T14:27:28Z</time>
      </trkpt>
      <trkpt lat="49.4744" lon="1.03701">
        <ele>22</ele>
        <time>2014-10-30T14:27:30Z</time>
      </trkpt>
      <trkpt lat="49.47429" lon="1.03703">
        <ele>22</ele>
        <time>2014-10-30T14:27:32Z</time>
      </trkpt>
      <trkpt lat="49.4742" lon="1.03707">
        <ele>22</ele>
        <time>2014-10-30T14:27:34Z</time>
      </trkpt>
      <trkpt lat="49.47409" lon="1.03711">
        <ele>22</ele>
        <time>2014-10-30T14:27:36Z</time>
      </trkpt>
      <trkpt lat="49.47397" lon="1.03716">
        <ele>22</ele>
        <time>2014-10-30T14:27:38Z</time>
      </trkpt>
      <trkpt lat="49.47385" lon="1.0372">
        <ele>22</ele>
        <time>2014-10-30T14:27:40Z</time>
      </trkpt>
      <trkpt lat="49.47373" lon="1.03725">
        <ele>22</ele>
        <time>2014-10-30T14:27:42Z</time>
      </trkpt>
      <trkpt lat="49.47363" lon="1.03726">
        <ele>22</ele>
        <time>2014-10-30T14:27:44Z</time>
      </trkpt>
      <trkpt lat="49.47353" lon="1.03729">
        <ele>22</ele>
        <time>2014-10-30T14:27:46Z</time>
      </trkpt>
      <trkpt lat="49.47342" lon="1.0373">
        <ele>22</ele>
        <time>2014-10-30T14:27:48Z</time>
      </trkpt>
      <trkpt lat="49.47331" lon="1.03733">
        <ele>22</ele>
        <time>2014-10-30T14:27:50Z</time>
      </trkpt>
      <trkpt lat="49.4732" lon="1.03737">
        <ele>22</ele>
        <time>2014-10-30T14:27:52Z</time>
      </trkpt>
      <trkpt lat="49.4731" lon="1.03739">
        <ele>22</ele>
        <time>2014-10-30T14:27:54Z</time>
      </trkpt>
      <trkpt lat="49.47299" lon="1.03742">
        <ele>22</ele>
        <time>2014-10-30T14:27:56Z</time>
      </trkpt>
      <trkpt lat="49.47287" lon="1.03745">
        <ele>22</ele>
        <time>2014-10-30T14:27:58Z</time>
      </trkpt>
      <trkpt lat="49.47276" lon="1.03746">
        <ele>22</ele>
        <time>2014-10-30T14:28:00Z</time>
      </trkpt>
      <trkpt lat="49.47266" lon="1.03749">
        <ele>22</ele>
        <time>2014-10-30T14:28:02Z</time>
      </trkpt>
      <trkpt lat="49.47255" lon="1.03753">
        <ele>22</ele>
        <time>2014-10-30T14:28:04Z</time>
      </trkpt>
      <trkpt lat="49.47245" lon="1.03755">
        <ele>22</ele>
        <time>2014-10-30T14:28:06Z</time>
      </trkpt>
      <trkpt lat="49.47232" lon="1.0376">
        <ele>22</ele>
        <time>2014-10-30T14:28:09Z</time>
      </trkpt>
      <trkpt lat="49.47221" lon="1.03764">
        <ele>22</ele>
        <time>2014-10-30T14:28:12Z</time>
      </trkpt>
      <trkpt lat="49.47214" lon="1.03773">
        <ele>22</ele>
        <time>2014-10-30T14:28:17Z</time>
      </trkpt>
      <trkpt lat="49.47207" lon="1.03785">
        <ele>22</ele>
        <time>2014-10-30T14:28:22Z</time>
      </trkpt>
      <trkpt lat="49.47204" lon="1.03801">
        <ele>22</ele>
        <time>2014-10-30T14:28:27Z</time>
      </trkpt>
      <trkpt lat="49.47211" lon="1.03819">
        <ele>22</ele>
        <time>2014-10-30T14:28:30Z</time>
      </trkpt>
      <trkpt lat="49.47218" lon="1.03832">
        <ele>22</ele>
        <time>2014-10-30T14:28:32Z</time>
      </trkpt>
      <trkpt lat="49.47228" lon="1.03845">
        <ele>22</ele>
        <time>2014-10-30T14:28:34Z</time>
      </trkpt>
      <trkpt lat="49.47238" lon="1.0386">
        <ele>22</ele>
        <time>2014-10-30T14:28:36Z</time>
      </trkpt>
      <trkpt lat="49.47249" lon="1.03874">
        <ele>22</ele>
        <time>2014-10-30T14:28:38Z</time>
      </trkpt>
      <trkpt lat="49.4726" lon="1.03889">
        <ele>22</ele>
        <time>2014-10-30T14:28:40Z</time>
      </trkpt>
      <trkpt lat="49.47271" lon="1.03904">
        <ele>16</ele>
        <time>2014-10-30T14:28:42Z</time>
      </trkpt>
      <trkpt lat="49.47282" lon="1.03919">
        <ele>16</ele>
        <time>2014-10-30T14:28:44Z</time>
      </trkpt>
      <trkpt lat="49.47293" lon="1.03934">
        <ele>16</ele>
        <time>2014-10-30T14:28:46Z</time>
      </trkpt>
      <trkpt lat="49.47304" lon="1.03951">
        <ele>16</ele>
        <time>2014-10-30T14:28:48Z</time>
      </trkpt>
      <trkpt lat="49.47313" lon="1.03968">
        <ele>16</ele>
        <time>2014-10-30T14:28:50Z</time>
      </trkpt>
      <trkpt lat="49.4732" lon="1.03985">
        <ele>16</ele>
        <time>2014-10-30T14:28:52Z</time>
      </trkpt>
      <trkpt lat="49.47327" lon="1.04002">
        <ele>16</ele>
        <time>2014-10-30T14:28:54Z</time>
      </trkpt>
      <trkpt lat="49.47334" lon="1.04019">
        <ele>16</ele>
        <time>2014-10-30T14:28:56Z</time>
      </trkpt>
      <trkpt lat="49.47339" lon="1.04036">
        <ele>16</ele>
        <time>2014-10-30T14:28:58Z</time>
      </trkpt>
      <trkpt lat="49.47344" lon="1.04053">
        <ele>16</ele>
        <time>2014-10-30T14:29:00Z</time>
      </trkpt>
      <trkpt lat="49.47349" lon="1.0407">
        <ele>16</ele>
        <time>2014-10-30T14:29:02Z</time>
      </trkpt>
      <trkpt lat="49.47353" lon="1.04087">
        <ele>16</ele>
        <time>2014-10-30T14:29:04Z</time>
      </trkpt>
      <trkpt lat="49.47357" lon="1.04103">
        <ele>16</ele>
        <time>2014-10-30T14:29:06Z</time>
      </trkpt>
      <trkpt lat="49.47361" lon="1.04119">
        <ele>16</ele>
        <time>2014-10-30T14:29:08Z</time>
      </trkpt>
      <trkpt lat="49.47365" lon="1.04135">
        <ele>16</ele>
        <time>2014-10-30T14:29:10Z</time>
      </trkpt>
      <trkpt lat="49.47369" lon="1.04152">
        <ele>16</ele>
        <time>2014-10-30T14:29:12Z</time>
      </trkpt>
      <trkpt lat="49.47372" lon="1.04168">
        <ele>16</ele>
        <time>2014-10-30T14:29:14Z</time>
      </trkpt>
      <trkpt lat="49.47375" lon="1.04182">
        <ele>16</ele>
        <time>2014-10-30T14:29:16Z</time>
      </trkpt>
      <trkpt lat="49.47371" lon="1.04196">
        <ele>16</ele>
        <time>2014-10-30T14:29:18Z</time>
      </trkpt>
      <trkpt lat="49.47362" lon="1.04202">
        <ele>16</ele>
        <time>2014-10-30T14:29:20Z</time>
      </trkpt>
      <trkpt lat="49.47353" lon="1.04205">
        <ele>16</ele>
        <time>2014-10-30T14:29:22Z</time>
      </trkpt>
      <trkpt lat="49.47343" lon="1.04209">
        <ele>16</ele>
        <time>2014-10-30T14:29:24Z</time>
      </trkpt>
      <trkpt lat="49.47333" lon="1.04214">
        <ele>16</ele>
        <time>2014-10-30T14:29:26Z</time>
      </trkpt>
      <trkpt lat="49.47323" lon="1.04219">
        <ele>16</ele>
        <time>2014-10-30T14:29:28Z</time>
      </trkpt>
      <trkpt lat="49.47313" lon="1.04223">
        <ele>16</ele>
        <time>2014-10-30T14:29:30Z</time>
      </trkpt>
      <trkpt lat="49.47303" lon="1.04229">
        <ele>16</ele>
        <time>2014-10-30T14:29:32Z</time>
      </trkpt>
      <trkpt lat="49.47294" lon="1.04233">
        <ele>16</ele>
        <time>2014-10-30T14:29:34Z</time>
      </trkpt>
      <trkpt lat="49.47284" lon="1.04238">
        <ele>16</ele>
        <time>2014-10-30T14:29:36Z</time>
      </trkpt>
      <trkpt lat="49.47275" lon="1.04242">
        <ele>16</ele>
        <time>2014-10-30T14:29:38Z</time>
      </trkpt>
      <trkpt lat="49.47265" lon="1.04248">
        <ele>16</ele>
        <time>2014-10-30T14:29:40Z</time>
      </trkpt>
      <trkpt lat="49.47255" lon="1.04252">
        <ele>16</ele>
        <time>2014-10-30T14:29:42Z</time>
      </trkpt>
      <trkpt lat="49.47245" lon="1.04257">
        <ele>16</ele>
        <time>2014-10-30T14:29:44Z</time>
      </trkpt>
      <trkpt lat="49.47235" lon="1.04262">
        <ele>16</ele>
        <time>2014-10-30T14:29:46Z</time>
      </trkpt>
      <trkpt lat="49.47225" lon="1.04266">
        <ele>16</ele>
        <time>2014-10-30T14:29:48Z</time>
      </trkpt>
      <trkpt lat="49.47216" lon="1.0427">
        <ele>16</ele>
        <time>2014-10-30T14:29:50Z</time>
      </trkpt>
      <trkpt lat="49.47207" lon="1.04274">
        <ele>16</ele>
        <time>2014-10-30T14:29:52Z</time>
      </trkpt>
      <trkpt lat="49.47197" lon="1.04278">
        <ele>16</ele>
        <time>2014-10-30T14:29:54Z</time>
      </trkpt>
      <trkpt lat="49.47185" lon="1.04284">
        <ele>16</ele>
        <time>2014-10-30T14:29:57Z</time>
      </trkpt>
      <trkpt lat="49.47173" lon="1.0429">
        <ele>11</ele>
        <time>2014-10-30T14:30:00Z</time>
      </trkpt>
      <trkpt lat="49.4716" lon="1.04299">
        <ele>11</ele>
        <time>2014-10-30T14:30:03Z</time>
      </trkpt>
      <trkpt lat="49.47154" lon="1.04315">
        <ele>11</ele>
        <time>2014-10-30T14:30:06Z</time>
      </trkpt>
      <trkpt lat="49.47149" lon="1.04327">
        <ele>11</ele>
        <time>2014-10-30T14:30:09Z</time>
      </trkpt>
      <trkpt lat="49.47142" lon="1.0434">
        <ele>11</ele>
        <time>2014-10-30T14:30:13Z</time>
      </trkpt>
      <trkpt lat="49.47135" lon="1.04351">
        <ele>11</ele>
        <time>2014-10-30T14:30:17Z</time>
      </trkpt>
      <trkpt lat="49.4713" lon="1.04364">
        <ele>11</ele>
        <time>2014-10-30T14:30:21Z</time>
      </trkpt>
      <trkpt lat="49.47129" lon="1.04378">
        <ele>11</ele>
        <time>2014-10-30T14:30:25Z</time>
      </trkpt>
      <trkpt lat="49.47119" lon="1.04382">
        <ele>11</ele>
        <time>2014-10-30T14:30:30Z</time>
      </trkpt>
      <trkpt lat="49.47109" lon="1.04384">
        <ele>11</ele>
        <time>2014-10-30T14:30:34Z</time>
      </trkpt>
      <trkpt lat="49.47101" lon="1.04391">
        <ele>11</ele>
        <time>2014-10-30T14:30:39Z</time>
      </trkpt>
      <trkpt lat="49.47111" lon="1.04393">
        <ele>11</ele>
        <time>2014-10-30T14:30:45Z</time>
      </trkpt>
      <trkpt lat="49.47121" lon="1.04391">
        <ele>11</ele>
        <time>2014-10-30T14:30:51Z</time>
      </trkpt>
      <trkpt lat="49.47131" lon="1.04391">
        <ele>11</ele>
        <time>2014-10-30T14:30:55Z</time>
      </trkpt>
      <trkpt lat="49.47141" lon="1.04389">
        <ele>11</ele>
        <time>2014-10-30T14:30:59Z</time>
      </trkpt>
      <trkpt lat="49.47149" lon="1.04381">
        <ele>11</ele>
        <time>2014-10-30T14:31:02Z</time>
      </trkpt>
      <trkpt lat="49.47157" lon="1.04371">
        <ele>11</ele>
        <time>2014-10-30T14:31:05Z</time>
      </trkpt>
      <trkpt lat="49.47166" lon="1.0436">
        <ele>11</ele>
        <time>2014-10-30T14:31:08Z</time>
      </trkpt>
      <trkpt lat="49.47177" lon="1.04357">
        <ele>11</ele>
        <time>2014-10-30T14:31:11Z</time>
      </trkpt>
      <trkpt lat="49.4719" lon="1.04355">
        <ele>11</ele>
        <time>2014-10-30T14:31:14Z</time>
      </trkpt>
      <trkpt lat="49.47202" lon="1.04351">
        <ele>11</ele>
        <time>2014-10-30T14:31:17Z</time>
      </trkpt>
      <trkpt lat="49.47214" lon="1.04349">
        <ele>11</ele>
        <time>2014-10-30T14:31:20Z</time>
      </trkpt>
      <trkpt lat="49.47226" lon="1.04347">
        <ele>11</ele>
        <time>2014-10-30T14:31:23Z</time>
      </trkpt>
      <trkpt lat="49.47237" lon="1.04346">
        <ele>11</ele>
        <time>2014-10-30T14:31:26Z</time>
      </trkpt>
      <trkpt lat="49.47248" lon="1.04343">
        <ele>11</ele>
        <time>2014-10-30T14:31:29Z</time>
      </trkpt>
      <trkpt lat="49.47256" lon="1.04334">
        <ele>11</ele>
        <time>2014-10-30T14:31:32Z</time>
      </trkpt>
      <trkpt lat="49.4726" lon="1.04317">
        <ele>11</ele>
        <time>2014-10-30T14:31:35Z</time>
      </trkpt>
      <trkpt lat="49.4726" lon="1.04298">
        <ele>11</ele>
        <time>2014-10-30T14:31:38Z</time>
      </trkpt>
      <trkpt lat="49.47258" lon="1.0428">
        <ele>11</ele>
        <time>2014-10-30T14:31:41Z</time>
      </trkpt>
      <trkpt lat="49.47256" lon="1.04266">
        <ele>11</ele>
        <time>2014-10-30T14:31:44Z</time>
      </trkpt>
      <trkpt lat="49.47263" lon="1.04252">
        <ele>11</ele>
        <time>2014-10-30T14:31:50Z</time>
      </trkpt>
      <trkpt lat="49.47272" lon="1.04248">
        <ele>11</ele>
        <time>2014-10-30T14:31:53Z</time>
      </trkpt>
      <trkpt lat="49.47283" lon="1.04243">
        <ele>11</ele>
        <time>2014-10-30T14:31:56Z</time>
      </trkpt>
      <trkpt lat="49.47294" lon="1.04238">
        <ele>11</ele>
        <time>2014-10-30T14:31:59Z</time>
      </trkpt>
      <trkpt lat="49.47304" lon="1.04232">
        <ele>11</ele>
        <time>2014-10-30T14:32:02Z</time>
      </trkpt>
      <trkpt lat="49.47314" lon="1.04224">
        <ele>11</ele>
        <time>2014-10-30T14:32:05Z</time>
      </trkpt>
      <trkpt lat="49.47325" lon="1.04218">
        <ele>11</ele>
        <time>2014-10-30T14:32:08Z</time>
      </trkpt>
      <trkpt lat="49.47337" lon="1.04213">
        <ele>11</ele>
        <time>2014-10-30T14:32:11Z</time>
      </trkpt>
      <trkpt lat="49.47348" lon="1.04207">
        <ele>11</ele>
        <time>2014-10-30T14:32:14Z</time>
      </trkpt>
      <trkpt lat="49.47358" lon="1.04203">
        <ele>11</ele>
        <time>2014-10-30T14:32:17Z</time>
      </trkpt>
      <trkpt lat="49.47368" lon="1.042">
        <ele>11</ele>
        <time>2014-10-30T14:32:20Z</time>
      </trkpt>
      <trkpt lat="49.4738" lon="1.04201">
        <ele>11</ele>
        <time>2014-10-30T14:32:23Z</time>
      </trkpt>
      <trkpt lat="49.4739" lon="1.04203">
        <ele>11</ele>
        <time>2014-10-30T14:32:25Z</time>
      </trkpt>
      <trkpt lat="49.47399" lon="1.04206">
        <ele>11</ele>
        <time>2014-10-30T14:32:27Z</time>
      </trkpt>
      <trkpt lat="49.47409" lon="1.04208">
        <ele>11</ele>
        <time>2014-10-30T14:32:29Z</time>
      </trkpt>
      <trkpt lat="49.47419" lon="1.04211">
        <ele>11</ele>
        <time>2014-10-30T14:32:31Z</time>
      </trkpt>
      <trkpt lat="49.47429" lon="1.04214">
        <ele>11</ele>
        <time>2014-10-30T14:32:33Z</time>
      </trkpt>
      <trkpt lat="49.47438" lon="1.04217">
        <ele>11</ele>
        <time>2014-10-30T14:32:35Z</time>
      </trkpt>
      <trkpt lat="49.47449" lon="1.04221">
        <ele>11</ele>
        <time>2014-10-30T14:32:37Z</time>
      </trkpt>
      <trkpt lat="49.47458" lon="1.04225">
        <ele>11</ele>
        <time>2014-10-30T14:32:39Z</time>
      </trkpt>
      <trkpt lat="49.47468" lon="1.04229">
        <ele>11</ele>
        <time>2014-10-30T14:32:41Z</time>
      </trkpt>
      <trkpt lat="49.47478" lon="1.04233">
        <ele>11</ele>
        <time>2014-10-30T14:32:43Z</time>
      </trkpt>
      <trkpt lat="49.47488" lon="1.04238">
        <ele>11</ele>
        <time>2014-10-30T14:32:45Z</time>
      </trkpt>
      <trkpt lat="49.47498" lon="1.04242">
        <ele>11</ele>
        <time>2014-10-30T14:32:47Z</time>
      </trkpt>
      <trkpt lat="49.47508" lon="1.04247">
        <ele>11</ele>
        <time>2014-10-30T14:32:49Z</time>
      </trkpt>
      <trkpt lat="49.47517" lon="1.04251">
        <ele>16</ele>
        <time>2014-10-30T14:32:51Z</time>
      </trkpt>
      <trkpt lat="49.47527" lon="1.04256">
        <ele>16</ele>
        <time>2014-10-30T14:32:53Z</time>
      </trkpt>
      <trkpt lat="49.47537" lon="1.04259">
        <ele>16</ele>
        <time>2014-10-30T14:32:55Z</time>
      </trkpt>
      <trkpt lat="49.47547" lon="1.04265">
        <ele>16</ele>
        <time>2014-10-30T14:32:57Z</time>
      </trkpt>
      <trkpt lat="49.47556" lon="1.0427">
        <ele>16</ele>
        <time>2014-10-30T14:32:59Z</time>
      </trkpt>
      <trkpt lat="49.47565" lon="1.04276">
        <ele>16</ele>
        <time>2014-10-30T14:33:01Z</time>
      </trkpt>
      <trkpt lat="49.47574" lon="1.04282">
        <ele>16</ele>
        <time>2014-10-30T14:33:03Z</time>
      </trkpt>
      <trkpt lat="49.47584" lon="1.04287">
        <ele>16</ele>
        <time>2014-10-30T14:33:05Z</time>
      </trkpt>
      <trkpt lat="49.47593" lon="1.04294">
        <ele>16</ele>
        <time>2014-10-30T14:33:07Z</time>
      </trkpt>
      <trkpt lat="49.47603" lon="1.04298">
        <ele>16</ele>
        <time>2014-10-30T14:33:09Z</time>
      </trkpt>
      <trkpt lat="49.47612" lon="1.04303">
        <ele>16</ele>
        <time>2014-10-30T14:33:11Z</time>
      </trkpt>
      <trkpt lat="49.47622" lon="1.04307">
        <ele>16</ele>
        <time>2014-10-30T14:33:13Z</time>
      </trkpt>
      <trkpt lat="49.47631" lon="1.04311">
        <ele>16</ele>
        <time>2014-10-30T14:33:15Z</time>
      </trkpt>
      <trkpt lat="49.4764" lon="1.04313">
        <ele>16</ele>
        <time>2014-10-30T14:33:17Z</time>
      </trkpt>
      <trkpt lat="49.4765" lon="1.04312">
        <ele>16</ele>
        <time>2014-10-30T14:33:19Z</time>
      </trkpt>
      <trkpt lat="49.47659" lon="1.04309">
        <ele>22</ele>
        <time>2014-10-30T14:33:21Z</time>
      </trkpt>
      <trkpt lat="49.47668" lon="1.04305">
        <ele>22</ele>
        <time>2014-10-30T14:33:23Z</time>
      </trkpt>
      <trkpt lat="49.47677" lon="1.04303">
        <ele>22</ele>
        <time>2014-10-30T14:33:25Z</time>
      </trkpt>
      <trkpt lat="49.47687" lon="1.04302">
        <ele>22</ele>
        <time>2014-10-30T14:33:27Z</time>
      </trkpt>
      <trkpt lat="49.47695" lon="1.04296">
        <ele>22</ele>
        <time>2014-10-30T14:33:29Z</time>
      </trkpt>
      <trkpt lat="49.47701" lon="1.04284">
        <ele>22</ele>
        <time>2014-10-30T14:33:31Z</time>
      </trkpt>
      <trkpt lat="49.47703" lon="1.04269">
        <ele>22</ele>
        <time>2014-10-30T14:33:33Z</time>
      </trkpt>
      <trkpt lat="49.47704" lon="1.0425">
        <ele>22</ele>
        <time>2014-10-30T14:33:36Z</time>
      </trkpt>
      <trkpt lat="49.47705" lon="1.04233">
        <ele>22</ele>
        <time>2014-10-30T14:33:39Z</time>
      </trkpt>
      <trkpt lat="49.47701" lon="1.04221">
        <ele>22</ele>
        <time>2014-10-30T14:33:44Z</time>
      </trkpt>
    </trkseg>
  </trk>
</gpx>